<?xml version="1.0" encoding="UTF-8" standalone="no" ?>
<gpx xmlns="http://www.topografix.com/GPX/1/1" xmlns:xsi="http://www.w3.org/2001/XMLSchema-instance" xsi:schemaLocation="http://www.topografix.com/GPX/1/1 http://www.topografix.com/GPX/1/1/gpx.xsd" version="1.1" creator="VisuGPX - https://www.visugpx.com">
  <metadata>
    <name>GRAVEL 80 PB 2026</name>
    <desc><![CDATA[Rando Pierre BETRECHER 2026]]></desc>
  </metadata>
  <trk>
    <name><![CDATA[GRAVEL 80 PB 2026]]></name>
    <trkseg>
      <trkpt lat="47.23625" lon="-1.71925">
        <ele>18.076087</ele>
        <time>2026-09-03T13:23:01.865Z</time>
      </trkpt>
      <trkpt lat="47.23636" lon="-1.72026">
        <ele>18.076087</ele>
        <time>2026-09-03T13:23:16.624Z</time>
      </trkpt>
      <trkpt lat="47.23622" lon="-1.72042">
        <ele>18.076087</ele>
        <time>2026-09-03T13:23:18.675Z</time>
      </trkpt>
      <trkpt lat="47.23598" lon="-1.72061">
        <ele>17.581339</ele>
        <time>2026-09-03T13:23:21.721Z</time>
      </trkpt>
      <trkpt lat="47.23583" lon="-1.72072">
        <ele>17.230859</ele>
        <time>2026-09-03T13:23:23.650Z</time>
      </trkpt>
      <trkpt lat="47.23582" lon="-1.72072">
        <ele>17.219747</ele>
        <time>2026-09-03T13:23:23.715Z</time>
      </trkpt>
      <trkpt lat="47.23512" lon="-1.72094">
        <ele>15.744198</ele>
        <time>2026-09-03T13:23:32.396Z</time>
      </trkpt>
      <trkpt lat="47.23444" lon="-1.72124">
        <ele>14.347288</ele>
        <time>2026-09-03T13:23:42.046Z</time>
      </trkpt>
      <trkpt lat="47.23437" lon="-1.7212">
        <ele>14.301748</ele>
        <time>2026-09-03T13:23:43.141Z</time>
      </trkpt>
      <trkpt lat="47.23414" lon="-1.72108">
        <ele>14.161275</ele>
        <time>2026-09-03T13:23:46.485Z</time>
      </trkpt>
      <trkpt lat="47.23412" lon="-1.72107">
        <ele>14.146527</ele>
        <time>2026-09-03T13:23:46.844Z</time>
      </trkpt>
      <trkpt lat="47.23407" lon="-1.72068">
        <ele>13.985805</ele>
        <time>2026-09-03T13:23:50.793Z</time>
      </trkpt>
      <trkpt lat="47.23401" lon="-1.72069">
        <ele>13.955306</ele>
        <time>2026-09-03T13:23:51.831Z</time>
      </trkpt>
      <trkpt lat="47.2337" lon="-1.72078">
        <ele>13.767706</ele>
        <time>2026-09-03T13:23:58.142Z</time>
      </trkpt>
      <trkpt lat="47.23364" lon="-1.72086">
        <ele>13.719364</ele>
        <time>2026-09-03T13:23:59.786Z</time>
      </trkpt>
      <trkpt lat="47.23357" lon="-1.72113">
        <ele>13.606015</ele>
        <time>2026-09-03T13:24:03.738Z</time>
      </trkpt>
      <trkpt lat="47.23349" lon="-1.72145">
        <ele>13.471142</ele>
        <time>2026-09-03T13:24:08.443Z</time>
      </trkpt>
      <trkpt lat="47.23343" lon="-1.72162">
        <ele>13.393452</ele>
        <time>2026-09-03T13:24:11.734Z</time>
      </trkpt>
      <trkpt lat="47.23341" lon="-1.72174">
        <ele>13.342179</ele>
        <time>2026-09-03T13:24:13.889Z</time>
      </trkpt>
      <trkpt lat="47.23338" lon="-1.72196">
        <ele>13.284156</ele>
        <time>2026-09-03T13:24:17.522Z</time>
      </trkpt>
      <trkpt lat="47.23327" lon="-1.72211">
        <ele>13.235397</ele>
        <time>2026-09-03T13:24:21.256Z</time>
      </trkpt>
      <trkpt lat="47.23228" lon="-1.72247">
        <ele>12.908495</ele>
        <time>2026-09-03T13:24:46.515Z</time>
      </trkpt>
      <trkpt lat="47.23237" lon="-1.72298">
        <ele>12.792191</ele>
        <time>2026-09-03T13:24:51.346Z</time>
      </trkpt>
      <trkpt lat="47.23281" lon="-1.72513">
        <ele>11.972237</ele>
        <time>2026-09-03T13:25:09.829Z</time>
      </trkpt>
      <trkpt lat="47.23309" lon="-1.7264">
        <ele>12.150656</ele>
        <time>2026-09-03T13:25:21.855Z</time>
      </trkpt>
      <trkpt lat="47.2337" lon="-1.72901">
        <ele>14.110676</ele>
        <time>2026-09-03T13:26:18.623Z</time>
      </trkpt>
      <trkpt lat="47.23387" lon="-1.72955">
        <ele>14.66356</ele>
        <time>2026-09-03T13:26:31.847Z</time>
      </trkpt>
      <trkpt lat="47.23402" lon="-1.72986">
        <ele>15.020728</ele>
        <time>2026-09-03T13:26:40.257Z</time>
      </trkpt>
      <trkpt lat="47.2343" lon="-1.73067">
        <ele>15.802612</ele>
        <time>2026-09-03T13:26:58.927Z</time>
      </trkpt>
      <trkpt lat="47.23445" lon="-1.73141">
        <ele>15.109362</ele>
        <time>2026-09-03T13:27:12.284Z</time>
      </trkpt>
      <trkpt lat="47.23454" lon="-1.7322">
        <ele>14.383563</ele>
        <time>2026-09-03T13:27:24.773Z</time>
      </trkpt>
      <trkpt lat="47.23462" lon="-1.73244">
        <ele>14.1503</ele>
        <time>2026-09-03T13:27:28.591Z</time>
      </trkpt>
      <trkpt lat="47.23472" lon="-1.73266">
        <ele>13.913955</ele>
        <time>2026-09-03T13:27:32.387Z</time>
      </trkpt>
      <trkpt lat="47.23474" lon="-1.73275">
        <ele>13.821658</ele>
        <time>2026-09-03T13:27:33.859Z</time>
      </trkpt>
      <trkpt lat="47.23483" lon="-1.73313">
        <ele>13.462257</ele>
        <time>2026-09-03T13:27:39.517Z</time>
      </trkpt>
      <trkpt lat="47.23486" lon="-1.73356">
        <ele>12.513075</ele>
        <time>2026-09-03T13:27:45.597Z</time>
      </trkpt>
      <trkpt lat="47.23485" lon="-1.73475">
        <ele>9.887908</ele>
        <time>2026-09-03T13:28:01.978Z</time>
      </trkpt>
      <trkpt lat="47.23487" lon="-1.73483">
        <ele>9.694907</ele>
        <time>2026-09-03T13:28:03.181Z</time>
      </trkpt>
      <trkpt lat="47.23487" lon="-1.73529">
        <ele>8.669318</ele>
        <time>2026-09-03T13:28:09.593Z</time>
      </trkpt>
      <trkpt lat="47.23493" lon="-1.73565">
        <ele>7.869896</ele>
        <time>2026-09-03T13:28:14.614Z</time>
      </trkpt>
      <trkpt lat="47.23489" lon="-1.73609">
        <ele>7.22827</ele>
        <time>2026-09-03T13:28:20.998Z</time>
      </trkpt>
      <trkpt lat="47.2349" lon="-1.73632">
        <ele>6.982592</ele>
        <time>2026-09-03T13:28:24.184Z</time>
      </trkpt>
      <trkpt lat="47.23493" lon="-1.7364">
        <ele>6.87463</ele>
        <time>2026-09-03T13:28:25.609Z</time>
      </trkpt>
      <trkpt lat="47.23513" lon="-1.73685">
        <ele>6.274146</ele>
        <time>2026-09-03T13:28:29.565Z</time>
      </trkpt>
      <trkpt lat="47.23521" lon="-1.73702">
        <ele>6.052511</ele>
        <time>2026-09-03T13:28:31.070Z</time>
      </trkpt>
      <trkpt lat="47.23425" lon="-1.73846">
        <ele>4.564172</ele>
        <time>2026-09-03T13:29:04.119Z</time>
      </trkpt>
      <trkpt lat="47.23456" lon="-1.7387">
        <ele>4.502722</ele>
        <time>2026-09-03T13:29:09.627Z</time>
      </trkpt>
      <trkpt lat="47.23469" lon="-1.73885">
        <ele>4.474121</ele>
        <time>2026-09-03T13:29:12.210Z</time>
      </trkpt>
      <trkpt lat="47.23479" lon="-1.73917">
        <ele>4.432056</ele>
        <time>2026-09-03T13:29:16.010Z</time>
      </trkpt>
      <trkpt lat="47.23473" lon="-1.74061">
        <ele>4.57258</ele>
        <time>2026-09-03T13:29:32.118Z</time>
      </trkpt>
      <trkpt lat="47.23458" lon="-1.74207">
        <ele>5.078071</ele>
        <time>2026-09-03T13:29:50.580Z</time>
      </trkpt>
      <trkpt lat="47.23434" lon="-1.7428">
        <ele>5.245331</ele>
        <time>2026-09-03T13:30:00.511Z</time>
      </trkpt>
      <trkpt lat="47.23432" lon="-1.74297">
        <ele>5.243599</ele>
        <time>2026-09-03T13:30:02.579Z</time>
      </trkpt>
      <trkpt lat="47.23432" lon="-1.74316">
        <ele>5.24173</ele>
        <time>2026-09-03T13:30:04.795Z</time>
      </trkpt>
      <trkpt lat="47.23437" lon="-1.74345">
        <ele>5.238654</ele>
        <time>2026-09-03T13:30:08.428Z</time>
      </trkpt>
      <trkpt lat="47.23446" lon="-1.74362">
        <ele>5.23659</ele>
        <time>2026-09-03T13:30:10.830Z</time>
      </trkpt>
      <trkpt lat="47.23455" lon="-1.74373">
        <ele>5.23481</ele>
        <time>2026-09-03T13:30:12.868Z</time>
      </trkpt>
      <trkpt lat="47.23575" lon="-1.74473">
        <ele>4.723953</ele>
        <time>2026-09-03T13:30:33.308Z</time>
      </trkpt>
      <trkpt lat="47.23604" lon="-1.74488">
        <ele>4.417154</ele>
        <time>2026-09-03T13:30:37.601Z</time>
      </trkpt>
      <trkpt lat="47.23661" lon="-1.74504">
        <ele>3.849746</ele>
        <time>2026-09-03T13:30:45.472Z</time>
      </trkpt>
      <trkpt lat="47.23763" lon="-1.74526">
        <ele>3.153673</ele>
        <time>2026-09-03T13:30:59.869Z</time>
      </trkpt>
      <trkpt lat="47.23804" lon="-1.74545">
        <ele>2.958077</ele>
        <time>2026-09-03T13:31:06.201Z</time>
      </trkpt>
      <trkpt lat="47.23822" lon="-1.74563">
        <ele>2.855437</ele>
        <time>2026-09-03T13:31:09.551Z</time>
      </trkpt>
      <trkpt lat="47.23877" lon="-1.7466">
        <ele>3.370746</ele>
        <time>2026-09-03T13:31:23.521Z</time>
      </trkpt>
      <trkpt lat="47.23912" lon="-1.74703">
        <ele>4.398225</ele>
        <time>2026-09-03T13:31:32.899Z</time>
      </trkpt>
      <trkpt lat="47.23927" lon="-1.74723">
        <ele>4.854985</ele>
        <time>2026-09-03T13:31:37.861Z</time>
      </trkpt>
      <trkpt lat="47.23954" lon="-1.7471">
        <ele>5.49825</ele>
        <time>2026-09-03T13:31:45.623Z</time>
      </trkpt>
      <trkpt lat="47.2397" lon="-1.74707">
        <ele>5.877861</ele>
        <time>2026-09-03T13:31:50.480Z</time>
      </trkpt>
      <trkpt lat="47.23986" lon="-1.74707">
        <ele>6.228213</ele>
        <time>2026-09-03T13:31:55.099Z</time>
      </trkpt>
      <trkpt lat="47.23984" lon="-1.74713">
        <ele>6.322613</ele>
        <time>2026-09-03T13:31:56.349Z</time>
      </trkpt>
      <trkpt lat="47.23989" lon="-1.7473">
        <ele>6.603556</ele>
        <time>2026-09-03T13:32:00.182Z</time>
      </trkpt>
      <trkpt lat="47.24031" lon="-1.74741">
        <ele>7.647925</ele>
        <time>2026-09-03T13:32:13.566Z</time>
      </trkpt>
      <trkpt lat="47.24056" lon="-1.74744">
        <ele>8.256384</ele>
        <time>2026-09-03T13:32:21.018Z</time>
      </trkpt>
      <trkpt lat="47.2408" lon="-1.74751">
        <ele>8.847553</ele>
        <time>2026-09-03T13:32:27.910Z</time>
      </trkpt>
      <trkpt lat="47.24107" lon="-1.74774">
        <ele>9.618267</ele>
        <time>2026-09-03T13:32:35.972Z</time>
      </trkpt>
      <trkpt lat="47.24119" lon="-1.74714">
        <ele>10.655197</ele>
        <time>2026-09-03T13:32:48.660Z</time>
      </trkpt>
      <trkpt lat="47.24121" lon="-1.74693">
        <ele>11.003935</ele>
        <time>2026-09-03T13:32:52.390Z</time>
      </trkpt>
      <trkpt lat="47.24112" lon="-1.74596">
        <ele>11.270258</ele>
        <time>2026-09-03T13:33:08.283Z</time>
      </trkpt>
      <trkpt lat="47.24115" lon="-1.74538">
        <ele>11.380128</ele>
        <time>2026-09-03T13:33:18.030Z</time>
      </trkpt>
      <trkpt lat="47.24107" lon="-1.74506">
        <ele>11.444799</ele>
        <time>2026-09-03T13:33:24.337Z</time>
      </trkpt>
      <trkpt lat="47.24102" lon="-1.74456">
        <ele>11.541217</ele>
        <time>2026-09-03T13:33:34.090Z</time>
      </trkpt>
      <trkpt lat="47.24166" lon="-1.74436">
        <ele>12.07716</ele>
        <time>2026-09-03T13:33:53.909Z</time>
      </trkpt>
      <trkpt lat="47.24549" lon="-1.74232">
        <ele>16.133675</ele>
        <time>2026-09-03T13:35:52.488Z</time>
      </trkpt>
      <trkpt lat="47.24555" lon="-1.7424">
        <ele>16.203198</ele>
        <time>2026-09-03T13:35:54.859Z</time>
      </trkpt>
      <trkpt lat="47.24613" lon="-1.74319">
        <ele>16.875581</ele>
        <time>2026-09-03T13:36:17.111Z</time>
      </trkpt>
      <trkpt lat="47.24617" lon="-1.74325">
        <ele>16.860999</ele>
        <time>2026-09-03T13:36:18.790Z</time>
      </trkpt>
      <trkpt lat="47.24641" lon="-1.74363">
        <ele>16.778825</ele>
        <time>2026-09-03T13:36:28.131Z</time>
      </trkpt>
      <trkpt lat="47.24778" lon="-1.74539">
        <ele>16.377944</ele>
        <time>2026-09-03T13:37:12.124Z</time>
      </trkpt>
      <trkpt lat="47.24796" lon="-1.74571">
        <ele>16.329225</ele>
        <time>2026-09-03T13:37:19.100Z</time>
      </trkpt>
      <trkpt lat="47.24787" lon="-1.74577">
        <ele>16.311464</ele>
        <time>2026-09-03T13:37:20.484Z</time>
      </trkpt>
      <trkpt lat="47.24762" lon="-1.7458">
        <ele>16.26822</ele>
        <time>2026-09-03T13:37:23.966Z</time>
      </trkpt>
      <trkpt lat="47.24714" lon="-1.74547">
        <ele>16.17613</ele>
        <time>2026-09-03T13:37:31.435Z</time>
      </trkpt>
      <trkpt lat="47.24696" lon="-1.74537">
        <ele>16.143132</ele>
        <time>2026-09-03T13:37:34.076Z</time>
      </trkpt>
      <trkpt lat="47.24683" lon="-1.74535">
        <ele>15.989011</ele>
        <time>2026-09-03T13:37:35.926Z</time>
      </trkpt>
      <trkpt lat="47.24668" lon="-1.74539">
        <ele>15.782225</ele>
        <time>2026-09-03T13:37:38.106Z</time>
      </trkpt>
      <trkpt lat="47.24643" lon="-1.74551">
        <ele>15.43592</ele>
        <time>2026-09-03T13:37:41.596Z</time>
      </trkpt>
      <trkpt lat="47.24605" lon="-1.74575">
        <ele>14.893021</ele>
        <time>2026-09-03T13:37:46.520Z</time>
      </trkpt>
      <trkpt lat="47.24555" lon="-1.74592">
        <ele>14.224236</ele>
        <time>2026-09-03T13:37:51.996Z</time>
      </trkpt>
      <trkpt lat="47.24513" lon="-1.74615">
        <ele>13.584227</ele>
        <time>2026-09-03T13:37:56.633Z</time>
      </trkpt>
      <trkpt lat="47.24487" lon="-1.74646">
        <ele>12.965218</ele>
        <time>2026-09-03T13:38:00.196Z</time>
      </trkpt>
      <trkpt lat="47.24454" lon="-1.74713">
        <ele>11.962409</ele>
        <time>2026-09-03T13:38:06.177Z</time>
      </trkpt>
      <trkpt lat="47.24435" lon="-1.74732">
        <ele>11.548823</ele>
        <time>2026-09-03T13:38:08.742Z</time>
      </trkpt>
      <trkpt lat="47.2441" lon="-1.74739">
        <ele>11.089579</ele>
        <time>2026-09-03T13:38:11.664Z</time>
      </trkpt>
      <trkpt lat="47.24349" lon="-1.74749">
        <ele>10.328388</ele>
        <time>2026-09-03T13:38:19.201Z</time>
      </trkpt>
      <trkpt lat="47.2432" lon="-1.74763">
        <ele>10.120258</ele>
        <time>2026-09-03T13:38:23.284Z</time>
      </trkpt>
      <trkpt lat="47.24286" lon="-1.74788">
        <ele>9.862359</ele>
        <time>2026-09-03T13:38:28.495Z</time>
      </trkpt>
      <trkpt lat="47.24248" lon="-1.74822">
        <ele>9.565963</ele>
        <time>2026-09-03T13:38:34.078Z</time>
      </trkpt>
      <trkpt lat="47.24199" lon="-1.74855">
        <ele>8.997409</ele>
        <time>2026-09-03T13:38:40.442Z</time>
      </trkpt>
      <trkpt lat="47.24205" lon="-1.74861">
        <ele>8.856536</ele>
        <time>2026-09-03T13:38:41.306Z</time>
      </trkpt>
      <trkpt lat="47.24431" lon="-1.74983">
        <ele>5.181667</ele>
        <time>2026-09-03T13:39:07.202Z</time>
      </trkpt>
      <trkpt lat="47.24451" lon="-1.74999">
        <ele>4.971356</ele>
        <time>2026-09-03T13:39:09.962Z</time>
      </trkpt>
      <trkpt lat="47.24556" lon="-1.75112">
        <ele>4.472661</ele>
        <time>2026-09-03T13:39:29.476Z</time>
      </trkpt>
      <trkpt lat="47.24588" lon="-1.75147">
        <ele>4.593437</ele>
        <time>2026-09-03T13:39:36.049Z</time>
      </trkpt>
      <trkpt lat="47.24692" lon="-1.75241">
        <ele>4.804728</ele>
        <time>2026-09-03T13:39:53.258Z</time>
      </trkpt>
      <trkpt lat="47.2481" lon="-1.7542">
        <ele>5.432187</ele>
        <time>2026-09-03T13:40:15.245Z</time>
      </trkpt>
      <trkpt lat="47.24822" lon="-1.75439">
        <ele>5.882304</ele>
        <time>2026-09-03T13:40:18.532Z</time>
      </trkpt>
      <trkpt lat="47.2483" lon="-1.75466">
        <ele>6.388085</ele>
        <time>2026-09-03T13:40:22.492Z</time>
      </trkpt>
      <trkpt lat="47.24854" lon="-1.75437">
        <ele>7.162311</ele>
        <time>2026-09-03T13:40:29.941Z</time>
      </trkpt>
      <trkpt lat="47.24879" lon="-1.75371">
        <ele>8.480426</ele>
        <time>2026-09-03T13:40:45.305Z</time>
      </trkpt>
      <trkpt lat="47.24896" lon="-1.75345">
        <ele>9.101601</ele>
        <time>2026-09-03T13:40:53.335Z</time>
      </trkpt>
      <trkpt lat="47.24914" lon="-1.75325">
        <ele>9.858543</ele>
        <time>2026-09-03T13:41:00.974Z</time>
      </trkpt>
      <trkpt lat="47.24935" lon="-1.75293">
        <ele>10.979182</ele>
        <time>2026-09-03T13:41:10.970Z</time>
      </trkpt>
      <trkpt lat="47.24951" lon="-1.75257">
        <ele>12.068114</ele>
        <time>2026-09-03T13:41:20.364Z</time>
      </trkpt>
      <trkpt lat="47.24954" lon="-1.75233">
        <ele>12.689458</ele>
        <time>2026-09-03T13:41:25.525Z</time>
      </trkpt>
      <trkpt lat="47.24963" lon="-1.75213">
        <ele>13.288164</ele>
        <time>2026-09-03T13:41:30.433Z</time>
      </trkpt>
      <trkpt lat="47.25011" lon="-1.75171">
        <ele>15.369341</ele>
        <time>2026-09-03T13:41:46.202Z</time>
      </trkpt>
      <trkpt lat="47.25065" lon="-1.75121">
        <ele>16.184407</ele>
        <time>2026-09-03T13:42:00.135Z</time>
      </trkpt>
      <trkpt lat="47.25076" lon="-1.75113">
        <ele>16.242341</ele>
        <time>2026-09-03T13:42:02.365Z</time>
      </trkpt>
      <trkpt lat="47.2511" lon="-1.75085">
        <ele>16.434498</ele>
        <time>2026-09-03T13:42:09.104Z</time>
      </trkpt>
      <trkpt lat="47.25156" lon="-1.75051">
        <ele>16.689388</ele>
        <time>2026-09-03T13:42:21.906Z</time>
      </trkpt>
      <trkpt lat="47.25162" lon="-1.75055">
        <ele>16.72324</ele>
        <time>2026-09-03T13:42:23.568Z</time>
      </trkpt>
      <trkpt lat="47.25395" lon="-1.75358">
        <ele>14.496169</ele>
        <time>2026-09-03T13:43:36.877Z</time>
      </trkpt>
      <trkpt lat="47.25511" lon="-1.75512">
        <ele>14.193817</ele>
        <time>2026-09-03T13:43:56.721Z</time>
      </trkpt>
      <trkpt lat="47.25524" lon="-1.75526">
        <ele>14.232989</ele>
        <time>2026-09-03T13:43:59.321Z</time>
      </trkpt>
      <trkpt lat="47.25575" lon="-1.75598">
        <ele>14.409285</ele>
        <time>2026-09-03T13:44:12.345Z</time>
      </trkpt>
      <trkpt lat="47.25642" lon="-1.75689">
        <ele>15.178608</ele>
        <time>2026-09-03T13:44:30.876Z</time>
      </trkpt>
      <trkpt lat="47.25701" lon="-1.75773">
        <ele>15.92336</ele>
        <time>2026-09-03T13:44:46.278Z</time>
      </trkpt>
      <trkpt lat="47.25806" lon="-1.75911">
        <ele>15.685629</ele>
        <time>2026-09-03T13:45:07.088Z</time>
      </trkpt>
      <trkpt lat="47.25985" lon="-1.76144">
        <ele>14.171254</ele>
        <time>2026-09-03T13:45:40.492Z</time>
      </trkpt>
      <trkpt lat="47.2596" lon="-1.76215">
        <ele>13.445422</ele>
        <time>2026-09-03T13:45:46.887Z</time>
      </trkpt>
      <trkpt lat="47.26001" lon="-1.76293">
        <ele>12.534599</ele>
        <time>2026-09-03T13:45:54.672Z</time>
      </trkpt>
      <trkpt lat="47.26104" lon="-1.76505">
        <ele>9.490349</ele>
        <time>2026-09-03T13:46:14.137Z</time>
      </trkpt>
      <trkpt lat="47.26085" lon="-1.76612">
        <ele>8.166904</ele>
        <time>2026-09-03T13:46:22.301Z</time>
      </trkpt>
      <trkpt lat="47.2609" lon="-1.7668">
        <ele>7.539654</ele>
        <time>2026-09-03T13:46:27.273Z</time>
      </trkpt>
      <trkpt lat="47.26106" lon="-1.76718">
        <ele>7.13386</ele>
        <time>2026-09-03T13:46:30.526Z</time>
      </trkpt>
      <trkpt lat="47.26134" lon="-1.76772">
        <ele>6.510658</ele>
        <time>2026-09-03T13:46:35.814Z</time>
      </trkpt>
      <trkpt lat="47.26146" lon="-1.76792">
        <ele>6.266578</ele>
        <time>2026-09-03T13:46:40.158Z</time>
      </trkpt>
      <trkpt lat="47.26155" lon="-1.76835">
        <ele>6.173149</ele>
        <time>2026-09-03T13:46:47.862Z</time>
      </trkpt>
      <trkpt lat="47.26164" lon="-1.76911">
        <ele>7.096681</ele>
        <time>2026-09-03T13:47:03.147Z</time>
      </trkpt>
      <trkpt lat="47.26183" lon="-1.77012">
        <ele>8.351657</ele>
        <time>2026-09-03T13:47:27.234Z</time>
      </trkpt>
      <trkpt lat="47.26194" lon="-1.7709">
        <ele>9.364643</ele>
        <time>2026-09-03T13:47:46.673Z</time>
      </trkpt>
      <trkpt lat="47.26212" lon="-1.77181">
        <ele>10.889969</ele>
        <time>2026-09-03T13:48:09.251Z</time>
      </trkpt>
      <trkpt lat="47.26252" lon="-1.77352">
        <ele>13.638749</ele>
        <time>2026-09-03T13:48:50.263Z</time>
      </trkpt>
      <trkpt lat="47.26254" lon="-1.77382">
        <ele>13.907898</ele>
        <time>2026-09-03T13:48:56.602Z</time>
      </trkpt>
      <trkpt lat="47.26313" lon="-1.77421">
        <ele>14.77974</ele>
        <time>2026-09-03T13:49:16.471Z</time>
      </trkpt>
      <trkpt lat="47.26381" lon="-1.77449">
        <ele>15.730986</ele>
        <time>2026-09-03T13:49:36.894Z</time>
      </trkpt>
      <trkpt lat="47.26391" lon="-1.77456">
        <ele>15.859796</ele>
        <time>2026-09-03T13:49:39.812Z</time>
      </trkpt>
      <trkpt lat="47.26396" lon="-1.77465">
        <ele>15.914768</ele>
        <time>2026-09-03T13:49:42.236Z</time>
      </trkpt>
      <trkpt lat="47.26413" lon="-1.77453">
        <ele>16.036111</ele>
        <time>2026-09-03T13:49:45.764Z</time>
      </trkpt>
      <trkpt lat="47.265" lon="-1.77486">
        <ele>16.617937</ele>
        <time>2026-09-03T13:50:10.833Z</time>
      </trkpt>
      <trkpt lat="47.2658" lon="-1.77504">
        <ele>17.139117</ele>
        <time>2026-09-03T13:50:32.748Z</time>
      </trkpt>
      <trkpt lat="47.26679" lon="-1.77536">
        <ele>17.794711</ele>
        <time>2026-09-03T13:51:00.755Z</time>
      </trkpt>
      <trkpt lat="47.26733" lon="-1.77568">
        <ele>18.17197</ele>
        <time>2026-09-03T13:51:17.266Z</time>
      </trkpt>
      <trkpt lat="47.26801" lon="-1.77601">
        <ele>18.326476</ele>
        <time>2026-09-03T13:51:37.040Z</time>
      </trkpt>
      <trkpt lat="47.26817" lon="-1.77613">
        <ele>18.366858</ele>
        <time>2026-09-03T13:51:42.066Z</time>
      </trkpt>
      <trkpt lat="47.2688" lon="-1.77687">
        <ele>18.540452</ele>
        <time>2026-09-03T13:52:02.615Z</time>
      </trkpt>
      <trkpt lat="47.26944" lon="-1.77834">
        <ele>17.349735</ele>
        <time>2026-09-03T13:52:30.782Z</time>
      </trkpt>
      <trkpt lat="47.26959" lon="-1.77854">
        <ele>17.1243</ele>
        <time>2026-09-03T13:52:35.338Z</time>
      </trkpt>
      <trkpt lat="47.27065" lon="-1.77942">
        <ele>14.789428</ele>
        <time>2026-09-03T13:53:02.459Z</time>
      </trkpt>
      <trkpt lat="47.27094" lon="-1.77985">
        <ele>13.783941</ele>
        <time>2026-09-03T13:53:11.023Z</time>
      </trkpt>
      <trkpt lat="47.27101" lon="-1.78011">
        <ele>13.315701</ele>
        <time>2026-09-03T13:53:14.959Z</time>
      </trkpt>
      <trkpt lat="47.27104" lon="-1.78013">
        <ele>13.218228</ele>
        <time>2026-09-03T13:53:15.425Z</time>
      </trkpt>
      <trkpt lat="47.27107" lon="-1.78012">
        <ele>13.134719</ele>
        <time>2026-09-03T13:53:15.838Z</time>
      </trkpt>
      <trkpt lat="47.2711" lon="-1.78015">
        <ele>13.047564</ele>
        <time>2026-09-03T13:53:16.250Z</time>
      </trkpt>
      <trkpt lat="47.27109" lon="-1.78023">
        <ele>12.904493</ele>
        <time>2026-09-03T13:53:16.944Z</time>
      </trkpt>
      <trkpt lat="47.27116" lon="-1.78038">
        <ele>12.595896</ele>
        <time>2026-09-03T13:53:18.177Z</time>
      </trkpt>
      <trkpt lat="47.27175" lon="-1.78213">
        <ele>9.489815</ele>
        <time>2026-09-03T13:53:31.489Z</time>
      </trkpt>
      <trkpt lat="47.27218" lon="-1.78355">
        <ele>8.419374</ele>
        <time>2026-09-03T13:53:44.114Z</time>
      </trkpt>
      <trkpt lat="47.2723" lon="-1.7838">
        <ele>8.70081</ele>
        <time>2026-09-03T13:53:47.325Z</time>
      </trkpt>
      <trkpt lat="47.27245" lon="-1.78398">
        <ele>8.963566</ele>
        <time>2026-09-03T13:53:50.615Z</time>
      </trkpt>
      <trkpt lat="47.27259" lon="-1.78415">
        <ele>9.207224</ele>
        <time>2026-09-03T13:53:54.019Z</time>
      </trkpt>
      <trkpt lat="47.27287" lon="-1.78451">
        <ele>9.715855</ele>
        <time>2026-09-03T13:54:02.399Z</time>
      </trkpt>
      <trkpt lat="47.27304" lon="-1.78437">
        <ele>9.973533</ele>
        <time>2026-09-03T13:54:07.153Z</time>
      </trkpt>
      <trkpt lat="47.27311" lon="-1.7843">
        <ele>10.093505</ele>
        <time>2026-09-03T13:54:09.368Z</time>
      </trkpt>
      <trkpt lat="47.27321" lon="-1.7845">
        <ele>10.323299</ele>
        <time>2026-09-03T13:54:13.666Z</time>
      </trkpt>
      <trkpt lat="47.27341" lon="-1.78455">
        <ele>10.760871</ele>
        <time>2026-09-03T13:54:18.577Z</time>
      </trkpt>
      <trkpt lat="47.27349" lon="-1.78462">
        <ele>10.983026</ele>
        <time>2026-09-03T13:54:20.864Z</time>
      </trkpt>
      <trkpt lat="47.27374" lon="-1.78507">
        <ele>11.903404</ele>
        <time>2026-09-03T13:54:30.325Z</time>
      </trkpt>
      <trkpt lat="47.27405" lon="-1.7856">
        <ele>12.995313</ele>
        <time>2026-09-03T13:54:41.570Z</time>
      </trkpt>
      <trkpt lat="47.27457" lon="-1.78657">
        <ele>14.665115</ele>
        <time>2026-09-03T13:54:57.977Z</time>
      </trkpt>
      <trkpt lat="47.27471" lon="-1.78692">
        <ele>14.877013</ele>
        <time>2026-09-03T13:55:02.323Z</time>
      </trkpt>
      <trkpt lat="47.27475" lon="-1.78714">
        <ele>15.00026</ele>
        <time>2026-09-03T13:55:04.811Z</time>
      </trkpt>
      <trkpt lat="47.27475" lon="-1.78734">
        <ele>15.104623</ele>
        <time>2026-09-03T13:55:06.890Z</time>
      </trkpt>
      <trkpt lat="47.27473" lon="-1.78753">
        <ele>15.204867</ele>
        <time>2026-09-03T13:55:08.878Z</time>
      </trkpt>
      <trkpt lat="47.27436" lon="-1.7893">
        <ele>16.072813</ele>
        <time>2026-09-03T13:55:28.760Z</time>
      </trkpt>
      <trkpt lat="47.27439" lon="-1.78932">
        <ele>16.088964</ele>
        <time>2026-09-03T13:55:29.422Z</time>
      </trkpt>
      <trkpt lat="47.27446" lon="-1.78948">
        <ele>16.146625</ele>
        <time>2026-09-03T13:55:31.800Z</time>
      </trkpt>
      <trkpt lat="47.27478" lon="-1.79049">
        <ele>16.484207</ele>
        <time>2026-09-03T13:55:45.324Z</time>
      </trkpt>
      <trkpt lat="47.27485" lon="-1.79077">
        <ele>16.573902</ele>
        <time>2026-09-03T13:55:48.790Z</time>
      </trkpt>
      <trkpt lat="47.27493" lon="-1.79099">
        <ele>16.647726</ele>
        <time>2026-09-03T13:55:51.632Z</time>
      </trkpt>
      <trkpt lat="47.27535" lon="-1.79192">
        <ele>16.515554</ele>
        <time>2026-09-03T13:56:03.690Z</time>
      </trkpt>
      <trkpt lat="47.2762" lon="-1.79325">
        <ele>16.069483</ele>
        <time>2026-09-03T13:56:21.967Z</time>
      </trkpt>
      <trkpt lat="47.27688" lon="-1.79459">
        <ele>15.375999</ele>
        <time>2026-09-03T13:56:38.405Z</time>
      </trkpt>
      <trkpt lat="47.27715" lon="-1.79492">
        <ele>15.16196</ele>
        <time>2026-09-03T13:56:43.520Z</time>
      </trkpt>
      <trkpt lat="47.27721" lon="-1.79503">
        <ele>15.10067</ele>
        <time>2026-09-03T13:56:44.994Z</time>
      </trkpt>
      <trkpt lat="47.27725" lon="-1.79524">
        <ele>15.01157</ele>
        <time>2026-09-03T13:56:47.160Z</time>
      </trkpt>
      <trkpt lat="47.2773" lon="-1.79611">
        <ele>14.97475</ele>
        <time>2026-09-03T13:56:56.023Z</time>
      </trkpt>
      <trkpt lat="47.27736" lon="-1.79648">
        <ele>14.970182</ele>
        <time>2026-09-03T13:56:59.877Z</time>
      </trkpt>
      <trkpt lat="47.27742" lon="-1.79662">
        <ele>14.968101</ele>
        <time>2026-09-03T13:57:01.697Z</time>
      </trkpt>
      <trkpt lat="47.27752" lon="-1.7966">
        <ele>14.96641</ele>
        <time>2026-09-03T13:57:03.280Z</time>
      </trkpt>
      <trkpt lat="47.27826" lon="-1.79596">
        <ele>14.958559</ele>
        <time>2026-09-03T13:57:18.352Z</time>
      </trkpt>
      <trkpt lat="47.27831" lon="-1.79595">
        <ele>14.962886</ele>
        <time>2026-09-03T13:57:19.249Z</time>
      </trkpt>
      <trkpt lat="47.27839" lon="-1.79604">
        <ele>14.971493</ele>
        <time>2026-09-03T13:57:21.033Z</time>
      </trkpt>
      <trkpt lat="47.27846" lon="-1.79622">
        <ele>14.982877</ele>
        <time>2026-09-03T13:57:23.374Z</time>
      </trkpt>
      <trkpt lat="47.27872" lon="-1.79692">
        <ele>15.028224</ele>
        <time>2026-09-03T13:57:32.613Z</time>
      </trkpt>
      <trkpt lat="47.2788" lon="-1.79698">
        <ele>15.035597</ele>
        <time>2026-09-03T13:57:34.097Z</time>
      </trkpt>
      <trkpt lat="47.27885" lon="-1.79697">
        <ele>15.039466</ele>
        <time>2026-09-03T13:57:34.907Z</time>
      </trkpt>
      <trkpt lat="47.27982" lon="-1.79591">
        <ele>14.866436</ele>
        <time>2026-09-03T13:57:53.439Z</time>
      </trkpt>
      <trkpt lat="47.2799" lon="-1.79594">
        <ele>14.825554</ele>
        <time>2026-09-03T13:57:54.593Z</time>
      </trkpt>
      <trkpt lat="47.28057" lon="-1.79754">
        <ele>14.16808</ele>
        <time>2026-09-03T13:58:13.191Z</time>
      </trkpt>
      <trkpt lat="47.28058" lon="-1.79756">
        <ele>14.157357</ele>
        <time>2026-09-03T13:58:13.644Z</time>
      </trkpt>
      <trkpt lat="47.28118" lon="-1.79935">
        <ele>13.400037</ele>
        <time>2026-09-03T13:58:45.827Z</time>
      </trkpt>
      <trkpt lat="47.28166" lon="-1.80085">
        <ele>13.793078</ele>
        <time>2026-09-03T13:59:14.616Z</time>
      </trkpt>
      <trkpt lat="47.28205" lon="-1.80212">
        <ele>14.61929</ele>
        <time>2026-09-03T13:59:43.751Z</time>
      </trkpt>
      <trkpt lat="47.28225" lon="-1.80292">
        <ele>14.767362</ele>
        <time>2026-09-03T14:00:01.775Z</time>
      </trkpt>
      <trkpt lat="47.28234" lon="-1.80309">
        <ele>14.774505</ele>
        <time>2026-09-03T14:00:04.635Z</time>
      </trkpt>
      <trkpt lat="47.2826" lon="-1.80388">
        <ele>14.802299</ele>
        <time>2026-09-03T14:00:13.980Z</time>
      </trkpt>
      <trkpt lat="47.28384" lon="-1.80777">
        <ele>12.168652</ele>
        <time>2026-09-03T14:00:54.182Z</time>
      </trkpt>
      <trkpt lat="47.2843" lon="-1.80925">
        <ele>10.967395</ele>
        <time>2026-09-03T14:01:09.778Z</time>
      </trkpt>
      <trkpt lat="47.28577" lon="-1.81412">
        <ele>6.253686</ele>
        <time>2026-09-03T14:01:58.622Z</time>
      </trkpt>
      <trkpt lat="47.28639" lon="-1.8161">
        <ele>5.218322</ele>
        <time>2026-09-03T14:02:20.519Z</time>
      </trkpt>
      <trkpt lat="47.28684" lon="-1.81753">
        <ele>4.604613</ele>
        <time>2026-09-03T14:02:36.232Z</time>
      </trkpt>
      <trkpt lat="47.28668" lon="-1.81774">
        <ele>4.491643</ele>
        <time>2026-09-03T14:02:39.281Z</time>
      </trkpt>
      <trkpt lat="47.28633" lon="-1.81827">
        <ele>4.223744</ele>
        <time>2026-09-03T14:02:46.444Z</time>
      </trkpt>
      <trkpt lat="47.28553" lon="-1.81934">
        <ele>4.207719</ele>
        <time>2026-09-03T14:03:03.102Z</time>
      </trkpt>
      <trkpt lat="47.28561" lon="-1.81943">
        <ele>4.253414</ele>
        <time>2026-09-03T14:03:04.901Z</time>
      </trkpt>
      <trkpt lat="47.28645" lon="-1.81961">
        <ele>4.63931</ele>
        <time>2026-09-03T14:03:20.917Z</time>
      </trkpt>
      <trkpt lat="47.28687" lon="-1.81973">
        <ele>4.817051</ele>
        <time>2026-09-03T14:03:29.243Z</time>
      </trkpt>
      <trkpt lat="47.28693" lon="-1.81978">
        <ele>4.838989</ele>
        <time>2026-09-03T14:03:30.483Z</time>
      </trkpt>
      <trkpt lat="47.28695" lon="-1.81989">
        <ele>4.86501</ele>
        <time>2026-09-03T14:03:31.940Z</time>
      </trkpt>
      <trkpt lat="47.28709" lon="-1.82179">
        <ele>5.295902</ele>
        <time>2026-09-03T14:03:53.251Z</time>
      </trkpt>
      <trkpt lat="47.28739" lon="-1.82349">
        <ele>5.710353</ele>
        <time>2026-09-03T14:04:13.110Z</time>
      </trkpt>
      <trkpt lat="47.28776" lon="-1.82306">
        <ele>5.877546</ele>
        <time>2026-09-03T14:04:20.549Z</time>
      </trkpt>
      <trkpt lat="47.28801" lon="-1.82298">
        <ele>5.968132</ele>
        <time>2026-09-03T14:04:24.665Z</time>
      </trkpt>
      <trkpt lat="47.28835" lon="-1.82473">
        <ele>6.150815</ele>
        <time>2026-09-03T14:04:59.750Z</time>
      </trkpt>
      <trkpt lat="47.2884" lon="-1.82514">
        <ele>6.187821</ele>
        <time>2026-09-03T14:05:07.321Z</time>
      </trkpt>
      <trkpt lat="47.28859" lon="-1.8257">
        <ele>6.209014</ele>
        <time>2026-09-03T14:05:18.410Z</time>
      </trkpt>
      <trkpt lat="47.2888" lon="-1.82656">
        <ele>5.791937</ele>
        <time>2026-09-03T14:05:34.168Z</time>
      </trkpt>
      <trkpt lat="47.28893" lon="-1.82696">
        <ele>5.588814</ele>
        <time>2026-09-03T14:05:41.749Z</time>
      </trkpt>
      <trkpt lat="47.2891" lon="-1.82725">
        <ele>5.410291</ele>
        <time>2026-09-03T14:05:48.381Z</time>
      </trkpt>
      <trkpt lat="47.28958" lon="-1.82787">
        <ele>5.011513</ele>
        <time>2026-09-03T14:06:04.498Z</time>
      </trkpt>
      <trkpt lat="47.28982" lon="-1.82839">
        <ele>4.918208</ele>
        <time>2026-09-03T14:06:15.687Z</time>
      </trkpt>
      <trkpt lat="47.28999" lon="-1.82836">
        <ele>4.881161</ele>
        <time>2026-09-03T14:06:18.284Z</time>
      </trkpt>
      <trkpt lat="47.29014" lon="-1.82848">
        <ele>4.844248</ele>
        <time>2026-09-03T14:06:20.900Z</time>
      </trkpt>
      <trkpt lat="47.29029" lon="-1.82883">
        <ele>4.782656</ele>
        <time>2026-09-03T14:06:25.281Z</time>
      </trkpt>
      <trkpt lat="47.29049" lon="-1.82871">
        <ele>4.735838</ele>
        <time>2026-09-03T14:06:28.683Z</time>
      </trkpt>
      <trkpt lat="47.29066" lon="-1.82856">
        <ele>4.693166</ele>
        <time>2026-09-03T14:06:31.796Z</time>
      </trkpt>
      <trkpt lat="47.29117" lon="-1.82787">
        <ele>4.823941</ele>
        <time>2026-09-03T14:06:43.091Z</time>
      </trkpt>
      <trkpt lat="47.29154" lon="-1.82757">
        <ele>5.015718</ele>
        <time>2026-09-03T14:06:50.380Z</time>
      </trkpt>
      <trkpt lat="47.29209" lon="-1.82729">
        <ele>5.274002</ele>
        <time>2026-09-03T14:07:00.676Z</time>
      </trkpt>
      <trkpt lat="47.29225" lon="-1.82725">
        <ele>5.342703</ele>
        <time>2026-09-03T14:07:03.575Z</time>
      </trkpt>
      <trkpt lat="47.2925" lon="-1.82727">
        <ele>5.461258</ele>
        <time>2026-09-03T14:07:08.429Z</time>
      </trkpt>
      <trkpt lat="47.29281" lon="-1.82747">
        <ele>5.657316</ele>
        <time>2026-09-03T14:07:14.937Z</time>
      </trkpt>
      <trkpt lat="47.29353" lon="-1.82782">
        <ele>6.100331</ele>
        <time>2026-09-03T14:07:29.053Z</time>
      </trkpt>
      <trkpt lat="47.29366" lon="-1.82768">
        <ele>6.188929</ele>
        <time>2026-09-03T14:07:31.406Z</time>
      </trkpt>
      <trkpt lat="47.29435" lon="-1.82724">
        <ele>6.688529</ele>
        <time>2026-09-03T14:07:42.367Z</time>
      </trkpt>
      <trkpt lat="47.29549" lon="-1.82629">
        <ele>7.752765</ele>
        <time>2026-09-03T14:08:02.376Z</time>
      </trkpt>
      <trkpt lat="47.29579" lon="-1.8261">
        <ele>8.269154</ele>
        <time>2026-09-03T14:08:09.053Z</time>
      </trkpt>
      <trkpt lat="47.2961" lon="-1.82603">
        <ele>9.446752</ele>
        <time>2026-09-03T14:08:16.336Z</time>
      </trkpt>
      <trkpt lat="47.29645" lon="-1.82589">
        <ele>10.8123</ele>
        <time>2026-09-03T14:08:25.693Z</time>
      </trkpt>
      <trkpt lat="47.29761" lon="-1.8253">
        <ele>15.712949</ele>
        <time>2026-09-03T14:09:02.667Z</time>
      </trkpt>
      <trkpt lat="47.29912" lon="-1.82446">
        <ele>24.375802</ele>
        <time>2026-09-03T14:09:57.630Z</time>
      </trkpt>
      <trkpt lat="47.29957" lon="-1.82412">
        <ele>25.889478</ele>
        <time>2026-09-03T14:10:14.235Z</time>
      </trkpt>
      <trkpt lat="47.29981" lon="-1.82395">
        <ele>26.704407</ele>
        <time>2026-09-03T14:10:22.030Z</time>
      </trkpt>
      <trkpt lat="47.30018" lon="-1.82369">
        <ele>27.934616</ele>
        <time>2026-09-03T14:10:32.085Z</time>
      </trkpt>
      <trkpt lat="47.30023" lon="-1.82414">
        <ele>28.859948</ele>
        <time>2026-09-03T14:10:38.753Z</time>
      </trkpt>
      <trkpt lat="47.30034" lon="-1.82462">
        <ele>29.763717</ele>
        <time>2026-09-03T14:10:44.674Z</time>
      </trkpt>
      <trkpt lat="47.30073" lon="-1.82573">
        <ele>29.551825</ele>
        <time>2026-09-03T14:10:56.608Z</time>
      </trkpt>
      <trkpt lat="47.30103" lon="-1.82639">
        <ele>29.417357</ele>
        <time>2026-09-03T14:11:09.637Z</time>
      </trkpt>
      <trkpt lat="47.30165" lon="-1.82796">
        <ele>29.512131</ele>
        <time>2026-09-03T14:11:42.719Z</time>
      </trkpt>
      <trkpt lat="47.30187" lon="-1.8284">
        <ele>29.592676</ele>
        <time>2026-09-03T14:11:52.747Z</time>
      </trkpt>
      <trkpt lat="47.30222" lon="-1.82898">
        <ele>29.706844</ele>
        <time>2026-09-03T14:12:06.460Z</time>
      </trkpt>
      <trkpt lat="47.30249" lon="-1.82963">
        <ele>29.459123</ele>
        <time>2026-09-03T14:12:19.429Z</time>
      </trkpt>
      <trkpt lat="47.30254" lon="-1.82974">
        <ele>29.410377</ele>
        <time>2026-09-03T14:12:21.673Z</time>
      </trkpt>
      <trkpt lat="47.30261" lon="-1.8297">
        <ele>29.369961</ele>
        <time>2026-09-03T14:12:22.880Z</time>
      </trkpt>
      <trkpt lat="47.30277" lon="-1.83014">
        <ele>29.1893</ele>
        <time>2026-09-03T14:12:31.132Z</time>
      </trkpt>
      <trkpt lat="47.30301" lon="-1.8311">
        <ele>28.816538</ele>
        <time>2026-09-03T14:12:47.757Z</time>
      </trkpt>
      <trkpt lat="47.30327" lon="-1.83189">
        <ele>27.910715</ele>
        <time>2026-09-03T14:13:01.316Z</time>
      </trkpt>
      <trkpt lat="47.30339" lon="-1.83203">
        <ele>27.646614</ele>
        <time>2026-09-03T14:13:04.633Z</time>
      </trkpt>
      <trkpt lat="47.30374" lon="-1.83273">
        <ele>26.603918</ele>
        <time>2026-09-03T14:13:17.316Z</time>
      </trkpt>
      <trkpt lat="47.30385" lon="-1.83279">
        <ele>26.405495</ele>
        <time>2026-09-03T14:13:19.735Z</time>
      </trkpt>
      <trkpt lat="47.30407" lon="-1.83273">
        <ele>26.011046</ele>
        <time>2026-09-03T14:13:24.563Z</time>
      </trkpt>
      <trkpt lat="47.30422" lon="-1.83261">
        <ele>25.700219</ele>
        <time>2026-09-03T14:13:28.390Z</time>
      </trkpt>
      <trkpt lat="47.30431" lon="-1.83275">
        <ele>25.609796</ele>
        <time>2026-09-03T14:13:31.339Z</time>
      </trkpt>
      <trkpt lat="47.3044" lon="-1.83325">
        <ele>25.800829</ele>
        <time>2026-09-03T14:13:39.611Z</time>
      </trkpt>
      <trkpt lat="47.3043" lon="-1.83394">
        <ele>26.062662</ele>
        <time>2026-09-03T14:13:52.194Z</time>
      </trkpt>
      <trkpt lat="47.30431" lon="-1.83407">
        <ele>26.108162</ele>
        <time>2026-09-03T14:13:54.536Z</time>
      </trkpt>
      <trkpt lat="47.30435" lon="-1.83418">
        <ele>26.15696</ele>
        <time>2026-09-03T14:13:57.131Z</time>
      </trkpt>
      <trkpt lat="47.30463" lon="-1.83469">
        <ele>26.39814</ele>
        <time>2026-09-03T14:14:10.923Z</time>
      </trkpt>
      <trkpt lat="47.30532" lon="-1.83589">
        <ele>27.51329</ele>
        <time>2026-09-03T14:14:46.909Z</time>
      </trkpt>
      <trkpt lat="47.3057" lon="-1.83629">
        <ele>28.083283</ele>
        <time>2026-09-03T14:14:56.097Z</time>
      </trkpt>
      <trkpt lat="47.3061" lon="-1.83666">
        <ele>28.671911</ele>
        <time>2026-09-03T14:15:04.629Z</time>
      </trkpt>
      <trkpt lat="47.30679" lon="-1.83738">
        <ele>28.065728</ele>
        <time>2026-09-03T14:15:25.181Z</time>
      </trkpt>
      <trkpt lat="47.30725" lon="-1.83801">
        <ele>27.489255</ele>
        <time>2026-09-03T14:15:39.470Z</time>
      </trkpt>
      <trkpt lat="47.30736" lon="-1.83827">
        <ele>27.299854</ele>
        <time>2026-09-03T14:15:42.219Z</time>
      </trkpt>
      <trkpt lat="47.30742" lon="-1.83846">
        <ele>27.165012</ele>
        <time>2026-09-03T14:15:44.175Z</time>
      </trkpt>
      <trkpt lat="47.30769" lon="-1.83942">
        <ele>26.151251</ele>
        <time>2026-09-03T14:15:53.506Z</time>
      </trkpt>
      <trkpt lat="47.30791" lon="-1.83991">
        <ele>25.561092</ele>
        <time>2026-09-03T14:15:58.749Z</time>
      </trkpt>
      <trkpt lat="47.30905" lon="-1.8415">
        <ele>24.320281</ele>
        <time>2026-09-03T14:16:34.718Z</time>
      </trkpt>
      <trkpt lat="47.30914" lon="-1.84173">
        <ele>24.292796</ele>
        <time>2026-09-03T14:16:39.324Z</time>
      </trkpt>
      <trkpt lat="47.30916" lon="-1.84189">
        <ele>24.276016</ele>
        <time>2026-09-03T14:16:42.215Z</time>
      </trkpt>
      <trkpt lat="47.30928" lon="-1.84213">
        <ele>24.245908</ele>
        <time>2026-09-03T14:16:47.551Z</time>
      </trkpt>
      <trkpt lat="47.30934" lon="-1.84224">
        <ele>24.231094</ele>
        <time>2026-09-03T14:16:50.268Z</time>
      </trkpt>
      <trkpt lat="47.30948" lon="-1.84233">
        <ele>24.208361</ele>
        <time>2026-09-03T14:16:54.540Z</time>
      </trkpt>
      <trkpt lat="47.31028" lon="-1.84368">
        <ele>25.898513</ele>
        <time>2026-09-03T14:17:31.990Z</time>
      </trkpt>
      <trkpt lat="47.31068" lon="-1.84422">
        <ele>26.877783</ele>
        <time>2026-09-03T14:17:48.328Z</time>
      </trkpt>
      <trkpt lat="47.31088" lon="-1.84478">
        <ele>28.295103</ele>
        <time>2026-09-03T14:18:03.008Z</time>
      </trkpt>
      <trkpt lat="47.31088" lon="-1.84522">
        <ele>30.235621</ele>
        <time>2026-09-03T14:18:12.082Z</time>
      </trkpt>
      <trkpt lat="47.31096" lon="-1.84521">
        <ele>30.760408</ele>
        <time>2026-09-03T14:18:15.621Z</time>
      </trkpt>
      <trkpt lat="47.31119" lon="-1.8448">
        <ele>33.083882</ele>
        <time>2026-09-03T14:18:32.197Z</time>
      </trkpt>
      <trkpt lat="47.31136" lon="-1.84458">
        <ele>34.545187</ele>
        <time>2026-09-03T14:18:43.721Z</time>
      </trkpt>
      <trkpt lat="47.31162" lon="-1.84435">
        <ele>36.509439</ele>
        <time>2026-09-03T14:19:00.257Z</time>
      </trkpt>
      <trkpt lat="47.31182" lon="-1.84424">
        <ele>37.918818</ele>
        <time>2026-09-03T14:19:13.307Z</time>
      </trkpt>
      <trkpt lat="47.31197" lon="-1.84413">
        <ele>39.014654</ele>
        <time>2026-09-03T14:19:23.791Z</time>
      </trkpt>
      <trkpt lat="47.31268" lon="-1.84362">
        <ele>45.18948</ele>
        <time>2026-09-03T14:20:12.914Z</time>
      </trkpt>
      <trkpt lat="47.31285" lon="-1.84328">
        <ele>47.488721</ele>
        <time>2026-09-03T14:20:29.491Z</time>
      </trkpt>
      <trkpt lat="47.31302" lon="-1.84293">
        <ele>49.78363</ele>
        <time>2026-09-03T14:20:44.788Z</time>
      </trkpt>
      <trkpt lat="47.31322" lon="-1.84273">
        <ele>51.639655</ele>
        <time>2026-09-03T14:20:56.080Z</time>
      </trkpt>
      <trkpt lat="47.31398" lon="-1.84238">
        <ele>54.359965</ele>
        <time>2026-09-03T14:21:26.856Z</time>
      </trkpt>
      <trkpt lat="47.31474" lon="-1.84198">
        <ele>55.923253</ele>
        <time>2026-09-03T14:21:49.565Z</time>
      </trkpt>
      <trkpt lat="47.3152" lon="-1.84154">
        <ele>56.9059</ele>
        <time>2026-09-03T14:22:04.698Z</time>
      </trkpt>
      <trkpt lat="47.31537" lon="-1.8413">
        <ele>57.228746</ele>
        <time>2026-09-03T14:22:11.098Z</time>
      </trkpt>
      <trkpt lat="47.3156" lon="-1.84085">
        <ele>57.746978</ele>
        <time>2026-09-03T14:22:21.261Z</time>
      </trkpt>
      <trkpt lat="47.31563" lon="-1.84072">
        <ele>57.866627</ele>
        <time>2026-09-03T14:22:23.745Z</time>
      </trkpt>
      <trkpt lat="47.3156" lon="-1.84057">
        <ele>58.018119</ele>
        <time>2026-09-03T14:22:26.943Z</time>
      </trkpt>
      <trkpt lat="47.31551" lon="-1.84037">
        <ele>58.234914</ele>
        <time>2026-09-03T14:22:30.200Z</time>
      </trkpt>
      <trkpt lat="47.31525" lon="-1.83942">
        <ele>59.229949</ele>
        <time>2026-09-03T14:22:46.763Z</time>
      </trkpt>
      <trkpt lat="47.3153" lon="-1.8394">
        <ele>59.387286</ele>
        <time>2026-09-03T14:22:48.153Z</time>
      </trkpt>
      <trkpt lat="47.31585" lon="-1.83919">
        <ele>61.094994</ele>
        <time>2026-09-03T14:23:03.784Z</time>
      </trkpt>
      <trkpt lat="47.31622" lon="-1.83905">
        <ele>62.237684</ele>
        <time>2026-09-03T14:23:15.248Z</time>
      </trkpt>
      <trkpt lat="47.31644" lon="-1.83893">
        <ele>62.963543</ele>
        <time>2026-09-03T14:23:22.643Z</time>
      </trkpt>
      <trkpt lat="47.31657" lon="-1.83883">
        <ele>63.396293</ele>
        <time>2026-09-03T14:23:26.865Z</time>
      </trkpt>
      <trkpt lat="47.3168" lon="-1.83853">
        <ele>64.298829</ele>
        <time>2026-09-03T14:23:35.099Z</time>
      </trkpt>
      <trkpt lat="47.31821" lon="-1.83639">
        <ele>66.214639</ele>
        <time>2026-09-03T14:24:12.953Z</time>
      </trkpt>
      <trkpt lat="47.31869" lon="-1.83578">
        <ele>66.274821</ele>
        <time>2026-09-03T14:24:22.301Z</time>
      </trkpt>
      <trkpt lat="47.31884" lon="-1.83548">
        <ele>66.299048</ele>
        <time>2026-09-03T14:24:26.156Z</time>
      </trkpt>
      <trkpt lat="47.31905" lon="-1.835">
        <ele>66.33537</ele>
        <time>2026-09-03T14:24:32.070Z</time>
      </trkpt>
      <trkpt lat="47.31913" lon="-1.83489">
        <ele>66.345785</ele>
        <time>2026-09-03T14:24:33.846Z</time>
      </trkpt>
      <trkpt lat="47.31924" lon="-1.83474">
        <ele>66.360503</ele>
        <time>2026-09-03T14:24:36.453Z</time>
      </trkpt>
      <trkpt lat="47.31991" lon="-1.83403">
        <ele>67.472606</ele>
        <time>2026-09-03T14:24:52.369Z</time>
      </trkpt>
      <trkpt lat="47.32137" lon="-1.8322">
        <ele>70.137933</ele>
        <time>2026-09-03T14:25:37.446Z</time>
      </trkpt>
      <trkpt lat="47.32197" lon="-1.8313">
        <ele>71.13591</ele>
        <time>2026-09-03T14:25:54.698Z</time>
      </trkpt>
      <trkpt lat="47.3223" lon="-1.83083">
        <ele>70.324938</ele>
        <time>2026-09-03T14:26:01.103Z</time>
      </trkpt>
      <trkpt lat="47.32251" lon="-1.83064">
        <ele>69.639156</ele>
        <time>2026-09-03T14:26:04.234Z</time>
      </trkpt>
      <trkpt lat="47.32294" lon="-1.83046">
        <ele>68.407625</ele>
        <time>2026-09-03T14:26:09.498Z</time>
      </trkpt>
      <trkpt lat="47.3239" lon="-1.83018">
        <ele>65.593324</ele>
        <time>2026-09-03T14:26:20.717Z</time>
      </trkpt>
      <trkpt lat="47.32399" lon="-1.83016">
        <ele>65.292321</ele>
        <time>2026-09-03T14:26:21.788Z</time>
      </trkpt>
      <trkpt lat="47.32398" lon="-1.83069">
        <ele>64.109867</ele>
        <time>2026-09-03T14:26:29.182Z</time>
      </trkpt>
      <trkpt lat="47.32391" lon="-1.83126">
        <ele>62.826204</ele>
        <time>2026-09-03T14:26:37.371Z</time>
      </trkpt>
      <trkpt lat="47.32346" lon="-1.83235">
        <ele>59.993014</ele>
        <time>2026-09-03T14:26:55.584Z</time>
      </trkpt>
      <trkpt lat="47.3229" lon="-1.83349">
        <ele>56.874852</ele>
        <time>2026-09-03T14:27:15.232Z</time>
      </trkpt>
      <trkpt lat="47.32286" lon="-1.8338">
        <ele>56.193146</ele>
        <time>2026-09-03T14:27:19.527Z</time>
      </trkpt>
      <trkpt lat="47.32273" lon="-1.83395">
        <ele>55.654768</ele>
        <time>2026-09-03T14:27:22.941Z</time>
      </trkpt>
      <trkpt lat="47.32262" lon="-1.83412">
        <ele>55.123782</ele>
        <time>2026-09-03T14:27:26.267Z</time>
      </trkpt>
      <trkpt lat="47.32247" lon="-1.8354">
        <ele>52.154977</ele>
        <time>2026-09-03T14:27:44.047Z</time>
      </trkpt>
      <trkpt lat="47.32233" lon="-1.83582">
        <ele>51.059052</ele>
        <time>2026-09-03T14:27:50.521Z</time>
      </trkpt>
      <trkpt lat="47.32219" lon="-1.83601">
        <ele>50.384838</ele>
        <time>2026-09-03T14:27:54.504Z</time>
      </trkpt>
      <trkpt lat="47.322" lon="-1.83614">
        <ele>49.694101</ele>
        <time>2026-09-03T14:27:58.598Z</time>
      </trkpt>
      <trkpt lat="47.32179" lon="-1.83625">
        <ele>48.93117</ele>
        <time>2026-09-03T14:28:03.176Z</time>
      </trkpt>
      <trkpt lat="47.32149" lon="-1.83631">
        <ele>48.14783</ele>
        <time>2026-09-03T14:28:09.431Z</time>
      </trkpt>
      <trkpt lat="47.32131" lon="-1.83642">
        <ele>47.83762</ele>
        <time>2026-09-03T14:28:13.505Z</time>
      </trkpt>
      <trkpt lat="47.32091" lon="-1.8371">
        <ele>46.860408</ele>
        <time>2026-09-03T14:28:26.747Z</time>
      </trkpt>
      <trkpt lat="47.31983" lon="-1.83836">
        <ele>47.436377</ele>
        <time>2026-09-03T14:29:00.287Z</time>
      </trkpt>
      <trkpt lat="47.31966" lon="-1.83866">
        <ele>48.387143</ele>
        <time>2026-09-03T14:29:09.655Z</time>
      </trkpt>
      <trkpt lat="47.31965" lon="-1.83878">
        <ele>48.683872</ele>
        <time>2026-09-03T14:29:12.782Z</time>
      </trkpt>
      <trkpt lat="47.31973" lon="-1.83895">
        <ele>49.192186</ele>
        <time>2026-09-03T14:29:18.453Z</time>
      </trkpt>
      <trkpt lat="47.31983" lon="-1.83906">
        <ele>49.620168</ele>
        <time>2026-09-03T14:29:23.563Z</time>
      </trkpt>
      <trkpt lat="47.31987" lon="-1.83907">
        <ele>49.786519</ele>
        <time>2026-09-03T14:29:25.554Z</time>
      </trkpt>
      <trkpt lat="47.31995" lon="-1.8391">
        <ele>50.096868</ele>
        <time>2026-09-03T14:29:29.448Z</time>
      </trkpt>
      <trkpt lat="47.32005" lon="-1.83918">
        <ele>50.508026</ele>
        <time>2026-09-03T14:29:34.766Z</time>
      </trkpt>
      <trkpt lat="47.32026" lon="-1.8395">
        <ele>51.602043</ele>
        <time>2026-09-03T14:29:49.831Z</time>
      </trkpt>
      <trkpt lat="47.32028" lon="-1.83963">
        <ele>51.921449</ele>
        <time>2026-09-03T14:29:54.466Z</time>
      </trkpt>
      <trkpt lat="47.32025" lon="-1.83989">
        <ele>52.888236</ele>
        <time>2026-09-03T14:30:04.384Z</time>
      </trkpt>
      <trkpt lat="47.31999" lon="-1.84011">
        <ele>54.590066</ele>
        <time>2026-09-03T14:30:21.185Z</time>
      </trkpt>
      <trkpt lat="47.32001" lon="-1.84035">
        <ele>55.524461</ele>
        <time>2026-09-03T14:30:30.005Z</time>
      </trkpt>
      <trkpt lat="47.3201" lon="-1.84062">
        <ele>56.682413</ele>
        <time>2026-09-03T14:30:40.375Z</time>
      </trkpt>
      <trkpt lat="47.32014" lon="-1.8409">
        <ele>57.787168</ele>
        <time>2026-09-03T14:30:49.846Z</time>
      </trkpt>
      <trkpt lat="47.32028" lon="-1.84155">
        <ele>60.473481</ele>
        <time>2026-09-03T14:31:10.979Z</time>
      </trkpt>
      <trkpt lat="47.32105" lon="-1.8432">
        <ele>63.609099</ele>
        <time>2026-09-03T14:31:55.088Z</time>
      </trkpt>
      <trkpt lat="47.32123" lon="-1.84306">
        <ele>63.859221</ele>
        <time>2026-09-03T14:31:58.244Z</time>
      </trkpt>
      <trkpt lat="47.32154" lon="-1.84269">
        <ele>64.358224</ele>
        <time>2026-09-03T14:32:04.353Z</time>
      </trkpt>
      <trkpt lat="47.32218" lon="-1.84177">
        <ele>65.333986</ele>
        <time>2026-09-03T14:32:18.304Z</time>
      </trkpt>
      <trkpt lat="47.3227" lon="-1.84126">
        <ele>66.005804</ele>
        <time>2026-09-03T14:32:31.425Z</time>
      </trkpt>
      <trkpt lat="47.32305" lon="-1.841">
        <ele>66.422266</ele>
        <time>2026-09-03T14:32:40.871Z</time>
      </trkpt>
      <trkpt lat="47.32334" lon="-1.84092">
        <ele>67.008992</ele>
        <time>2026-09-03T14:32:48.353Z</time>
      </trkpt>
      <trkpt lat="47.32351" lon="-1.84092">
        <ele>67.397842</ele>
        <time>2026-09-03T14:32:52.874Z</time>
      </trkpt>
      <trkpt lat="47.32532" lon="-1.84105">
        <ele>70.266151</ele>
        <time>2026-09-03T14:33:36.789Z</time>
      </trkpt>
      <trkpt lat="47.32595" lon="-1.84117">
        <ele>69.83996</ele>
        <time>2026-09-03T14:33:46.207Z</time>
      </trkpt>
      <trkpt lat="47.32583" lon="-1.84143">
        <ele>69.699151</ele>
        <time>2026-09-03T14:33:50.858Z</time>
      </trkpt>
      <trkpt lat="47.32583" lon="-1.84151">
        <ele>69.66329</ele>
        <time>2026-09-03T14:33:52.042Z</time>
      </trkpt>
      <trkpt lat="47.32597" lon="-1.84208">
        <ele>69.387257</ele>
        <time>2026-09-03T14:34:00.751Z</time>
      </trkpt>
      <trkpt lat="47.32596" lon="-1.84225">
        <ele>69.155672</ele>
        <time>2026-09-03T14:34:03.109Z</time>
      </trkpt>
      <trkpt lat="47.32594" lon="-1.84234">
        <ele>68.920326</ele>
        <time>2026-09-03T14:34:04.391Z</time>
      </trkpt>
      <trkpt lat="47.32585" lon="-1.84249">
        <ele>68.41185</ele>
        <time>2026-09-03T14:34:07.144Z</time>
      </trkpt>
      <trkpt lat="47.32561" lon="-1.84264">
        <ele>67.435348</ele>
        <time>2026-09-03T14:34:12.380Z</time>
      </trkpt>
      <trkpt lat="47.32558" lon="-1.84269">
        <ele>67.251638</ele>
        <time>2026-09-03T14:34:13.372Z</time>
      </trkpt>
      <trkpt lat="47.32534" lon="-1.8436">
        <ele>64.76167</ele>
        <time>2026-09-03T14:34:26.841Z</time>
      </trkpt>
      <trkpt lat="47.32512" lon="-1.84382">
        <ele>63.784319</ele>
        <time>2026-09-03T14:34:32.095Z</time>
      </trkpt>
      <trkpt lat="47.32525" lon="-1.84447">
        <ele>61.788754</ele>
        <time>2026-09-03T14:34:41.033Z</time>
      </trkpt>
      <trkpt lat="47.32545" lon="-1.84524">
        <ele>58.598454</ele>
        <time>2026-09-03T14:34:51.521Z</time>
      </trkpt>
      <trkpt lat="47.32555" lon="-1.84561">
        <ele>57.065709</ele>
        <time>2026-09-03T14:34:56.449Z</time>
      </trkpt>
      <trkpt lat="47.32559" lon="-1.8457">
        <ele>56.626242</ele>
        <time>2026-09-03T14:34:57.850Z</time>
      </trkpt>
      <trkpt lat="47.32566" lon="-1.84587">
        <ele>55.865402</ele>
        <time>2026-09-03T14:35:00.262Z</time>
      </trkpt>
      <trkpt lat="47.32565" lon="-1.84673">
        <ele>52.516907</ele>
        <time>2026-09-03T14:35:10.953Z</time>
      </trkpt>
      <trkpt lat="47.3256" lon="-1.84704">
        <ele>52.40819</ele>
        <time>2026-09-03T14:35:15.161Z</time>
      </trkpt>
      <trkpt lat="47.32546" lon="-1.84739">
        <ele>52.604348</ele>
        <time>2026-09-03T14:35:20.815Z</time>
      </trkpt>
      <trkpt lat="47.3253" lon="-1.8477">
        <ele>52.796914</ele>
        <time>2026-09-03T14:35:27.129Z</time>
      </trkpt>
      <trkpt lat="47.32541" lon="-1.84777">
        <ele>52.880571</ele>
        <time>2026-09-03T14:35:30.310Z</time>
      </trkpt>
      <trkpt lat="47.32553" lon="-1.84777">
        <ele>52.965048</ele>
        <time>2026-09-03T14:35:33.854Z</time>
      </trkpt>
      <trkpt lat="47.32587" lon="-1.84781">
        <ele>53.213826</ele>
        <time>2026-09-03T14:35:46.121Z</time>
      </trkpt>
      <trkpt lat="47.3262" lon="-1.84794">
        <ele>53.466387</ele>
        <time>2026-09-03T14:36:00.924Z</time>
      </trkpt>
      <trkpt lat="47.32656" lon="-1.84817">
        <ele>54.331233</ele>
        <time>2026-09-03T14:36:19.369Z</time>
      </trkpt>
      <trkpt lat="47.32681" lon="-1.84838">
        <ele>55.291449</ele>
        <time>2026-09-03T14:36:31.840Z</time>
      </trkpt>
      <trkpt lat="47.32697" lon="-1.84852">
        <ele>55.929274</ele>
        <time>2026-09-03T14:36:39.326Z</time>
      </trkpt>
      <trkpt lat="47.32717" lon="-1.84882">
        <ele>56.881963</ele>
        <time>2026-09-03T14:36:49.533Z</time>
      </trkpt>
      <trkpt lat="47.32733" lon="-1.84908">
        <ele>57.686864</ele>
        <time>2026-09-03T14:36:57.718Z</time>
      </trkpt>
      <trkpt lat="47.32751" lon="-1.84925">
        <ele>58.411115</ele>
        <time>2026-09-03T14:37:04.365Z</time>
      </trkpt>
      <trkpt lat="47.32783" lon="-1.84941">
        <ele>59.544755</ele>
        <time>2026-09-03T14:37:15.725Z</time>
      </trkpt>
      <trkpt lat="47.32789" lon="-1.84949">
        <ele>59.719446</ele>
        <time>2026-09-03T14:37:18.235Z</time>
      </trkpt>
      <trkpt lat="47.32791" lon="-1.84958">
        <ele>59.828665</ele>
        <time>2026-09-03T14:37:20.425Z</time>
      </trkpt>
      <trkpt lat="47.32794" lon="-1.8499">
        <ele>60.21154</ele>
        <time>2026-09-03T14:37:27.702Z</time>
      </trkpt>
      <trkpt lat="47.32808" lon="-1.85">
        <ele>60.474621</ele>
        <time>2026-09-03T14:37:32.779Z</time>
      </trkpt>
      <trkpt lat="47.32794" lon="-1.8499">
        <ele>60.737701</ele>
        <time>2026-09-03T14:37:37.913Z</time>
      </trkpt>
      <trkpt lat="47.32784" lon="-1.85023">
        <ele>61.151208</ele>
        <time>2026-09-03T14:37:46.359Z</time>
      </trkpt>
      <trkpt lat="47.32781" lon="-1.85027">
        <ele>61.227901</ele>
        <time>2026-09-03T14:37:47.878Z</time>
      </trkpt>
      <trkpt lat="47.32759" lon="-1.85016">
        <ele>61.625775</ele>
        <time>2026-09-03T14:37:56.012Z</time>
      </trkpt>
      <trkpt lat="47.32689" lon="-1.85057">
        <ele>62.405013</ele>
        <time>2026-09-03T14:38:19.253Z</time>
      </trkpt>
      <trkpt lat="47.32669" lon="-1.85061">
        <ele>61.817459</ele>
        <time>2026-09-03T14:38:24.040Z</time>
      </trkpt>
      <trkpt lat="47.32655" lon="-1.85003">
        <ele>60.622998</ele>
        <time>2026-09-03T14:38:32.897Z</time>
      </trkpt>
      <trkpt lat="47.32651" lon="-1.84996">
        <ele>60.458957</ele>
        <time>2026-09-03T14:38:34.052Z</time>
      </trkpt>
      <trkpt lat="47.32584" lon="-1.85009">
        <ele>58.54216</ele>
        <time>2026-09-03T14:38:47.238Z</time>
      </trkpt>
      <trkpt lat="47.32511" lon="-1.8503">
        <ele>57.115996</ele>
        <time>2026-09-03T14:39:01.762Z</time>
      </trkpt>
      <trkpt lat="47.32475" lon="-1.85032">
        <ele>56.697798</ele>
        <time>2026-09-03T14:39:09.376Z</time>
      </trkpt>
      <trkpt lat="47.32461" lon="-1.85038">
        <ele>56.526059</ele>
        <time>2026-09-03T14:39:12.693Z</time>
      </trkpt>
      <trkpt lat="47.32441" lon="-1.85063">
        <ele>56.220644</ele>
        <time>2026-09-03T14:39:18.972Z</time>
      </trkpt>
      <trkpt lat="47.32436" lon="-1.85075">
        <ele>56.107907</ele>
        <time>2026-09-03T14:39:21.438Z</time>
      </trkpt>
      <trkpt lat="47.32431" lon="-1.85086">
        <ele>56.003389</ele>
        <time>2026-09-03T14:39:23.833Z</time>
      </trkpt>
      <trkpt lat="47.32428" lon="-1.85115">
        <ele>55.776717</ele>
        <time>2026-09-03T14:39:29.472Z</time>
      </trkpt>
      <trkpt lat="47.32409" lon="-1.85291">
        <ele>58.702359</ele>
        <time>2026-09-03T14:40:14.602Z</time>
      </trkpt>
      <trkpt lat="47.32409" lon="-1.8531">
        <ele>59.112808</ele>
        <time>2026-09-03T14:40:19.675Z</time>
      </trkpt>
      <trkpt lat="47.32411" lon="-1.8533">
        <ele>59.573291</ele>
        <time>2026-09-03T14:40:25.346Z</time>
      </trkpt>
      <trkpt lat="47.32418" lon="-1.85359">
        <ele>60.259989</ele>
        <time>2026-09-03T14:40:33.822Z</time>
      </trkpt>
      <trkpt lat="47.32429" lon="-1.85389">
        <ele>61.002312</ele>
        <time>2026-09-03T14:40:42.967Z</time>
      </trkpt>
      <trkpt lat="47.32436" lon="-1.854">
        <ele>61.339591</ele>
        <time>2026-09-03T14:40:47.061Z</time>
      </trkpt>
      <trkpt lat="47.32438" lon="-1.85402">
        <ele>61.398188</ele>
        <time>2026-09-03T14:40:47.958Z</time>
      </trkpt>
      <trkpt lat="47.32514" lon="-1.85475">
        <ele>62.79649</ele>
        <time>2026-09-03T14:41:19.800Z</time>
      </trkpt>
      <trkpt lat="47.32535" lon="-1.85502">
        <ele>63.224599</ele>
        <time>2026-09-03T14:41:27.884Z</time>
      </trkpt>
      <trkpt lat="47.32614" lon="-1.8562">
        <ele>64.374699</ele>
        <time>2026-09-03T14:41:55.437Z</time>
      </trkpt>
      <trkpt lat="47.32628" lon="-1.85634">
        <ele>64.451403</ele>
        <time>2026-09-03T14:41:59.632Z</time>
      </trkpt>
      <trkpt lat="47.32644" lon="-1.85632">
        <ele>64.517827</ele>
        <time>2026-09-03T14:42:03.391Z</time>
      </trkpt>
      <trkpt lat="47.32685" lon="-1.85613">
        <ele>64.70462</ele>
        <time>2026-09-03T14:42:14.771Z</time>
      </trkpt>
      <trkpt lat="47.32698" lon="-1.85616">
        <ele>64.763937</ele>
        <time>2026-09-03T14:42:18.722Z</time>
      </trkpt>
      <trkpt lat="47.32706" lon="-1.85601">
        <ele>64.820691</ele>
        <time>2026-09-03T14:42:21.118Z</time>
      </trkpt>
      <trkpt lat="47.32715" lon="-1.85599">
        <ele>64.859777</ele>
        <time>2026-09-03T14:42:23.864Z</time>
      </trkpt>
      <trkpt lat="47.32754" lon="-1.8557">
        <ele>65.355042</ele>
        <time>2026-09-03T14:42:38.076Z</time>
      </trkpt>
      <trkpt lat="47.32786" lon="-1.85542">
        <ele>65.928541</ele>
        <time>2026-09-03T14:42:50.582Z</time>
      </trkpt>
      <trkpt lat="47.32865" lon="-1.85465">
        <ele>67.404427</ele>
        <time>2026-09-03T14:43:20.687Z</time>
      </trkpt>
      <trkpt lat="47.32872" lon="-1.85469">
        <ele>67.528738</ele>
        <time>2026-09-03T14:43:22.071Z</time>
      </trkpt>
      <trkpt lat="47.32878" lon="-1.85509">
        <ele>67.735419</ele>
        <time>2026-09-03T14:43:29.536Z</time>
      </trkpt>
      <trkpt lat="47.32871" lon="-1.85574">
        <ele>67.73408</ele>
        <time>2026-09-03T14:43:41.212Z</time>
      </trkpt>
      <trkpt lat="47.32871" lon="-1.85604">
        <ele>67.733487</ele>
        <time>2026-09-03T14:43:46.185Z</time>
      </trkpt>
      <trkpt lat="47.32876" lon="-1.85656">
        <ele>67.732424</ele>
        <time>2026-09-03T14:43:54.845Z</time>
      </trkpt>
      <trkpt lat="47.32891" lon="-1.85727">
        <ele>67.730929</ele>
        <time>2026-09-03T14:44:07.240Z</time>
      </trkpt>
      <trkpt lat="47.32923" lon="-1.85848">
        <ele>67.491692</ele>
        <time>2026-09-03T14:44:29.506Z</time>
      </trkpt>
      <trkpt lat="47.3293" lon="-1.85889">
        <ele>67.399892</ele>
        <time>2026-09-03T14:44:36.542Z</time>
      </trkpt>
      <trkpt lat="47.32929" lon="-1.85899">
        <ele>67.37783</ele>
        <time>2026-09-03T14:44:38.226Z</time>
      </trkpt>
      <trkpt lat="47.32925" lon="-1.85903">
        <ele>67.360668</ele>
        <time>2026-09-03T14:44:39.514Z</time>
      </trkpt>
      <trkpt lat="47.32905" lon="-1.85907">
        <ele>67.296089</ele>
        <time>2026-09-03T14:44:44.416Z</time>
      </trkpt>
      <trkpt lat="47.32941" lon="-1.86172">
        <ele>66.197702</ele>
        <time>2026-09-03T14:45:28.309Z</time>
      </trkpt>
      <trkpt lat="47.32941" lon="-1.86182">
        <ele>66.148165</ele>
        <time>2026-09-03T14:45:29.995Z</time>
      </trkpt>
      <trkpt lat="47.32935" lon="-1.86191">
        <ele>66.094966</ele>
        <time>2026-09-03T14:45:31.827Z</time>
      </trkpt>
      <trkpt lat="47.32871" lon="-1.86214">
        <ele>65.825335</ele>
        <time>2026-09-03T14:45:47.659Z</time>
      </trkpt>
      <trkpt lat="47.32865" lon="-1.86217">
        <ele>65.814204</ele>
        <time>2026-09-03T14:45:49.030Z</time>
      </trkpt>
      <trkpt lat="47.32863" lon="-1.86225">
        <ele>65.802634</ele>
        <time>2026-09-03T14:45:50.457Z</time>
      </trkpt>
      <trkpt lat="47.32885" lon="-1.86344">
        <ele>65.64023</ele>
        <time>2026-09-03T14:46:10.868Z</time>
      </trkpt>
      <trkpt lat="47.32929" lon="-1.86541">
        <ele>66.760795</ele>
        <time>2026-09-03T14:46:49.931Z</time>
      </trkpt>
      <trkpt lat="47.32984" lon="-1.86528">
        <ele>67.477181</ele>
        <time>2026-09-03T14:47:07.259Z</time>
      </trkpt>
      <trkpt lat="47.3303" lon="-1.86514">
        <ele>68.302001</ele>
        <time>2026-09-03T14:47:22.894Z</time>
      </trkpt>
      <trkpt lat="47.33038" lon="-1.86514">
        <ele>68.523483</ele>
        <time>2026-09-03T14:47:25.782Z</time>
      </trkpt>
      <trkpt lat="47.33071" lon="-1.86529">
        <ele>69.473902</ele>
        <time>2026-09-03T14:47:38.392Z</time>
      </trkpt>
      <trkpt lat="47.33089" lon="-1.86536">
        <ele>69.979007</ele>
        <time>2026-09-03T14:47:45.098Z</time>
      </trkpt>
      <trkpt lat="47.331" lon="-1.8654">
        <ele>70.285258</ele>
        <time>2026-09-03T14:47:48.683Z</time>
      </trkpt>
      <trkpt lat="47.33125" lon="-1.86542">
        <ele>70.991131</ele>
        <time>2026-09-03T14:47:56.828Z</time>
      </trkpt>
      <trkpt lat="47.33191" lon="-1.86521">
        <ele>72.812655</ele>
        <time>2026-09-03T14:48:17.784Z</time>
      </trkpt>
      <trkpt lat="47.33205" lon="-1.8651">
        <ele>73.201927</ele>
        <time>2026-09-03T14:48:22.083Z</time>
      </trkpt>
      <trkpt lat="47.33282" lon="-1.86427">
        <ele>75.427735</ele>
        <time>2026-09-03T14:48:45.572Z</time>
      </trkpt>
      <trkpt lat="47.33291" lon="-1.86406">
        <ele>75.823163</ele>
        <time>2026-09-03T14:48:49.511Z</time>
      </trkpt>
      <trkpt lat="47.33297" lon="-1.86388">
        <ele>76.139459</ele>
        <time>2026-09-03T14:48:52.622Z</time>
      </trkpt>
      <trkpt lat="47.33323" lon="-1.86299">
        <ele>77.349785</ele>
        <time>2026-09-03T14:49:07.826Z</time>
      </trkpt>
      <trkpt lat="47.33335" lon="-1.86259">
        <ele>77.697964</ele>
        <time>2026-09-03T14:49:14.492Z</time>
      </trkpt>
      <trkpt lat="47.33357" lon="-1.86285">
        <ele>78.027385</ele>
        <time>2026-09-03T14:49:20.577Z</time>
      </trkpt>
      <trkpt lat="47.3337" lon="-1.86295">
        <ele>78.193389</ele>
        <time>2026-09-03T14:49:23.484Z</time>
      </trkpt>
      <trkpt lat="47.33386" lon="-1.86302">
        <ele>78.39683</ele>
        <time>2026-09-03T14:49:26.883Z</time>
      </trkpt>
      <trkpt lat="47.33396" lon="-1.86307">
        <ele>78.516286</ele>
        <time>2026-09-03T14:49:28.772Z</time>
      </trkpt>
      <trkpt lat="47.33444" lon="-1.86318">
        <ele>79.098839</ele>
        <time>2026-09-03T14:49:37.346Z</time>
      </trkpt>
      <trkpt lat="47.33501" lon="-1.86332">
        <ele>78.829237</ele>
        <time>2026-09-03T14:49:46.422Z</time>
      </trkpt>
      <trkpt lat="47.33522" lon="-1.86342">
        <ele>78.710322</ele>
        <time>2026-09-03T14:49:49.577Z</time>
      </trkpt>
      <trkpt lat="47.33531" lon="-1.86337">
        <ele>78.654622</ele>
        <time>2026-09-03T14:49:52.006Z</time>
      </trkpt>
      <trkpt lat="47.33842" lon="-1.86407">
        <ele>76.768748</ele>
        <time>2026-09-03T14:51:05.903Z</time>
      </trkpt>
      <trkpt lat="47.33872" lon="-1.8643">
        <ele>76.95777</ele>
        <time>2026-09-03T14:51:14.607Z</time>
      </trkpt>
      <trkpt lat="47.33886" lon="-1.86428">
        <ele>77.037881</ele>
        <time>2026-09-03T14:51:18.528Z</time>
      </trkpt>
      <trkpt lat="47.33908" lon="-1.86431">
        <ele>77.156518</ele>
        <time>2026-09-03T14:51:24.582Z</time>
      </trkpt>
      <trkpt lat="47.33966" lon="-1.8645">
        <ele>77.487831</ele>
        <time>2026-09-03T14:51:43.075Z</time>
      </trkpt>
      <trkpt lat="47.34084" lon="-1.86473">
        <ele>78.99491</ele>
        <time>2026-09-03T14:52:21.269Z</time>
      </trkpt>
      <trkpt lat="47.34079" lon="-1.86672">
        <ele>79.913656</ele>
        <time>2026-09-03T14:52:58.716Z</time>
      </trkpt>
      <trkpt lat="47.34079" lon="-1.86712">
        <ele>79.905994</ele>
        <time>2026-09-03T14:53:02.672Z</time>
      </trkpt>
      <trkpt lat="47.34076" lon="-1.86869">
        <ele>79.92973</ele>
        <time>2026-09-03T14:53:18.508Z</time>
      </trkpt>
      <trkpt lat="47.34078" lon="-1.86875">
        <ele>79.941455</ele>
        <time>2026-09-03T14:53:19.166Z</time>
      </trkpt>
      <trkpt lat="47.34158" lon="-1.86825">
        <ele>80.180055</ele>
        <time>2026-09-03T14:53:31.807Z</time>
      </trkpt>
      <trkpt lat="47.34204" lon="-1.86798">
        <ele>80.314497</ele>
        <time>2026-09-03T14:53:39.943Z</time>
      </trkpt>
      <trkpt lat="47.34222" lon="-1.86789">
        <ele>80.364953</ele>
        <time>2026-09-03T14:53:43.010Z</time>
      </trkpt>
      <trkpt lat="47.34295" lon="-1.86932">
        <ele>80.688339</ele>
        <time>2026-09-03T14:54:03.706Z</time>
      </trkpt>
      <trkpt lat="47.34297" lon="-1.86949">
        <ele>80.719978</ele>
        <time>2026-09-03T14:54:05.663Z</time>
      </trkpt>
      <trkpt lat="47.34293" lon="-1.86962">
        <ele>80.744992</ele>
        <time>2026-09-03T14:54:07.194Z</time>
      </trkpt>
      <trkpt lat="47.34178" lon="-1.87153">
        <ele>80.011217</ele>
        <time>2026-09-03T14:54:32.264Z</time>
      </trkpt>
      <trkpt lat="47.34162" lon="-1.8722">
        <ele>79.70132</ele>
        <time>2026-09-03T14:54:38.614Z</time>
      </trkpt>
      <trkpt lat="47.34139" lon="-1.87238">
        <ele>79.375119</ele>
        <time>2026-09-03T14:54:42.081Z</time>
      </trkpt>
      <trkpt lat="47.34083" lon="-1.87284">
        <ele>78.577423</ele>
        <time>2026-09-03T14:54:50.411Z</time>
      </trkpt>
      <trkpt lat="47.3405" lon="-1.87315">
        <ele>78.097056</ele>
        <time>2026-09-03T14:54:55.405Z</time>
      </trkpt>
      <trkpt lat="47.34014" lon="-1.87333">
        <ele>77.625174</ele>
        <time>2026-09-03T14:55:00.426Z</time>
      </trkpt>
      <trkpt lat="47.33994" lon="-1.87349">
        <ele>77.486167</ele>
        <time>2026-09-03T14:55:03.473Z</time>
      </trkpt>
      <trkpt lat="47.33977" lon="-1.8737">
        <ele>77.46184</ele>
        <time>2026-09-03T14:55:06.603Z</time>
      </trkpt>
      <trkpt lat="47.34027" lon="-1.87437">
        <ele>77.388724</ele>
        <time>2026-09-03T14:55:15.440Z</time>
      </trkpt>
      <trkpt lat="47.34029" lon="-1.8744">
        <ele>77.385751</ele>
        <time>2026-09-03T14:55:15.815Z</time>
      </trkpt>
      <trkpt lat="47.34054" lon="-1.87417">
        <ele>77.353568</ele>
        <time>2026-09-03T14:55:20.750Z</time>
      </trkpt>
      <trkpt lat="47.34067" lon="-1.87411">
        <ele>77.338226</ele>
        <time>2026-09-03T14:55:23.207Z</time>
      </trkpt>
      <trkpt lat="47.34106" lon="-1.87401">
        <ele>77.33911</ele>
        <time>2026-09-03T14:55:30.273Z</time>
      </trkpt>
      <trkpt lat="47.34214" lon="-1.87355">
        <ele>77.836278</ele>
        <time>2026-09-03T14:56:02.236Z</time>
      </trkpt>
      <trkpt lat="47.34239" lon="-1.87254">
        <ele>77.993126</ele>
        <time>2026-09-03T14:56:20.974Z</time>
      </trkpt>
      <trkpt lat="47.34247" lon="-1.87234">
        <ele>77.864245</ele>
        <time>2026-09-03T14:56:24.883Z</time>
      </trkpt>
      <trkpt lat="47.34253" lon="-1.87232">
        <ele>77.817531</ele>
        <time>2026-09-03T14:56:26.252Z</time>
      </trkpt>
      <trkpt lat="47.34259" lon="-1.87238">
        <ele>77.758036</ele>
        <time>2026-09-03T14:56:28.030Z</time>
      </trkpt>
      <trkpt lat="47.34356" lon="-1.87388">
        <ele>76.67258</ele>
        <time>2026-09-03T14:57:00.305Z</time>
      </trkpt>
      <trkpt lat="47.34373" lon="-1.87404">
        <ele>76.813715</ele>
        <time>2026-09-03T14:57:05.163Z</time>
      </trkpt>
      <trkpt lat="47.34392" lon="-1.87416">
        <ele>76.959359</ele>
        <time>2026-09-03T14:57:10.308Z</time>
      </trkpt>
      <trkpt lat="47.3445" lon="-1.87456">
        <ele>77.40445</ele>
        <time>2026-09-03T14:57:28.123Z</time>
      </trkpt>
      <trkpt lat="47.3449" lon="-1.87484">
        <ele>77.719472</ele>
        <time>2026-09-03T14:57:42.428Z</time>
      </trkpt>
      <trkpt lat="47.34507" lon="-1.87508">
        <ele>77.884739</ele>
        <time>2026-09-03T14:57:49.996Z</time>
      </trkpt>
      <trkpt lat="47.34522" lon="-1.87535">
        <ele>78.07315</ele>
        <time>2026-09-03T14:57:57.416Z</time>
      </trkpt>
      <trkpt lat="47.34558" lon="-1.87623">
        <ele>78.628647</ele>
        <time>2026-09-03T14:58:18.431Z</time>
      </trkpt>
      <trkpt lat="47.34554" lon="-1.87627">
        <ele>78.665296</ele>
        <time>2026-09-03T14:58:19.744Z</time>
      </trkpt>
      <trkpt lat="47.34545" lon="-1.8766">
        <ele>78.862264</ele>
        <time>2026-09-03T14:58:24.279Z</time>
      </trkpt>
      <trkpt lat="47.34556" lon="-1.87673">
        <ele>78.975929</ele>
        <time>2026-09-03T14:58:28.034Z</time>
      </trkpt>
      <trkpt lat="47.34584" lon="-1.87725">
        <ele>79.34291</ele>
        <time>2026-09-03T14:58:39.507Z</time>
      </trkpt>
      <trkpt lat="47.34588" lon="-1.87748">
        <ele>79.378338</ele>
        <time>2026-09-03T14:58:43.387Z</time>
      </trkpt>
      <trkpt lat="47.34588" lon="-1.87804">
        <ele>79.422351</ele>
        <time>2026-09-03T14:58:52.638Z</time>
      </trkpt>
      <trkpt lat="47.3459" lon="-1.87875">
        <ele>79.478095</ele>
        <time>2026-09-03T14:59:04.676Z</time>
      </trkpt>
      <trkpt lat="47.34588" lon="-1.87887">
        <ele>79.487561</ele>
        <time>2026-09-03T14:59:06.778Z</time>
      </trkpt>
      <trkpt lat="47.34575" lon="-1.87917">
        <ele>79.515561</ele>
        <time>2026-09-03T14:59:13.215Z</time>
      </trkpt>
      <trkpt lat="47.34575" lon="-1.87928">
        <ele>79.524348</ele>
        <time>2026-09-03T14:59:15.263Z</time>
      </trkpt>
      <trkpt lat="47.3459" lon="-1.88001">
        <ele>79.677822</ele>
        <time>2026-09-03T14:59:29.529Z</time>
      </trkpt>
      <trkpt lat="47.34606" lon="-1.88063">
        <ele>80.108702</ele>
        <time>2026-09-03T14:59:42.660Z</time>
      </trkpt>
      <trkpt lat="47.34606" lon="-1.88083">
        <ele>80.232266</ele>
        <time>2026-09-03T14:59:46.508Z</time>
      </trkpt>
      <trkpt lat="47.34604" lon="-1.88092">
        <ele>80.297176</ele>
        <time>2026-09-03T14:59:48.540Z</time>
      </trkpt>
      <trkpt lat="47.34598" lon="-1.88098">
        <ele>80.359169</ele>
        <time>2026-09-03T14:59:50.181Z</time>
      </trkpt>
      <trkpt lat="47.34602" lon="-1.88135">
        <ele>80.599348</ele>
        <time>2026-09-03T14:59:56.544Z</time>
      </trkpt>
      <trkpt lat="47.34601" lon="-1.88148">
        <ele>80.685668</ele>
        <time>2026-09-03T14:59:58.830Z</time>
      </trkpt>
      <trkpt lat="47.34654" lon="-1.88241">
        <ele>81.43523</ele>
        <time>2026-09-03T15:00:12.976Z</time>
      </trkpt>
      <trkpt lat="47.34665" lon="-1.88253">
        <ele>81.543771</ele>
        <time>2026-09-03T15:00:15.351Z</time>
      </trkpt>
      <trkpt lat="47.34677" lon="-1.88261">
        <ele>81.651342</ele>
        <time>2026-09-03T15:00:17.765Z</time>
      </trkpt>
      <trkpt lat="47.34693" lon="-1.88264">
        <ele>81.775519</ele>
        <time>2026-09-03T15:00:20.601Z</time>
      </trkpt>
      <trkpt lat="47.34795" lon="-1.88261">
        <ele>82.593638</ele>
        <time>2026-09-03T15:00:38.408Z</time>
      </trkpt>
      <trkpt lat="47.34797" lon="-1.8827">
        <ele>82.644753</ele>
        <time>2026-09-03T15:00:40.091Z</time>
      </trkpt>
      <trkpt lat="47.34824" lon="-1.88318">
        <ele>82.460788</ele>
        <time>2026-09-03T15:00:48.876Z</time>
      </trkpt>
      <trkpt lat="47.34833" lon="-1.88326">
        <ele>82.381782</ele>
        <time>2026-09-03T15:00:51.025Z</time>
      </trkpt>
      <trkpt lat="47.34838" lon="-1.88351">
        <ele>82.256039</ele>
        <time>2026-09-03T15:00:53.084Z</time>
      </trkpt>
      <trkpt lat="47.34856" lon="-1.88406">
        <ele>81.957946</ele>
        <time>2026-09-03T15:00:57.797Z</time>
      </trkpt>
      <trkpt lat="47.34862" lon="-1.88415">
        <ele>81.896853</ele>
        <time>2026-09-03T15:00:58.757Z</time>
      </trkpt>
      <trkpt lat="47.34874" lon="-1.8842">
        <ele>81.805265</ele>
        <time>2026-09-03T15:01:00.206Z</time>
      </trkpt>
      <trkpt lat="47.34914" lon="-1.88427">
        <ele>81.515284</ele>
        <time>2026-09-03T15:01:04.884Z</time>
      </trkpt>
      <trkpt lat="47.34924" lon="-1.88433">
        <ele>81.434636</ele>
        <time>2026-09-03T15:01:06.224Z</time>
      </trkpt>
      <trkpt lat="47.34939" lon="-1.88453">
        <ele>81.460136</ele>
        <time>2026-09-03T15:01:08.715Z</time>
      </trkpt>
      <trkpt lat="47.3495" lon="-1.88478">
        <ele>81.521199</ele>
        <time>2026-09-03T15:01:11.417Z</time>
      </trkpt>
      <trkpt lat="47.35014" lon="-1.88599">
        <ele>81.826694</ele>
        <time>2026-09-03T15:01:28.340Z</time>
      </trkpt>
      <trkpt lat="47.35021" lon="-1.88624">
        <ele>81.88047</ele>
        <time>2026-09-03T15:01:31.502Z</time>
      </trkpt>
      <trkpt lat="47.3503" lon="-1.88684">
        <ele>81.842619</ele>
        <time>2026-09-03T15:01:38.045Z</time>
      </trkpt>
      <trkpt lat="47.35029" lon="-1.88708">
        <ele>81.761981</ele>
        <time>2026-09-03T15:01:40.353Z</time>
      </trkpt>
      <trkpt lat="47.35019" lon="-1.88753">
        <ele>81.608571</ele>
        <time>2026-09-03T15:01:44.425Z</time>
      </trkpt>
      <trkpt lat="47.35017" lon="-1.88776">
        <ele>81.531676</ele>
        <time>2026-09-03T15:01:46.359Z</time>
      </trkpt>
      <trkpt lat="47.35032" lon="-1.8898">
        <ele>81.186707</ele>
        <time>2026-09-03T15:02:03.010Z</time>
      </trkpt>
      <trkpt lat="47.35035" lon="-1.89">
        <ele>81.223631</ele>
        <time>2026-09-03T15:02:04.882Z</time>
      </trkpt>
      <trkpt lat="47.35046" lon="-1.89021">
        <ele>81.271199</ele>
        <time>2026-09-03T15:02:07.413Z</time>
      </trkpt>
      <trkpt lat="47.35055" lon="-1.89031">
        <ele>81.299355</ele>
        <time>2026-09-03T15:02:09.032Z</time>
      </trkpt>
      <trkpt lat="47.35052" lon="-1.89038">
        <ele>81.314869</ele>
        <time>2026-09-03T15:02:10.054Z</time>
      </trkpt>
      <trkpt lat="47.35038" lon="-1.89052">
        <ele>81.358743</ele>
        <time>2026-09-03T15:02:13.087Z</time>
      </trkpt>
      <trkpt lat="47.35037" lon="-1.89059">
        <ele>81.373035</ele>
        <time>2026-09-03T15:02:14.138Z</time>
      </trkpt>
      <trkpt lat="47.35062" lon="-1.89243">
        <ele>81.415768</ele>
        <time>2026-09-03T15:02:38.983Z</time>
      </trkpt>
      <trkpt lat="47.3506" lon="-1.89254">
        <ele>81.400462</ele>
        <time>2026-09-03T15:02:40.219Z</time>
      </trkpt>
      <trkpt lat="47.35051" lon="-1.89267">
        <ele>81.373919</ele>
        <time>2026-09-03T15:02:42.304Z</time>
      </trkpt>
      <trkpt lat="47.35044" lon="-1.89271">
        <ele>81.357213</ele>
        <time>2026-09-03T15:02:43.583Z</time>
      </trkpt>
      <trkpt lat="47.34933" lon="-1.89305">
        <ele>80.895208</ele>
        <time>2026-09-03T15:02:59.279Z</time>
      </trkpt>
      <trkpt lat="47.34896" lon="-1.89315">
        <ele>80.426131</ele>
        <time>2026-09-03T15:03:03.549Z</time>
      </trkpt>
      <trkpt lat="47.34886" lon="-1.8932">
        <ele>80.300538</ele>
        <time>2026-09-03T15:03:04.701Z</time>
      </trkpt>
      <trkpt lat="47.34881" lon="-1.89329">
        <ele>80.193886</ele>
        <time>2026-09-03T15:03:05.683Z</time>
      </trkpt>
      <trkpt lat="47.34878" lon="-1.89345">
        <ele>80.060581</ele>
        <time>2026-09-03T15:03:06.919Z</time>
      </trkpt>
      <trkpt lat="47.34876" lon="-1.89597">
        <ele>77.89522</ele>
        <time>2026-09-03T15:03:27.107Z</time>
      </trkpt>
      <trkpt lat="47.34879" lon="-1.89648">
        <ele>77.444514</ele>
        <time>2026-09-03T15:03:31.099Z</time>
      </trkpt>
      <trkpt lat="47.34882" lon="-1.89667">
        <ele>77.275129</ele>
        <time>2026-09-03T15:03:32.586Z</time>
      </trkpt>
      <trkpt lat="47.34883" lon="-1.89718">
        <ele>76.826212</ele>
        <time>2026-09-03T15:03:36.487Z</time>
      </trkpt>
      <trkpt lat="47.34882" lon="-1.89811">
        <ele>75.681163</ele>
        <time>2026-09-03T15:03:43.563Z</time>
      </trkpt>
      <trkpt lat="47.34878" lon="-1.89838">
        <ele>75.318856</ele>
        <time>2026-09-03T15:03:45.571Z</time>
      </trkpt>
      <trkpt lat="47.34867" lon="-1.89874">
        <ele>74.779025</ele>
        <time>2026-09-03T15:03:48.527Z</time>
      </trkpt>
      <trkpt lat="47.3485" lon="-1.89943">
        <ele>73.797004</ele>
        <time>2026-09-03T15:03:53.854Z</time>
      </trkpt>
      <trkpt lat="47.34851" lon="-1.89968">
        <ele>73.465165</ele>
        <time>2026-09-03T15:03:55.641Z</time>
      </trkpt>
      <trkpt lat="47.34877" lon="-1.90055">
        <ele>72.484803</ele>
        <time>2026-09-03T15:04:02.501Z</time>
      </trkpt>
      <trkpt lat="47.34882" lon="-1.9007">
        <ele>72.336669</ele>
        <time>2026-09-03T15:04:03.714Z</time>
      </trkpt>
      <trkpt lat="47.34901" lon="-1.90121">
        <ele>71.820756</ele>
        <time>2026-09-03T15:04:07.993Z</time>
      </trkpt>
      <trkpt lat="47.34933" lon="-1.90188">
        <ele>71.092414</ele>
        <time>2026-09-03T15:04:14.622Z</time>
      </trkpt>
      <trkpt lat="47.34958" lon="-1.90248">
        <ele>70.757336</ele>
        <time>2026-09-03T15:04:21.325Z</time>
      </trkpt>
      <trkpt lat="47.35001" lon="-1.90355">
        <ele>71.041617</ele>
        <time>2026-09-03T15:04:35.662Z</time>
      </trkpt>
      <trkpt lat="47.35035" lon="-1.90441">
        <ele>71.265348</ele>
        <time>2026-09-03T15:04:46.326Z</time>
      </trkpt>
      <trkpt lat="47.35056" lon="-1.9052">
        <ele>70.344756</ele>
        <time>2026-09-03T15:04:53.350Z</time>
      </trkpt>
      <trkpt lat="47.35062" lon="-1.90578">
        <ele>69.533676</ele>
        <time>2026-09-03T15:04:57.676Z</time>
      </trkpt>
      <trkpt lat="47.35057" lon="-1.90714">
        <ele>67.641113</ele>
        <time>2026-09-03T15:05:07.060Z</time>
      </trkpt>
      <trkpt lat="47.35059" lon="-1.90741">
        <ele>67.211356</ele>
        <time>2026-09-03T15:05:08.941Z</time>
      </trkpt>
      <trkpt lat="47.35068" lon="-1.90769">
        <ele>66.73269</ele>
        <time>2026-09-03T15:05:11.029Z</time>
      </trkpt>
      <trkpt lat="47.35088" lon="-1.90815">
        <ele>65.874262</ele>
        <time>2026-09-03T15:05:14.844Z</time>
      </trkpt>
      <trkpt lat="47.35098" lon="-1.90841">
        <ele>65.401824</ele>
        <time>2026-09-03T15:05:16.981Z</time>
      </trkpt>
      <trkpt lat="47.35139" lon="-1.91">
        <ele>62.891213</ele>
        <time>2026-09-03T15:05:29.762Z</time>
      </trkpt>
      <trkpt lat="47.35155" lon="-1.91038">
        <ele>62.346823</ele>
        <time>2026-09-03T15:05:33.173Z</time>
      </trkpt>
      <trkpt lat="47.35162" lon="-1.91088">
        <ele>61.734787</ele>
        <time>2026-09-03T15:05:40.838Z</time>
      </trkpt>
      <trkpt lat="47.3518" lon="-1.91193">
        <ele>60.439564</ele>
        <time>2026-09-03T15:05:56.775Z</time>
      </trkpt>
      <trkpt lat="47.35188" lon="-1.91226">
        <ele>60.347474</ele>
        <time>2026-09-03T15:06:02.058Z</time>
      </trkpt>
      <trkpt lat="47.35175" lon="-1.91267">
        <ele>60.577274</ele>
        <time>2026-09-03T15:06:09.365Z</time>
      </trkpt>
      <trkpt lat="47.35171" lon="-1.9128">
        <ele>60.648252</ele>
        <time>2026-09-03T15:06:11.723Z</time>
      </trkpt>
      <trkpt lat="47.35169" lon="-1.91296">
        <ele>60.729773</ele>
        <time>2026-09-03T15:06:14.525Z</time>
      </trkpt>
      <trkpt lat="47.35173" lon="-1.9133">
        <ele>60.898641</ele>
        <time>2026-09-03T15:06:20.830Z</time>
      </trkpt>
      <trkpt lat="47.3518" lon="-1.91362">
        <ele>61.065912</ele>
        <time>2026-09-03T15:06:27.610Z</time>
      </trkpt>
      <trkpt lat="47.35193" lon="-1.91403">
        <ele>61.295565</ele>
        <time>2026-09-03T15:06:37.544Z</time>
      </trkpt>
      <trkpt lat="47.35234" lon="-1.91473">
        <ele>61.939421</ele>
        <time>2026-09-03T15:06:53.982Z</time>
      </trkpt>
      <trkpt lat="47.35252" lon="-1.91494">
        <ele>62.27987</ele>
        <time>2026-09-03T15:07:00.022Z</time>
      </trkpt>
      <trkpt lat="47.35263" lon="-1.91513">
        <ele>62.526646</ele>
        <time>2026-09-03T15:07:04.207Z</time>
      </trkpt>
      <trkpt lat="47.3527" lon="-1.91524">
        <ele>62.680791</ele>
        <time>2026-09-03T15:07:06.660Z</time>
      </trkpt>
      <trkpt lat="47.35285" lon="-1.91562">
        <ele>63.119391</ele>
        <time>2026-09-03T15:07:13.071Z</time>
      </trkpt>
      <trkpt lat="47.35292" lon="-1.91598">
        <ele>63.49401</ele>
        <time>2026-09-03T15:07:17.998Z</time>
      </trkpt>
      <trkpt lat="47.3531" lon="-1.91663">
        <ele>64.197889</ele>
        <time>2026-09-03T15:07:25.908Z</time>
      </trkpt>
      <trkpt lat="47.35335" lon="-1.91735">
        <ele>63.578387</ele>
        <time>2026-09-03T15:07:33.701Z</time>
      </trkpt>
      <trkpt lat="47.35377" lon="-1.91842">
        <ele>62.511794</ele>
        <time>2026-09-03T15:07:44.556Z</time>
      </trkpt>
      <trkpt lat="47.35395" lon="-1.91916">
        <ele>61.589804</ele>
        <time>2026-09-03T15:07:51.170Z</time>
      </trkpt>
      <trkpt lat="47.35399" lon="-1.91939">
        <ele>60.989528</ele>
        <time>2026-09-03T15:07:53.076Z</time>
      </trkpt>
      <trkpt lat="47.35408" lon="-1.91963">
        <ele>60.28262</ele>
        <time>2026-09-03T15:07:55.282Z</time>
      </trkpt>
      <trkpt lat="47.35415" lon="-1.91968">
        <ele>59.99208</ele>
        <time>2026-09-03T15:07:56.182Z</time>
      </trkpt>
      <trkpt lat="47.35417" lon="-1.91976">
        <ele>59.778209</ele>
        <time>2026-09-03T15:07:56.843Z</time>
      </trkpt>
      <trkpt lat="47.35441" lon="-1.92035">
        <ele>57.997382</ele>
        <time>2026-09-03T15:08:02.155Z</time>
      </trkpt>
      <trkpt lat="47.3548" lon="-1.92098">
        <ele>55.822483</ele>
        <time>2026-09-03T15:08:08.356Z</time>
      </trkpt>
      <trkpt lat="47.35547" lon="-1.92164">
        <ele>51.901047</ele>
        <time>2026-09-03T15:08:16.674Z</time>
      </trkpt>
      <trkpt lat="47.35607" lon="-1.92201">
        <ele>48.550423</ele>
        <time>2026-09-03T15:08:23.403Z</time>
      </trkpt>
      <trkpt lat="47.35628" lon="-1.92238">
        <ele>46.843482</ele>
        <time>2026-09-03T15:08:26.507Z</time>
      </trkpt>
      <trkpt lat="47.35647" lon="-1.92263">
        <ele>45.746261</ele>
        <time>2026-09-03T15:08:29.012Z</time>
      </trkpt>
      <trkpt lat="47.35644" lon="-1.92252">
        <ele>45.662665</ele>
        <time>2026-09-03T15:08:29.946Z</time>
      </trkpt>
      <trkpt lat="47.35655" lon="-1.92248">
        <ele>45.535847</ele>
        <time>2026-09-03T15:08:31.405Z</time>
      </trkpt>
      <trkpt lat="47.35657" lon="-1.92213">
        <ele>45.287354</ele>
        <time>2026-09-03T15:08:34.342Z</time>
      </trkpt>
      <trkpt lat="47.35677" lon="-1.922">
        <ele>45.06066</ele>
        <time>2026-09-03T15:08:37.153Z</time>
      </trkpt>
      <trkpt lat="47.35692" lon="-1.92185">
        <ele>44.877045</ele>
        <time>2026-09-03T15:08:39.641Z</time>
      </trkpt>
      <trkpt lat="47.35701" lon="-1.92167">
        <ele>44.721531</ele>
        <time>2026-09-03T15:08:41.904Z</time>
      </trkpt>
      <trkpt lat="47.35702" lon="-1.92151">
        <ele>44.605156</ele>
        <time>2026-09-03T15:08:43.699Z</time>
      </trkpt>
      <trkpt lat="47.35694" lon="-1.92121">
        <ele>44.375348</ele>
        <time>2026-09-03T15:08:47.584Z</time>
      </trkpt>
      <trkpt lat="47.3572" lon="-1.92113">
        <ele>44.093426</ele>
        <time>2026-09-03T15:08:52.356Z</time>
      </trkpt>
      <trkpt lat="47.35722" lon="-1.92112">
        <ele>44.074099</ele>
        <time>2026-09-03T15:08:52.677Z</time>
      </trkpt>
      <trkpt lat="47.35724" lon="-1.9211">
        <ele>44.045945</ele>
        <time>2026-09-03T15:08:54.559Z</time>
      </trkpt>
      <trkpt lat="47.35726" lon="-1.92107">
        <ele>44.018637</ele>
        <time>2026-09-03T15:08:56.390Z</time>
      </trkpt>
      <trkpt lat="47.35727" lon="-1.92106">
        <ele>44.004353</ele>
        <time>2026-09-03T15:08:56.614Z</time>
      </trkpt>
      <trkpt lat="47.35725" lon="-1.92102">
        <ele>43.969024</ele>
        <time>2026-09-03T15:08:57.183Z</time>
      </trkpt>
      <trkpt lat="47.35768" lon="-1.92062">
        <ele>43.8667</ele>
        <time>2026-09-03T15:09:05.305Z</time>
      </trkpt>
      <trkpt lat="47.35776" lon="-1.92062">
        <ele>43.855819</ele>
        <time>2026-09-03T15:09:07.387Z</time>
      </trkpt>
      <trkpt lat="47.3579" lon="-1.92062">
        <ele>43.837728</ele>
        <time>2026-09-03T15:09:24.549Z</time>
      </trkpt>
      <trkpt lat="47.35832" lon="-1.92056">
        <ele>43.782533</ele>
        <time>2026-09-03T15:09:35.703Z</time>
      </trkpt>
      <trkpt lat="47.35844" lon="-1.92054">
        <ele>43.767259</ele>
        <time>2026-09-03T15:09:38.819Z</time>
      </trkpt>
      <trkpt lat="47.35886" lon="-1.9207">
        <ele>43.709848</ele>
        <time>2026-09-03T15:09:50.312Z</time>
      </trkpt>
      <trkpt lat="47.3589" lon="-1.92076">
        <ele>43.701935</ele>
        <time>2026-09-03T15:09:51.865Z</time>
      </trkpt>
      <trkpt lat="47.359" lon="-1.92088">
        <ele>43.708789</ele>
        <time>2026-09-03T15:09:55.039Z</time>
      </trkpt>
      <trkpt lat="47.35916" lon="-1.92096">
        <ele>43.76523</ele>
        <time>2026-09-03T15:09:59.284Z</time>
      </trkpt>
      <trkpt lat="47.35937" lon="-1.92102">
        <ele>43.839082</ele>
        <time>2026-09-03T15:10:04.780Z</time>
      </trkpt>
      <trkpt lat="47.35975" lon="-1.92102">
        <ele>43.970431</ele>
        <time>2026-09-03T15:10:14.653Z</time>
      </trkpt>
      <trkpt lat="47.35996" lon="-1.92089">
        <ele>44.047594</ele>
        <time>2026-09-03T15:10:20.602Z</time>
      </trkpt>
      <trkpt lat="47.36018" lon="-1.92063">
        <ele>44.142148</ele>
        <time>2026-09-03T15:10:28.221Z</time>
      </trkpt>
      <trkpt lat="47.36033" lon="-1.92078">
        <ele>44.204714</ele>
        <time>2026-09-03T15:10:33.744Z</time>
      </trkpt>
      <trkpt lat="47.36042" lon="-1.92089">
        <ele>44.242525</ele>
        <time>2026-09-03T15:10:37.216Z</time>
      </trkpt>
      <trkpt lat="47.36053" lon="-1.92103">
        <ele>44.293674</ele>
        <time>2026-09-03T15:10:42.058Z</time>
      </trkpt>
      <trkpt lat="47.36057" lon="-1.9212">
        <ele>44.683243</ele>
        <time>2026-09-03T15:10:46.229Z</time>
      </trkpt>
      <trkpt lat="47.36054" lon="-1.92137">
        <ele>45.18525</ele>
        <time>2026-09-03T15:10:50.302Z</time>
      </trkpt>
      <trkpt lat="47.36036" lon="-1.92162">
        <ele>46.258393</ele>
        <time>2026-09-03T15:10:59.417Z</time>
      </trkpt>
      <trkpt lat="47.3602" lon="-1.92179">
        <ele>47.093837</ele>
        <time>2026-09-03T15:11:06.800Z</time>
      </trkpt>
      <trkpt lat="47.36014" lon="-1.92203">
        <ele>47.852414</ele>
        <time>2026-09-03T15:11:13.938Z</time>
      </trkpt>
      <trkpt lat="47.36012" lon="-1.9223">
        <ele>48.646312</ele>
        <time>2026-09-03T15:11:21.951Z</time>
      </trkpt>
      <trkpt lat="47.36013" lon="-1.92247">
        <ele>49.126262</ele>
        <time>2026-09-03T15:11:26.937Z</time>
      </trkpt>
      <trkpt lat="47.35972" lon="-1.92298">
        <ele>51.428968</ele>
        <time>2026-09-03T15:11:52.146Z</time>
      </trkpt>
      <trkpt lat="47.35967" lon="-1.92313">
        <ele>51.93958</ele>
        <time>2026-09-03T15:11:57.807Z</time>
      </trkpt>
      <trkpt lat="47.35967" lon="-1.92326">
        <ele>52.3337</ele>
        <time>2026-09-03T15:12:02.094Z</time>
      </trkpt>
      <trkpt lat="47.35978" lon="-1.92341">
        <ele>52.995652</ele>
        <time>2026-09-03T15:12:09.028Z</time>
      </trkpt>
      <trkpt lat="47.3598" lon="-1.92353">
        <ele>53.366877</ele>
        <time>2026-09-03T15:12:12.834Z</time>
      </trkpt>
      <trkpt lat="47.35979" lon="-1.92431">
        <ele>55.67166</ele>
        <time>2026-09-03T15:12:35.418Z</time>
      </trkpt>
      <trkpt lat="47.35988" lon="-1.92434">
        <ele>56.077725</ele>
        <time>2026-09-03T15:12:39.247Z</time>
      </trkpt>
      <trkpt lat="47.36037" lon="-1.92435">
        <ele>58.198677</ele>
        <time>2026-09-03T15:12:58.523Z</time>
      </trkpt>
      <trkpt lat="47.36073" lon="-1.92435">
        <ele>59.77087</ele>
        <time>2026-09-03T15:13:12.235Z</time>
      </trkpt>
      <trkpt lat="47.36175" lon="-1.92442">
        <ele>62.352359</ele>
        <time>2026-09-03T15:13:47.846Z</time>
      </trkpt>
      <trkpt lat="47.36179" lon="-1.92445">
        <ele>62.463977</ele>
        <time>2026-09-03T15:13:49.359Z</time>
      </trkpt>
      <trkpt lat="47.36183" lon="-1.92456">
        <ele>62.688921</ele>
        <time>2026-09-03T15:13:52.428Z</time>
      </trkpt>
      <trkpt lat="47.36186" lon="-1.92533">
        <ele>63.970174</ele>
        <time>2026-09-03T15:14:09.590Z</time>
      </trkpt>
      <trkpt lat="47.36233" lon="-1.92536">
        <ele>64.975528</ele>
        <time>2026-09-03T15:14:24.844Z</time>
      </trkpt>
      <trkpt lat="47.36245" lon="-1.92541">
        <ele>65.206311</ele>
        <time>2026-09-03T15:14:28.532Z</time>
      </trkpt>
      <trkpt lat="47.36254" lon="-1.92562">
        <ele>65.54925</ele>
        <time>2026-09-03T15:14:34.079Z</time>
      </trkpt>
      <trkpt lat="47.36261" lon="-1.92572">
        <ele>65.748029</ele>
        <time>2026-09-03T15:14:37.328Z</time>
      </trkpt>
      <trkpt lat="47.36356" lon="-1.92554">
        <ele>67.628508</ele>
        <time>2026-09-03T15:15:08.556Z</time>
      </trkpt>
      <trkpt lat="47.36384" lon="-1.92543">
        <ele>68.199992</ele>
        <time>2026-09-03T15:15:17.936Z</time>
      </trkpt>
      <trkpt lat="47.36423" lon="-1.92519">
        <ele>69.028374</ele>
        <time>2026-09-03T15:15:31.475Z</time>
      </trkpt>
      <trkpt lat="47.36524" lon="-1.92445">
        <ele>71.227108</ele>
        <time>2026-09-03T15:16:08.045Z</time>
      </trkpt>
      <trkpt lat="47.36535" lon="-1.9244">
        <ele>71.454868</ele>
        <time>2026-09-03T15:16:11.755Z</time>
      </trkpt>
      <trkpt lat="47.36535" lon="-1.9244">
        <ele>71.454868</ele>
        <time>2026-09-03T15:16:11.761Z</time>
      </trkpt>
      <trkpt lat="47.36536" lon="-1.92444">
        <ele>71.507575</ele>
        <time>2026-09-03T15:16:12.317Z</time>
      </trkpt>
      <trkpt lat="47.36545" lon="-1.92442">
        <ele>71.693554</ele>
        <time>2026-09-03T15:16:14.281Z</time>
      </trkpt>
      <trkpt lat="47.36554" lon="-1.9244">
        <ele>71.874346</ele>
        <time>2026-09-03T15:16:16.190Z</time>
      </trkpt>
      <trkpt lat="47.36558" lon="-1.92439">
        <ele>71.956111</ele>
        <time>2026-09-03T15:16:17.053Z</time>
      </trkpt>
      <trkpt lat="47.36562" lon="-1.9244">
        <ele>72.035408</ele>
        <time>2026-09-03T15:16:17.890Z</time>
      </trkpt>
      <trkpt lat="47.36565" lon="-1.92442">
        <ele>72.108198</ele>
        <time>2026-09-03T15:16:18.659Z</time>
      </trkpt>
      <trkpt lat="47.36568" lon="-1.92445">
        <ele>72.180091</ele>
        <time>2026-09-03T15:16:19.418Z</time>
      </trkpt>
      <trkpt lat="47.36571" lon="-1.92447">
        <ele>72.243654</ele>
        <time>2026-09-03T15:16:20.089Z</time>
      </trkpt>
      <trkpt lat="47.36579" lon="-1.92455">
        <ele>72.446883</ele>
        <time>2026-09-03T15:16:22.235Z</time>
      </trkpt>
      <trkpt lat="47.36585" lon="-1.92462">
        <ele>72.595513</ele>
        <time>2026-09-03T15:16:23.804Z</time>
      </trkpt>
      <trkpt lat="47.36587" lon="-1.92467">
        <ele>72.672227</ele>
        <time>2026-09-03T15:16:24.614Z</time>
      </trkpt>
      <trkpt lat="47.36589" lon="-1.92471">
        <ele>72.741548</ele>
        <time>2026-09-03T15:16:25.346Z</time>
      </trkpt>
      <trkpt lat="47.3659" lon="-1.92483">
        <ele>72.905829</ele>
        <time>2026-09-03T15:16:27.081Z</time>
      </trkpt>
      <trkpt lat="47.3659" lon="-1.92494">
        <ele>73.055375</ele>
        <time>2026-09-03T15:16:28.660Z</time>
      </trkpt>
      <trkpt lat="47.36591" lon="-1.92498">
        <ele>73.124528</ele>
        <time>2026-09-03T15:16:29.390Z</time>
      </trkpt>
      <trkpt lat="47.36593" lon="-1.92503">
        <ele>73.19612</ele>
        <time>2026-09-03T15:16:30.146Z</time>
      </trkpt>
      <trkpt lat="47.36595" lon="-1.92506">
        <ele>73.260136</ele>
        <time>2026-09-03T15:16:30.822Z</time>
      </trkpt>
      <trkpt lat="47.36597" lon="-1.92508">
        <ele>73.313523</ele>
        <time>2026-09-03T15:16:31.385Z</time>
      </trkpt>
      <trkpt lat="47.366" lon="-1.92509">
        <ele>73.364426</ele>
        <time>2026-09-03T15:16:31.923Z</time>
      </trkpt>
      <trkpt lat="47.36606" lon="-1.9251">
        <ele>73.492225</ele>
        <time>2026-09-03T15:16:33.272Z</time>
      </trkpt>
      <trkpt lat="47.3661" lon="-1.9251">
        <ele>73.565969</ele>
        <time>2026-09-03T15:16:34.051Z</time>
      </trkpt>
      <trkpt lat="47.3662" lon="-1.9251">
        <ele>73.770598</ele>
        <time>2026-09-03T15:16:36.212Z</time>
      </trkpt>
      <trkpt lat="47.36623" lon="-1.9251">
        <ele>73.833453</ele>
        <time>2026-09-03T15:16:36.875Z</time>
      </trkpt>
      <trkpt lat="47.36626" lon="-1.9251">
        <ele>73.898287</ele>
        <time>2026-09-03T15:16:37.560Z</time>
      </trkpt>
      <trkpt lat="47.36629" lon="-1.9251">
        <ele>73.965358</ele>
        <time>2026-09-03T15:16:38.268Z</time>
      </trkpt>
      <trkpt lat="47.36632" lon="-1.92508">
        <ele>74.029517</ele>
        <time>2026-09-03T15:16:38.945Z</time>
      </trkpt>
      <trkpt lat="47.36641" lon="-1.925">
        <ele>74.242529</ele>
        <time>2026-09-03T15:16:41.194Z</time>
      </trkpt>
      <trkpt lat="47.36644" lon="-1.92497">
        <ele>74.317498</ele>
        <time>2026-09-03T15:16:41.986Z</time>
      </trkpt>
      <trkpt lat="47.36645" lon="-1.92497">
        <ele>74.328863</ele>
        <time>2026-09-03T15:16:42.105Z</time>
      </trkpt>
      <trkpt lat="47.36663" lon="-1.92479">
        <ele>74.781797</ele>
        <time>2026-09-03T15:16:49.253Z</time>
      </trkpt>
      <trkpt lat="47.36706" lon="-1.92455">
        <ele>75.49208</ele>
        <time>2026-09-03T15:17:03.830Z</time>
      </trkpt>
      <trkpt lat="47.36889" lon="-1.92452">
        <ele>77.654506</ele>
        <time>2026-09-03T15:17:58.778Z</time>
      </trkpt>
      <trkpt lat="47.36884" lon="-1.92347">
        <ele>77.965886</ele>
        <time>2026-09-03T15:18:18.459Z</time>
      </trkpt>
      <trkpt lat="47.36894" lon="-1.92313">
        <ele>78.073622</ele>
        <time>2026-09-03T15:18:24.759Z</time>
      </trkpt>
      <trkpt lat="47.36885" lon="-1.92294">
        <ele>78.141965</ele>
        <time>2026-09-03T15:18:28.673Z</time>
      </trkpt>
      <trkpt lat="47.36877" lon="-1.92241">
        <ele>78.289444</ele>
        <time>2026-09-03T15:18:37.655Z</time>
      </trkpt>
      <trkpt lat="47.36874" lon="-1.92105">
        <ele>78.47441</ele>
        <time>2026-09-03T15:19:00.323Z</time>
      </trkpt>
      <trkpt lat="47.36876" lon="-1.92072">
        <ele>78.520032</ele>
        <time>2026-09-03T15:19:06.216Z</time>
      </trkpt>
      <trkpt lat="47.36899" lon="-1.91863">
        <ele>78.623651</ele>
        <time>2026-09-03T15:19:48.209Z</time>
      </trkpt>
      <trkpt lat="47.36905" lon="-1.91772">
        <ele>78.611284</ele>
        <time>2026-09-03T15:20:03.756Z</time>
      </trkpt>
      <trkpt lat="47.3691" lon="-1.91711">
        <ele>78.43843</ele>
        <time>2026-09-03T15:20:13.229Z</time>
      </trkpt>
      <trkpt lat="47.36911" lon="-1.91669">
        <ele>77.812326</ele>
        <time>2026-09-03T15:20:19.328Z</time>
      </trkpt>
      <trkpt lat="47.36903" lon="-1.91575">
        <ele>76.390171</ele>
        <time>2026-09-03T15:20:32.599Z</time>
      </trkpt>
      <trkpt lat="47.36883" lon="-1.91457">
        <ele>74.643378</ele>
        <time>2026-09-03T15:20:50.030Z</time>
      </trkpt>
      <trkpt lat="47.36849" lon="-1.91319">
        <ele>75.318933</ele>
        <time>2026-09-03T15:21:15.676Z</time>
      </trkpt>
      <trkpt lat="47.36836" lon="-1.91286">
        <ele>75.492461</ele>
        <time>2026-09-03T15:21:23.991Z</time>
      </trkpt>
      <trkpt lat="47.36829" lon="-1.91274">
        <ele>75.565022</ele>
        <time>2026-09-03T15:21:27.596Z</time>
      </trkpt>
      <trkpt lat="47.36812" lon="-1.91241">
        <ele>75.756105</ele>
        <time>2026-09-03T15:21:37.311Z</time>
      </trkpt>
      <trkpt lat="47.36765" lon="-1.91096">
        <ele>77.03226</ele>
        <time>2026-09-03T15:22:14.184Z</time>
      </trkpt>
      <trkpt lat="47.36743" lon="-1.91048">
        <ele>77.519347</ele>
        <time>2026-09-03T15:22:25.506Z</time>
      </trkpt>
      <trkpt lat="47.3672" lon="-1.91011">
        <ele>77.944915</ele>
        <time>2026-09-03T15:22:34.372Z</time>
      </trkpt>
      <trkpt lat="47.36705" lon="-1.90997">
        <ele>77.928246</ele>
        <time>2026-09-03T15:22:38.611Z</time>
      </trkpt>
      <trkpt lat="47.36684" lon="-1.90992">
        <ele>77.426158</ele>
        <time>2026-09-03T15:22:43.634Z</time>
      </trkpt>
      <trkpt lat="47.36643" lon="-1.91008">
        <ele>76.453586</ele>
        <time>2026-09-03T15:22:52.831Z</time>
      </trkpt>
      <trkpt lat="47.36614" lon="-1.91029">
        <ele>75.70412</ele>
        <time>2026-09-03T15:22:59.695Z</time>
      </trkpt>
      <trkpt lat="47.36609" lon="-1.91024">
        <ele>75.567441</ele>
        <time>2026-09-03T15:23:00.939Z</time>
      </trkpt>
      <trkpt lat="47.36561" lon="-1.91072">
        <ele>74.223203</ele>
        <time>2026-09-03T15:23:06.807Z</time>
      </trkpt>
      <trkpt lat="47.3652" lon="-1.91111">
        <ele>72.410488</ele>
        <time>2026-09-03T15:23:11.589Z</time>
      </trkpt>
      <trkpt lat="47.36445" lon="-1.91186">
        <ele>68.48572</ele>
        <time>2026-09-03T15:23:20.422Z</time>
      </trkpt>
      <trkpt lat="47.36423" lon="-1.91213">
        <ele>67.252964</ele>
        <time>2026-09-03T15:23:23.108Z</time>
      </trkpt>
      <trkpt lat="47.36419" lon="-1.91207">
        <ele>67.025692</ele>
        <time>2026-09-03T15:23:24.120Z</time>
      </trkpt>
      <trkpt lat="47.36413" lon="-1.91206">
        <ele>66.765508</ele>
        <time>2026-09-03T15:23:25.274Z</time>
      </trkpt>
      <trkpt lat="47.36373" lon="-1.91249">
        <ele>64.305564</ele>
        <time>2026-09-03T15:23:34.475Z</time>
      </trkpt>
      <trkpt lat="47.36348" lon="-1.91264">
        <ele>62.861846</ele>
        <time>2026-09-03T15:23:39.480Z</time>
      </trkpt>
      <trkpt lat="47.36346" lon="-1.91264">
        <ele>62.749881</ele>
        <time>2026-09-03T15:23:39.877Z</time>
      </trkpt>
      <trkpt lat="47.36275" lon="-1.91264">
        <ele>58.980309</ele>
        <time>2026-09-03T15:23:52.882Z</time>
      </trkpt>
      <trkpt lat="47.36247" lon="-1.91269">
        <ele>57.449673</ele>
        <time>2026-09-03T15:23:58.495Z</time>
      </trkpt>
      <trkpt lat="47.36237" lon="-1.91275">
        <ele>56.881799</ele>
        <time>2026-09-03T15:24:00.640Z</time>
      </trkpt>
      <trkpt lat="47.36225" lon="-1.91275">
        <ele>56.53132</ele>
        <time>2026-09-03T15:24:03.031Z</time>
      </trkpt>
      <trkpt lat="47.36212" lon="-1.9128">
        <ele>56.421314</ele>
        <time>2026-09-03T15:24:05.981Z</time>
      </trkpt>
      <trkpt lat="47.36191" lon="-1.91277">
        <ele>56.25559</ele>
        <time>2026-09-03T15:24:10.553Z</time>
      </trkpt>
      <trkpt lat="47.36173" lon="-1.9128">
        <ele>56.107886</ele>
        <time>2026-09-03T15:24:14.805Z</time>
      </trkpt>
      <trkpt lat="47.36171" lon="-1.91233">
        <ele>55.854652</ele>
        <time>2026-09-03T15:24:22.520Z</time>
      </trkpt>
      <trkpt lat="47.36166" lon="-1.91192">
        <ele>55.62796</ele>
        <time>2026-09-03T15:24:29.989Z</time>
      </trkpt>
      <trkpt lat="47.36184" lon="-1.91086">
        <ele>55.399492</ele>
        <time>2026-09-03T15:24:51.192Z</time>
      </trkpt>
      <trkpt lat="47.36193" lon="-1.91066">
        <ele>55.694086</ele>
        <time>2026-09-03T15:24:55.767Z</time>
      </trkpt>
      <trkpt lat="47.3623" lon="-1.91032">
        <ele>56.463451</ele>
        <time>2026-09-03T15:25:07.937Z</time>
      </trkpt>
      <trkpt lat="47.36233" lon="-1.91023">
        <ele>56.58795</ele>
        <time>2026-09-03T15:25:10.056Z</time>
      </trkpt>
      <trkpt lat="47.36233" lon="-1.91015">
        <ele>56.683385</ele>
        <time>2026-09-03T15:25:11.647Z</time>
      </trkpt>
      <trkpt lat="47.36228" lon="-1.91004">
        <ele>56.840361</ele>
        <time>2026-09-03T15:25:14.413Z</time>
      </trkpt>
      <trkpt lat="47.36219" lon="-1.91004">
        <ele>57.0024</ele>
        <time>2026-09-03T15:25:17.366Z</time>
      </trkpt>
      <trkpt lat="47.36208" lon="-1.91005">
        <ele>57.189373</ele>
        <time>2026-09-03T15:25:20.971Z</time>
      </trkpt>
      <trkpt lat="47.36196" lon="-1.90994">
        <ele>57.432558</ele>
        <time>2026-09-03T15:25:25.685Z</time>
      </trkpt>
      <trkpt lat="47.36174" lon="-1.90887">
        <ele>59.137209</ele>
        <time>2026-09-03T15:25:52.458Z</time>
      </trkpt>
      <trkpt lat="47.36166" lon="-1.90865">
        <ele>59.692558</ele>
        <time>2026-09-03T15:25:58.933Z</time>
      </trkpt>
      <trkpt lat="47.36166" lon="-1.90849">
        <ele>60.045081</ele>
        <time>2026-09-03T15:26:03.126Z</time>
      </trkpt>
      <trkpt lat="47.36172" lon="-1.90843">
        <ele>60.282001</ele>
        <time>2026-09-03T15:26:05.945Z</time>
      </trkpt>
      <trkpt lat="47.3619" lon="-1.90844">
        <ele>60.871756</ele>
        <time>2026-09-03T15:26:12.913Z</time>
      </trkpt>
      <trkpt lat="47.36215" lon="-1.90842">
        <ele>61.669072</ele>
        <time>2026-09-03T15:26:22.308Z</time>
      </trkpt>
      <trkpt lat="47.3621" lon="-1.90827">
        <ele>62.033992</ele>
        <time>2026-09-03T15:26:26.579Z</time>
      </trkpt>
      <trkpt lat="47.36187" lon="-1.90697">
        <ele>64.827791</ele>
        <time>2026-09-03T15:27:00.102Z</time>
      </trkpt>
      <trkpt lat="47.36169" lon="-1.90592">
        <ele>66.65904</ele>
        <time>2026-09-03T15:27:26.910Z</time>
      </trkpt>
      <trkpt lat="47.36165" lon="-1.90567">
        <ele>67.104</ele>
        <time>2026-09-03T15:27:33.015Z</time>
      </trkpt>
      <trkpt lat="47.36164" lon="-1.90561">
        <ele>67.203334</ele>
        <time>2026-09-03T15:27:34.346Z</time>
      </trkpt>
      <trkpt lat="47.36161" lon="-1.90543">
        <ele>67.515259</ele>
        <time>2026-09-03T15:27:38.540Z</time>
      </trkpt>
      <trkpt lat="47.36161" lon="-1.90525">
        <ele>67.822707</ele>
        <time>2026-09-03T15:27:42.611Z</time>
      </trkpt>
      <trkpt lat="47.36192" lon="-1.90518">
        <ele>68.592491</ele>
        <time>2026-09-03T15:27:52.394Z</time>
      </trkpt>
      <trkpt lat="47.362" lon="-1.90512">
        <ele>68.740788</ele>
        <time>2026-09-03T15:27:55.163Z</time>
      </trkpt>
      <trkpt lat="47.36201" lon="-1.90504">
        <ele>68.731647</ele>
        <time>2026-09-03T15:27:56.694Z</time>
      </trkpt>
      <trkpt lat="47.36206" lon="-1.90476">
        <ele>68.695362</ele>
        <time>2026-09-03T15:28:02.452Z</time>
      </trkpt>
      <trkpt lat="47.36216" lon="-1.90452">
        <ele>68.659938</ele>
        <time>2026-09-03T15:28:07.795Z</time>
      </trkpt>
      <trkpt lat="47.36217" lon="-1.90435">
        <ele>68.637912</ele>
        <time>2026-09-03T15:28:11.036Z</time>
      </trkpt>
      <trkpt lat="47.3621" lon="-1.90419">
        <ele>68.615238</ele>
        <time>2026-09-03T15:28:14.225Z</time>
      </trkpt>
      <trkpt lat="47.3621" lon="-1.90412">
        <ele>68.605845</ele>
        <time>2026-09-03T15:28:15.501Z</time>
      </trkpt>
      <trkpt lat="47.36216" lon="-1.90382">
        <ele>68.567137</ele>
        <time>2026-09-03T15:28:20.594Z</time>
      </trkpt>
      <trkpt lat="47.36226" lon="-1.9036">
        <ele>68.533867</ele>
        <time>2026-09-03T15:28:24.885Z</time>
      </trkpt>
      <trkpt lat="47.36235" lon="-1.90352">
        <ele>68.51558</ele>
        <time>2026-09-03T15:28:27.237Z</time>
      </trkpt>
      <trkpt lat="47.36245" lon="-1.90352">
        <ele>68.49757</ele>
        <time>2026-09-03T15:28:29.519Z</time>
      </trkpt>
      <trkpt lat="47.36248" lon="-1.90355">
        <ele>68.490581</ele>
        <time>2026-09-03T15:28:30.414Z</time>
      </trkpt>
      <trkpt lat="47.36252" lon="-1.9037">
        <ele>68.469519</ele>
        <time>2026-09-03T15:28:33.068Z</time>
      </trkpt>
      <trkpt lat="47.36256" lon="-1.90368">
        <ele>68.462068</ele>
        <time>2026-09-03T15:28:34.014Z</time>
      </trkpt>
      <trkpt lat="47.3626" lon="-1.90358">
        <ele>68.448069</ele>
        <time>2026-09-03T15:28:35.737Z</time>
      </trkpt>
      <trkpt lat="47.36265" lon="-1.90353">
        <ele>68.436076</ele>
        <time>2026-09-03T15:28:37.240Z</time>
      </trkpt>
      <trkpt lat="47.36303" lon="-1.90343">
        <ele>68.108718</ele>
        <time>2026-09-03T15:28:42.392Z</time>
      </trkpt>
      <trkpt lat="47.36449" lon="-1.90567">
        <ele>67.165997</ele>
        <time>2026-09-03T15:29:07.227Z</time>
      </trkpt>
      <trkpt lat="47.36509" lon="-1.90669">
        <ele>68.308584</ele>
        <time>2026-09-03T15:29:27.425Z</time>
      </trkpt>
      <trkpt lat="47.36522" lon="-1.90694">
        <ele>68.579273</ele>
        <time>2026-09-03T15:29:32.875Z</time>
      </trkpt>
      <trkpt lat="47.36542" lon="-1.9068">
        <ele>68.954853</ele>
        <time>2026-09-03T15:29:38.813Z</time>
      </trkpt>
      <trkpt lat="47.3659" lon="-1.90608">
        <ele>70.302719</ele>
        <time>2026-09-03T15:29:55.027Z</time>
      </trkpt>
      <trkpt lat="47.36609" lon="-1.90577">
        <ele>70.857239</ele>
        <time>2026-09-03T15:30:01.208Z</time>
      </trkpt>
      <trkpt lat="47.36622" lon="-1.90561">
        <ele>71.185321</ele>
        <time>2026-09-03T15:30:04.846Z</time>
      </trkpt>
      <trkpt lat="47.36651" lon="-1.90551">
        <ele>71.772457</ele>
        <time>2026-09-03T15:30:11.474Z</time>
      </trkpt>
      <trkpt lat="47.36663" lon="-1.90541">
        <ele>72.042394</ele>
        <time>2026-09-03T15:30:14.609Z</time>
      </trkpt>
      <trkpt lat="47.36671" lon="-1.90522">
        <ele>72.232286</ele>
        <time>2026-09-03T15:30:17.968Z</time>
      </trkpt>
      <trkpt lat="47.36666" lon="-1.90407">
        <ele>72.437249</ele>
        <time>2026-09-03T15:30:33.411Z</time>
      </trkpt>
      <trkpt lat="47.36667" lon="-1.90387">
        <ele>72.474371</ele>
        <time>2026-09-03T15:30:36.101Z</time>
      </trkpt>
      <trkpt lat="47.36544" lon="-1.90427">
        <ele>71.851707</ele>
        <time>2026-09-03T15:30:54.168Z</time>
      </trkpt>
      <trkpt lat="47.36487" lon="-1.90431">
        <ele>70.800388</ele>
        <time>2026-09-03T15:31:01.185Z</time>
      </trkpt>
      <trkpt lat="47.36471" lon="-1.90425">
        <ele>70.502087</ele>
        <time>2026-09-03T15:31:03.199Z</time>
      </trkpt>
      <trkpt lat="47.3646" lon="-1.90413">
        <ele>70.245008</ele>
        <time>2026-09-03T15:31:04.942Z</time>
      </trkpt>
      <trkpt lat="47.36403" lon="-1.90321">
        <ele>69.363477</ele>
        <time>2026-09-03T15:31:15.873Z</time>
      </trkpt>
      <trkpt lat="47.36342" lon="-1.90224">
        <ele>69.377093</ele>
        <time>2026-09-03T15:31:29.419Z</time>
      </trkpt>
      <trkpt lat="47.36298" lon="-1.90145">
        <ele>69.865895</ele>
        <time>2026-09-03T15:31:44.393Z</time>
      </trkpt>
      <trkpt lat="47.36211" lon="-1.90029">
        <ele>73.424963</ele>
        <time>2026-09-03T15:32:17.404Z</time>
      </trkpt>
      <trkpt lat="47.36206" lon="-1.90014">
        <ele>73.76875</ele>
        <time>2026-09-03T15:32:20.868Z</time>
      </trkpt>
      <trkpt lat="47.36208" lon="-1.90002">
        <ele>74.024487</ele>
        <time>2026-09-03T15:32:23.348Z</time>
      </trkpt>
      <trkpt lat="47.36219" lon="-1.89981">
        <ele>74.567712</ele>
        <time>2026-09-03T15:32:28.599Z</time>
      </trkpt>
      <trkpt lat="47.36183" lon="-1.89931">
        <ele>75.810774</ele>
        <time>2026-09-03T15:32:42.671Z</time>
      </trkpt>
      <trkpt lat="47.36009" lon="-1.8967">
        <ele>80.652784</ele>
        <time>2026-09-03T15:33:39.456Z</time>
      </trkpt>
      <trkpt lat="47.35995" lon="-1.89667">
        <ele>80.858693</ele>
        <time>2026-09-03T15:33:42.269Z</time>
      </trkpt>
      <trkpt lat="47.35967" lon="-1.89636">
        <ele>81.358015</ele>
        <time>2026-09-03T15:33:48.876Z</time>
      </trkpt>
      <trkpt lat="47.35958" lon="-1.89632">
        <ele>81.493483</ele>
        <time>2026-09-03T15:33:50.632Z</time>
      </trkpt>
      <trkpt lat="47.3595" lon="-1.89632">
        <ele>81.602734</ele>
        <time>2026-09-03T15:33:52.000Z</time>
      </trkpt>
      <trkpt lat="47.35729" lon="-1.89294">
        <ele>82.762621</ele>
        <time>2026-09-03T15:34:44.683Z</time>
      </trkpt>
      <trkpt lat="47.35725" lon="-1.89299">
        <ele>82.785567</ele>
        <time>2026-09-03T15:34:45.858Z</time>
      </trkpt>
      <trkpt lat="47.35706" lon="-1.89233">
        <ele>83.063452</ele>
        <time>2026-09-03T15:34:53.982Z</time>
      </trkpt>
      <trkpt lat="47.35698" lon="-1.89179">
        <ele>83.567797</ele>
        <time>2026-09-03T15:35:01.119Z</time>
      </trkpt>
      <trkpt lat="47.35697" lon="-1.89171">
        <ele>83.644993</ele>
        <time>2026-09-03T15:35:02.283Z</time>
      </trkpt>
      <trkpt lat="47.35696" lon="-1.89141">
        <ele>83.911021</ele>
        <time>2026-09-03T15:35:06.246Z</time>
      </trkpt>
      <trkpt lat="47.357" lon="-1.89048">
        <ele>84.755138</ele>
        <time>2026-09-03T15:35:18.552Z</time>
      </trkpt>
      <trkpt lat="47.35697" lon="-1.89028">
        <ele>84.941055</ele>
        <time>2026-09-03T15:35:21.258Z</time>
      </trkpt>
      <trkpt lat="47.35692" lon="-1.89015">
        <ele>85.078388</ele>
        <time>2026-09-03T15:35:23.212Z</time>
      </trkpt>
      <trkpt lat="47.35676" lon="-1.88995">
        <ele>85.360708</ele>
        <time>2026-09-03T15:35:27.155Z</time>
      </trkpt>
      <trkpt lat="47.35664" lon="-1.88997">
        <ele>85.398366</ele>
        <time>2026-09-03T15:35:29.155Z</time>
      </trkpt>
      <trkpt lat="47.35652" lon="-1.88988">
        <ele>85.42161</ele>
        <time>2026-09-03T15:35:31.400Z</time>
      </trkpt>
      <trkpt lat="47.35648" lon="-1.88981">
        <ele>85.433257</ele>
        <time>2026-09-03T15:35:32.512Z</time>
      </trkpt>
      <trkpt lat="47.35645" lon="-1.8897">
        <ele>85.44621</ele>
        <time>2026-09-03T15:35:33.679Z</time>
      </trkpt>
      <trkpt lat="47.35645" lon="-1.8896">
        <ele>85.457927</ele>
        <time>2026-09-03T15:35:34.732Z</time>
      </trkpt>
      <trkpt lat="47.35649" lon="-1.88942">
        <ele>85.481098</ele>
        <time>2026-09-03T15:35:36.714Z</time>
      </trkpt>
      <trkpt lat="47.35654" lon="-1.88935">
        <ele>85.491618</ele>
        <time>2026-09-03T15:35:37.607Z</time>
      </trkpt>
      <trkpt lat="47.35665" lon="-1.88928">
        <ele>85.512619</ele>
        <time>2026-09-03T15:35:39.311Z</time>
      </trkpt>
      <trkpt lat="47.35677" lon="-1.8893">
        <ele>85.533624</ele>
        <time>2026-09-03T15:35:40.957Z</time>
      </trkpt>
      <trkpt lat="47.35682" lon="-1.88935">
        <ele>85.5441</ele>
        <time>2026-09-03T15:35:41.783Z</time>
      </trkpt>
      <trkpt lat="47.35694" lon="-1.88937">
        <ele>85.563866</ele>
        <time>2026-09-03T15:35:43.304Z</time>
      </trkpt>
      <trkpt lat="47.35704" lon="-1.88933">
        <ele>85.581748</ele>
        <time>2026-09-03T15:35:44.659Z</time>
      </trkpt>
      <trkpt lat="47.35715" lon="-1.88922">
        <ele>85.605218</ele>
        <time>2026-09-03T15:35:46.501Z</time>
      </trkpt>
      <trkpt lat="47.35722" lon="-1.88912">
        <ele>85.622172</ele>
        <time>2026-09-03T15:35:47.851Z</time>
      </trkpt>
      <trkpt lat="47.3573" lon="-1.88891">
        <ele>85.649785</ele>
        <time>2026-09-03T15:35:49.980Z</time>
      </trkpt>
      <trkpt lat="47.35735" lon="-1.88865">
        <ele>85.681922</ele>
        <time>2026-09-03T15:35:52.381Z</time>
      </trkpt>
      <trkpt lat="47.35736" lon="-1.88837">
        <ele>85.584899</ele>
        <time>2026-09-03T15:35:54.741Z</time>
      </trkpt>
      <trkpt lat="47.35733" lon="-1.88783">
        <ele>85.287409</ele>
        <time>2026-09-03T15:35:59.382Z</time>
      </trkpt>
      <trkpt lat="47.35739" lon="-1.88782">
        <ele>85.238393</ele>
        <time>2026-09-03T15:36:00.858Z</time>
      </trkpt>
      <trkpt lat="47.35757" lon="-1.88771">
        <ele>85.086578</ele>
        <time>2026-09-03T15:36:05.464Z</time>
      </trkpt>
      <trkpt lat="47.35906" lon="-1.88679">
        <ele>83.429027</ele>
        <time>2026-09-03T15:36:43.182Z</time>
      </trkpt>
      <trkpt lat="47.36532" lon="-1.88304">
        <ele>73.819614</ele>
        <time>2026-09-03T15:39:16.093Z</time>
      </trkpt>
      <trkpt lat="47.36514" lon="-1.88218">
        <ele>73.485755</ele>
        <time>2026-09-03T15:39:30.626Z</time>
      </trkpt>
      <trkpt lat="47.36482" lon="-1.87998">
        <ele>72.490787</ele>
        <time>2026-09-03T15:40:09.079Z</time>
      </trkpt>
      <trkpt lat="47.36481" lon="-1.87974">
        <ele>72.340663</ele>
        <time>2026-09-03T15:40:13.165Z</time>
      </trkpt>
      <trkpt lat="47.36475" lon="-1.8794">
        <ele>72.12921</ele>
        <time>2026-09-03T15:40:18.789Z</time>
      </trkpt>
      <trkpt lat="47.36465" lon="-1.87906">
        <ele>71.903957</ele>
        <time>2026-09-03T15:40:24.619Z</time>
      </trkpt>
      <trkpt lat="47.36446" lon="-1.87849">
        <ele>71.515539</ele>
        <time>2026-09-03T15:40:34.348Z</time>
      </trkpt>
      <trkpt lat="47.364" lon="-1.8773">
        <ele>70.9573</ele>
        <time>2026-09-03T15:40:54.758Z</time>
      </trkpt>
      <trkpt lat="47.3636" lon="-1.87639">
        <ele>70.588215</ele>
        <time>2026-09-03T15:41:12.629Z</time>
      </trkpt>
      <trkpt lat="47.36358" lon="-1.87624">
        <ele>70.536311</ele>
        <time>2026-09-03T15:41:15.706Z</time>
      </trkpt>
      <trkpt lat="47.36372" lon="-1.87579">
        <ele>70.553567</ele>
        <time>2026-09-03T15:41:26.341Z</time>
      </trkpt>
      <trkpt lat="47.3639" lon="-1.87544">
        <ele>71.264633</ele>
        <time>2026-09-03T15:41:36.817Z</time>
      </trkpt>
      <trkpt lat="47.36392" lon="-1.87529">
        <ele>71.512258</ele>
        <time>2026-09-03T15:41:40.645Z</time>
      </trkpt>
      <trkpt lat="47.36386" lon="-1.87478">
        <ele>72.329423</ele>
        <time>2026-09-03T15:41:53.667Z</time>
      </trkpt>
      <trkpt lat="47.36374" lon="-1.87428">
        <ele>73.183144</ele>
        <time>2026-09-03T15:42:07.584Z</time>
      </trkpt>
      <trkpt lat="47.36362" lon="-1.87414">
        <ele>73.553587</ele>
        <time>2026-09-03T15:42:13.536Z</time>
      </trkpt>
      <trkpt lat="47.36339" lon="-1.87407">
        <ele>74.094176</ele>
        <time>2026-09-03T15:42:22.039Z</time>
      </trkpt>
      <trkpt lat="47.36328" lon="-1.87398">
        <ele>74.385223</ele>
        <time>2026-09-03T15:42:26.556Z</time>
      </trkpt>
      <trkpt lat="47.36326" lon="-1.87391">
        <ele>74.516612</ele>
        <time>2026-09-03T15:42:28.558Z</time>
      </trkpt>
      <trkpt lat="47.36331" lon="-1.87382">
        <ele>74.671754</ele>
        <time>2026-09-03T15:42:31.415Z</time>
      </trkpt>
      <trkpt lat="47.36335" lon="-1.87368">
        <ele>74.756627</ele>
        <time>2026-09-03T15:42:34.881Z</time>
      </trkpt>
      <trkpt lat="47.36338" lon="-1.87338">
        <ele>74.92722</ele>
        <time>2026-09-03T15:42:41.548Z</time>
      </trkpt>
      <trkpt lat="47.36332" lon="-1.87333">
        <ele>74.986282</ele>
        <time>2026-09-03T15:42:43.825Z</time>
      </trkpt>
      <trkpt lat="47.36311" lon="-1.87332">
        <ele>75.157932</ele>
        <time>2026-09-03T15:42:50.192Z</time>
      </trkpt>
      <trkpt lat="47.36271" lon="-1.87322">
        <ele>75.5021</ele>
        <time>2026-09-03T15:43:02.358Z</time>
      </trkpt>
      <trkpt lat="47.36259" lon="-1.8732">
        <ele>75.595086</ele>
        <time>2026-09-03T15:43:05.293Z</time>
      </trkpt>
      <trkpt lat="47.36247" lon="-1.87309">
        <ele>75.715091</ele>
        <time>2026-09-03T15:43:09.058Z</time>
      </trkpt>
      <trkpt lat="47.36243" lon="-1.87299">
        <ele>75.785653</ele>
        <time>2026-09-03T15:43:11.302Z</time>
      </trkpt>
      <trkpt lat="47.36245" lon="-1.87289">
        <ele>75.845495</ele>
        <time>2026-09-03T15:43:13.122Z</time>
      </trkpt>
      <trkpt lat="47.36256" lon="-1.87278">
        <ele>75.950746</ele>
        <time>2026-09-03T15:43:16.378Z</time>
      </trkpt>
      <trkpt lat="47.36253" lon="-1.87269">
        <ele>76.008235</ele>
        <time>2026-09-03T15:43:18.172Z</time>
      </trkpt>
      <trkpt lat="47.36244" lon="-1.87255">
        <ele>76.114156</ele>
        <time>2026-09-03T15:43:21.389Z</time>
      </trkpt>
      <trkpt lat="47.36243" lon="-1.87244">
        <ele>76.128551</ele>
        <time>2026-09-03T15:43:23.285Z</time>
      </trkpt>
      <trkpt lat="47.36251" lon="-1.87237">
        <ele>76.073821</ele>
        <time>2026-09-03T15:43:25.692Z</time>
      </trkpt>
      <trkpt lat="47.36257" lon="-1.87226">
        <ele>76.018731</ele>
        <time>2026-09-03T15:43:28.086Z</time>
      </trkpt>
      <trkpt lat="47.36258" lon="-1.87202">
        <ele>75.925059</ele>
        <time>2026-09-03T15:43:32.142Z</time>
      </trkpt>
      <trkpt lat="47.36258" lon="-1.872">
        <ele>75.91651</ele>
        <time>2026-09-03T15:43:32.507Z</time>
      </trkpt>
      <trkpt lat="47.36264" lon="-1.87147">
        <ele>75.709899</ele>
        <time>2026-09-03T15:43:41.376Z</time>
      </trkpt>
      <trkpt lat="47.36274" lon="-1.8711">
        <ele>75.553925</ele>
        <time>2026-09-03T15:43:47.887Z</time>
      </trkpt>
      <trkpt lat="47.36269" lon="-1.87099">
        <ele>75.503416</ele>
        <time>2026-09-03T15:43:49.960Z</time>
      </trkpt>
      <trkpt lat="47.36272" lon="-1.87088">
        <ele>75.458635</ele>
        <time>2026-09-03T15:43:51.810Z</time>
      </trkpt>
      <trkpt lat="47.3629" lon="-1.87079">
        <ele>75.3464</ele>
        <time>2026-09-03T15:43:56.424Z</time>
      </trkpt>
      <trkpt lat="47.36299" lon="-1.87065">
        <ele>75.271843</ele>
        <time>2026-09-03T15:43:59.476Z</time>
      </trkpt>
      <trkpt lat="47.36304" lon="-1.87044">
        <ele>75.186275</ele>
        <time>2026-09-03T15:44:02.999Z</time>
      </trkpt>
      <trkpt lat="47.36303" lon="-1.87021">
        <ele>75.052455</ele>
        <time>2026-09-03T15:44:06.758Z</time>
      </trkpt>
      <trkpt lat="47.36292" lon="-1.86973">
        <ele>74.474324</ele>
        <time>2026-09-03T15:44:14.711Z</time>
      </trkpt>
      <trkpt lat="47.36261" lon="-1.86959">
        <ele>73.919601</ele>
        <time>2026-09-03T15:44:22.722Z</time>
      </trkpt>
      <trkpt lat="47.36236" lon="-1.86964">
        <ele>73.479143</ele>
        <time>2026-09-03T15:44:28.954Z</time>
      </trkpt>
      <trkpt lat="47.36235" lon="-1.86965">
        <ele>73.47054</ele>
        <time>2026-09-03T15:44:29.067Z</time>
      </trkpt>
      <trkpt lat="47.36207" lon="-1.86965">
        <ele>72.999822</ele>
        <time>2026-09-03T15:44:35.688Z</time>
      </trkpt>
      <trkpt lat="47.36195" lon="-1.8697">
        <ele>72.778159</ele>
        <time>2026-09-03T15:44:38.790Z</time>
      </trkpt>
      <trkpt lat="47.36184" lon="-1.86991">
        <ele>72.473024</ele>
        <time>2026-09-03T15:44:42.991Z</time>
      </trkpt>
      <trkpt lat="47.3618" lon="-1.86994">
        <ele>72.385022</ele>
        <time>2026-09-03T15:44:44.177Z</time>
      </trkpt>
      <trkpt lat="47.36093" lon="-1.86929">
        <ele>69.99383</ele>
        <time>2026-09-03T15:45:05.643Z</time>
      </trkpt>
      <trkpt lat="47.36065" lon="-1.86908">
        <ele>69.175915</ele>
        <time>2026-09-03T15:45:12.470Z</time>
      </trkpt>
      <trkpt lat="47.36061" lon="-1.86906">
        <ele>69.050566</ele>
        <time>2026-09-03T15:45:13.528Z</time>
      </trkpt>
      <trkpt lat="47.36056" lon="-1.86904">
        <ele>68.930779</ele>
        <time>2026-09-03T15:45:14.540Z</time>
      </trkpt>
      <trkpt lat="47.36046" lon="-1.86904">
        <ele>68.67167</ele>
        <time>2026-09-03T15:45:16.751Z</time>
      </trkpt>
      <trkpt lat="47.35985" lon="-1.86913">
        <ele>67.358505</ele>
        <time>2026-09-03T15:45:31.055Z</time>
      </trkpt>
      <trkpt lat="47.3596" lon="-1.86915">
        <ele>67.510916</ele>
        <time>2026-09-03T15:45:36.899Z</time>
      </trkpt>
      <trkpt lat="47.35955" lon="-1.86916">
        <ele>67.542562</ele>
        <time>2026-09-03T15:45:38.197Z</time>
      </trkpt>
      <trkpt lat="47.35932" lon="-1.86898">
        <ele>67.705797</ele>
        <time>2026-09-03T15:45:45.440Z</time>
      </trkpt>
      <trkpt lat="47.35925" lon="-1.86896">
        <ele>67.752097</ele>
        <time>2026-09-03T15:45:47.653Z</time>
      </trkpt>
      <trkpt lat="47.35906" lon="-1.86901">
        <ele>67.876956</ele>
        <time>2026-09-03T15:45:53.849Z</time>
      </trkpt>
      <trkpt lat="47.35886" lon="-1.869">
        <ele>68.003829</ele>
        <time>2026-09-03T15:46:00.500Z</time>
      </trkpt>
      <trkpt lat="47.35877" lon="-1.86888">
        <ele>68.078777</ele>
        <time>2026-09-03T15:46:04.365Z</time>
      </trkpt>
      <trkpt lat="47.35864" lon="-1.86878">
        <ele>68.173309</ele>
        <time>2026-09-03T15:46:09.290Z</time>
      </trkpt>
      <trkpt lat="47.35802" lon="-1.86804">
        <ele>68.817318</ele>
        <time>2026-09-03T15:46:35.299Z</time>
      </trkpt>
      <trkpt lat="47.35786" lon="-1.8679">
        <ele>69.010851</ele>
        <time>2026-09-03T15:46:41.650Z</time>
      </trkpt>
      <trkpt lat="47.35795" lon="-1.86767">
        <ele>69.191589</ele>
        <time>2026-09-03T15:46:45.328Z</time>
      </trkpt>
      <trkpt lat="47.35813" lon="-1.86738">
        <ele>69.459935</ele>
        <time>2026-09-03T15:46:50.313Z</time>
      </trkpt>
      <trkpt lat="47.35905" lon="-1.86634">
        <ele>70.11756</ele>
        <time>2026-09-03T15:47:05.865Z</time>
      </trkpt>
      <trkpt lat="47.35935" lon="-1.86603">
        <ele>70.007306</ele>
        <time>2026-09-03T15:47:10.890Z</time>
      </trkpt>
      <trkpt lat="47.35946" lon="-1.86586">
        <ele>69.959945</ele>
        <time>2026-09-03T15:47:12.966Z</time>
      </trkpt>
      <trkpt lat="47.35956" lon="-1.86559">
        <ele>69.897496</ele>
        <time>2026-09-03T15:47:15.616Z</time>
      </trkpt>
      <trkpt lat="47.35964" lon="-1.86508">
        <ele>69.790502</ele>
        <time>2026-09-03T15:47:19.989Z</time>
      </trkpt>
      <trkpt lat="47.35969" lon="-1.86471">
        <ele>69.712997</ele>
        <time>2026-09-03T15:47:23.063Z</time>
      </trkpt>
      <trkpt lat="47.36041" lon="-1.86478">
        <ele>69.985064</ele>
        <time>2026-09-03T15:47:34.087Z</time>
      </trkpt>
      <trkpt lat="47.36056" lon="-1.86479">
        <ele>70.055601</ele>
        <time>2026-09-03T15:47:36.621Z</time>
      </trkpt>
      <trkpt lat="47.36063" lon="-1.8648">
        <ele>70.086804</ele>
        <time>2026-09-03T15:47:37.754Z</time>
      </trkpt>
      <trkpt lat="47.36085" lon="-1.86482">
        <ele>70.18492</ele>
        <time>2026-09-03T15:47:41.463Z</time>
      </trkpt>
      <trkpt lat="47.36088" lon="-1.86479">
        <ele>70.200624</ele>
        <time>2026-09-03T15:47:42.106Z</time>
      </trkpt>
      <trkpt lat="47.36086" lon="-1.8644">
        <ele>70.321717</ele>
        <time>2026-09-03T15:47:47.548Z</time>
      </trkpt>
      <trkpt lat="47.36087" lon="-1.86382">
        <ele>70.499403</ele>
        <time>2026-09-03T15:47:56.067Z</time>
      </trkpt>
      <trkpt lat="47.36111" lon="-1.86383">
        <ele>70.401036</ele>
        <time>2026-09-03T15:48:01.282Z</time>
      </trkpt>
      <trkpt lat="47.36124" lon="-1.86368">
        <ele>70.329665</ele>
        <time>2026-09-03T15:48:04.694Z</time>
      </trkpt>
      <trkpt lat="47.36129" lon="-1.86359">
        <ele>70.294076</ele>
        <time>2026-09-03T15:48:06.432Z</time>
      </trkpt>
      <trkpt lat="47.36131" lon="-1.86343">
        <ele>70.246321</ele>
        <time>2026-09-03T15:48:08.567Z</time>
      </trkpt>
      <trkpt lat="47.36155" lon="-1.86337">
        <ele>70.13902</ele>
        <time>2026-09-03T15:48:12.144Z</time>
      </trkpt>
      <trkpt lat="47.36165" lon="-1.86335">
        <ele>70.09513</ele>
        <time>2026-09-03T15:48:13.458Z</time>
      </trkpt>
      <trkpt lat="47.36254" lon="-1.86312">
        <ele>69.623677</ele>
        <time>2026-09-03T15:48:23.524Z</time>
      </trkpt>
      <trkpt lat="47.36262" lon="-1.86309">
        <ele>69.417845</ele>
        <time>2026-09-03T15:48:24.373Z</time>
      </trkpt>
      <trkpt lat="47.363" lon="-1.86299">
        <ele>68.413993</ele>
        <time>2026-09-03T15:48:28.415Z</time>
      </trkpt>
      <trkpt lat="47.36352" lon="-1.86286">
        <ele>67.087598</ele>
        <time>2026-09-03T15:48:33.851Z</time>
      </trkpt>
      <trkpt lat="47.36352" lon="-1.86279">
        <ele>66.964887</ele>
        <time>2026-09-03T15:48:34.439Z</time>
      </trkpt>
      <trkpt lat="47.36378" lon="-1.86211">
        <ele>65.621057</ele>
        <time>2026-09-03T15:48:40.964Z</time>
      </trkpt>
      <trkpt lat="47.36379" lon="-1.86196">
        <ele>65.360256</ele>
        <time>2026-09-03T15:48:42.220Z</time>
      </trkpt>
      <trkpt lat="47.36377" lon="-1.86183">
        <ele>65.133016</ele>
        <time>2026-09-03T15:48:43.323Z</time>
      </trkpt>
      <trkpt lat="47.36386" lon="-1.86113">
        <ele>63.86265</ele>
        <time>2026-09-03T15:48:53.443Z</time>
      </trkpt>
      <trkpt lat="47.36392" lon="-1.86094">
        <ele>63.490332</ele>
        <time>2026-09-03T15:48:56.392Z</time>
      </trkpt>
      <trkpt lat="47.364" lon="-1.8608">
        <ele>63.162544</ele>
        <time>2026-09-03T15:48:59.013Z</time>
      </trkpt>
      <trkpt lat="47.3643" lon="-1.86054">
        <ele>62.259596</ele>
        <time>2026-09-03T15:49:06.208Z</time>
      </trkpt>
      <trkpt lat="47.36449" lon="-1.86019">
        <ele>61.470405</ele>
        <time>2026-09-03T15:49:12.532Z</time>
      </trkpt>
      <trkpt lat="47.36459" lon="-1.86002">
        <ele>61.061762</ele>
        <time>2026-09-03T15:49:15.844Z</time>
      </trkpt>
      <trkpt lat="47.36494" lon="-1.85954">
        <ele>60.409752</ele>
        <time>2026-09-03T15:49:26.339Z</time>
      </trkpt>
      <trkpt lat="47.36544" lon="-1.85895">
        <ele>60.401503</ele>
        <time>2026-09-03T15:49:41.608Z</time>
      </trkpt>
      <trkpt lat="47.3658" lon="-1.85862">
        <ele>60.39616</ele>
        <time>2026-09-03T15:49:52.873Z</time>
      </trkpt>
      <trkpt lat="47.36591" lon="-1.85852">
        <ele>60.394373</ele>
        <time>2026-09-03T15:49:56.999Z</time>
      </trkpt>
      <trkpt lat="47.3664" lon="-1.85815">
        <ele>60.827022</ele>
        <time>2026-09-03T15:50:14.502Z</time>
      </trkpt>
      <trkpt lat="47.36726" lon="-1.85689">
        <ele>63.786621</ele>
        <time>2026-09-03T15:50:56.565Z</time>
      </trkpt>
      <trkpt lat="47.36749" lon="-1.85659">
        <ele>64.55617</ele>
        <time>2026-09-03T15:51:07.676Z</time>
      </trkpt>
      <trkpt lat="47.3677" lon="-1.8564">
        <ele>65.106069</ele>
        <time>2026-09-03T15:51:16.138Z</time>
      </trkpt>
      <trkpt lat="47.36815" lon="-1.85613">
        <ele>66.185874</ele>
        <time>2026-09-03T15:51:33.319Z</time>
      </trkpt>
      <trkpt lat="47.36852" lon="-1.85614">
        <ele>67.005563</ele>
        <time>2026-09-03T15:51:45.623Z</time>
      </trkpt>
      <trkpt lat="47.36889" lon="-1.85605">
        <ele>67.822608</ele>
        <time>2026-09-03T15:51:57.499Z</time>
      </trkpt>
      <trkpt lat="47.36929" lon="-1.85587">
        <ele>68.760376</ele>
        <time>2026-09-03T15:52:10.946Z</time>
      </trkpt>
      <trkpt lat="47.36974" lon="-1.85568">
        <ele>68.984249</ele>
        <time>2026-09-03T15:52:25.967Z</time>
      </trkpt>
      <trkpt lat="47.37051" lon="-1.85541">
        <ele>69.354855</ele>
        <time>2026-09-03T15:52:49.264Z</time>
      </trkpt>
      <trkpt lat="47.37083" lon="-1.8554">
        <ele>69.507888</ele>
        <time>2026-09-03T15:52:57.269Z</time>
      </trkpt>
      <trkpt lat="47.37088" lon="-1.8553">
        <ele>69.543675</ele>
        <time>2026-09-03T15:52:59.083Z</time>
      </trkpt>
      <trkpt lat="47.37087" lon="-1.85513">
        <ele>69.598024</ele>
        <time>2026-09-03T15:53:01.742Z</time>
      </trkpt>
      <trkpt lat="47.37059" lon="-1.85344">
        <ele>66.639605</ele>
        <time>2026-09-03T15:53:26.526Z</time>
      </trkpt>
      <trkpt lat="47.37067" lon="-1.8534">
        <ele>66.411354</ele>
        <time>2026-09-03T15:53:28.306Z</time>
      </trkpt>
      <trkpt lat="47.37163" lon="-1.85197">
        <ele>62.533103</ele>
        <time>2026-09-03T15:53:56.787Z</time>
      </trkpt>
      <trkpt lat="47.37172" lon="-1.85188">
        <ele>62.205304</ele>
        <time>2026-09-03T15:53:59.105Z</time>
      </trkpt>
      <trkpt lat="47.37159" lon="-1.85162">
        <ele>61.549339</ele>
        <time>2026-09-03T15:54:01.723Z</time>
      </trkpt>
      <trkpt lat="47.37156" lon="-1.85141">
        <ele>61.104952</ele>
        <time>2026-09-03T15:54:03.466Z</time>
      </trkpt>
      <trkpt lat="47.37159" lon="-1.85122">
        <ele>60.708064</ele>
        <time>2026-09-03T15:54:05.007Z</time>
      </trkpt>
      <trkpt lat="47.37179" lon="-1.85077">
        <ele>59.600601</ele>
        <time>2026-09-03T15:54:09.330Z</time>
      </trkpt>
      <trkpt lat="47.37181" lon="-1.85068">
        <ele>59.485611</ele>
        <time>2026-09-03T15:54:10.095Z</time>
      </trkpt>
      <trkpt lat="47.37179" lon="-1.85048">
        <ele>59.385849</ele>
        <time>2026-09-03T15:54:11.743Z</time>
      </trkpt>
      <trkpt lat="47.37175" lon="-1.85036">
        <ele>59.316391</ele>
        <time>2026-09-03T15:54:12.891Z</time>
      </trkpt>
      <trkpt lat="47.37163" lon="-1.85019">
        <ele>59.196898</ele>
        <time>2026-09-03T15:54:14.900Z</time>
      </trkpt>
      <trkpt lat="47.37158" lon="-1.85004">
        <ele>59.117887</ele>
        <time>2026-09-03T15:54:16.237Z</time>
      </trkpt>
      <trkpt lat="47.37155" lon="-1.84981">
        <ele>58.999917</ele>
        <time>2026-09-03T15:54:18.315Z</time>
      </trkpt>
      <trkpt lat="47.37156" lon="-1.84968">
        <ele>58.93591</ele>
        <time>2026-09-03T15:54:19.547Z</time>
      </trkpt>
      <trkpt lat="47.37156" lon="-1.84962">
        <ele>58.9077</ele>
        <time>2026-09-03T15:54:20.071Z</time>
      </trkpt>
      <trkpt lat="47.37162" lon="-1.84951">
        <ele>58.839595</ele>
        <time>2026-09-03T15:54:21.409Z</time>
      </trkpt>
      <trkpt lat="47.37169" lon="-1.84944">
        <ele>58.778079</ele>
        <time>2026-09-03T15:54:22.610Z</time>
      </trkpt>
      <trkpt lat="47.37223" lon="-1.84891">
        <ele>58.304935</ele>
        <time>2026-09-03T15:54:33.983Z</time>
      </trkpt>
      <trkpt lat="47.37254" lon="-1.84873">
        <ele>58.836076</ele>
        <time>2026-09-03T15:54:42.177Z</time>
      </trkpt>
      <trkpt lat="47.37273" lon="-1.84865">
        <ele>59.498116</ele>
        <time>2026-09-03T15:54:47.565Z</time>
      </trkpt>
      <trkpt lat="47.37416" lon="-1.84853">
        <ele>64.177728</ele>
        <time>2026-09-03T15:55:30.348Z</time>
      </trkpt>
      <trkpt lat="47.37452" lon="-1.8485">
        <ele>64.710477</ele>
        <time>2026-09-03T15:55:44.040Z</time>
      </trkpt>
      <trkpt lat="47.37473" lon="-1.84845">
        <ele>65.026834</ele>
        <time>2026-09-03T15:55:51.862Z</time>
      </trkpt>
      <trkpt lat="47.37555" lon="-1.84779">
        <ele>66.413493</ele>
        <time>2026-09-03T15:56:19.218Z</time>
      </trkpt>
      <trkpt lat="47.3757" lon="-1.84763">
        <ele>66.700071</ele>
        <time>2026-09-03T15:56:23.811Z</time>
      </trkpt>
      <trkpt lat="47.37599" lon="-1.84674">
        <ele>66.226835</ele>
        <time>2026-09-03T15:56:39.211Z</time>
      </trkpt>
      <trkpt lat="47.37614" lon="-1.84634">
        <ele>65.916378</ele>
        <time>2026-09-03T15:56:46.104Z</time>
      </trkpt>
      <trkpt lat="47.37663" lon="-1.84554">
        <ele>65.173417</ele>
        <time>2026-09-03T15:57:02.946Z</time>
      </trkpt>
      <trkpt lat="47.37698" lon="-1.8449">
        <ele>64.311587</ele>
        <time>2026-09-03T15:57:16.293Z</time>
      </trkpt>
      <trkpt lat="47.37717" lon="-1.84469">
        <ele>63.868743</ele>
        <time>2026-09-03T15:57:22.270Z</time>
      </trkpt>
      <trkpt lat="47.37755" lon="-1.84437">
        <ele>63.074792</ele>
        <time>2026-09-03T15:57:32.428Z</time>
      </trkpt>
      <trkpt lat="47.37803" lon="-1.84402">
        <ele>62.116828</ele>
        <time>2026-09-03T15:57:43.799Z</time>
      </trkpt>
      <trkpt lat="47.37813" lon="-1.84398">
        <ele>61.922351</ele>
        <time>2026-09-03T15:57:46.012Z</time>
      </trkpt>
      <trkpt lat="47.37769" lon="-1.84312">
        <ele>58.729719</ele>
        <time>2026-09-03T15:57:54.344Z</time>
      </trkpt>
      <trkpt lat="47.3776" lon="-1.84284">
        <ele>57.702904</ele>
        <time>2026-09-03T15:57:56.689Z</time>
      </trkpt>
      <trkpt lat="47.37745" lon="-1.84209">
        <ele>55.177818</ele>
        <time>2026-09-03T15:58:02.387Z</time>
      </trkpt>
      <trkpt lat="47.37737" lon="-1.84186">
        <ele>54.335435</ele>
        <time>2026-09-03T15:58:04.290Z</time>
      </trkpt>
      <trkpt lat="47.37713" lon="-1.84151">
        <ele>52.971872</ele>
        <time>2026-09-03T15:58:08.046Z</time>
      </trkpt>
      <trkpt lat="47.37657" lon="-1.84086">
        <ele>51.839284</ele>
        <time>2026-09-03T15:58:22.232Z</time>
      </trkpt>
      <trkpt lat="47.37654" lon="-1.84082">
        <ele>51.779492</ele>
        <time>2026-09-03T15:58:23.025Z</time>
      </trkpt>
      <trkpt lat="47.37644" lon="-1.84066">
        <ele>51.545717</ele>
        <time>2026-09-03T15:58:26.230Z</time>
      </trkpt>
      <trkpt lat="47.37636" lon="-1.84035">
        <ele>51.18716</ele>
        <time>2026-09-03T15:58:31.449Z</time>
      </trkpt>
      <trkpt lat="47.37633" lon="-1.84016">
        <ele>50.976089</ele>
        <time>2026-09-03T15:58:34.780Z</time>
      </trkpt>
      <trkpt lat="47.37637" lon="-1.83981">
        <ele>50.5881</ele>
        <time>2026-09-03T15:58:41.664Z</time>
      </trkpt>
      <trkpt lat="47.37649" lon="-1.83928">
        <ele>50.987505</ele>
        <time>2026-09-03T15:58:54.433Z</time>
      </trkpt>
      <trkpt lat="47.37655" lon="-1.83844">
        <ele>53.785855</ele>
        <time>2026-09-03T15:59:18.506Z</time>
      </trkpt>
      <trkpt lat="47.37656" lon="-1.83795">
        <ele>55.393214</ele>
        <time>2026-09-03T15:59:34.042Z</time>
      </trkpt>
      <trkpt lat="47.37669" lon="-1.83602">
        <ele>61.05229</ele>
        <time>2026-09-03T16:00:36.168Z</time>
      </trkpt>
      <trkpt lat="47.37655" lon="-1.83591">
        <ele>61.638422</ele>
        <time>2026-09-03T16:00:42.761Z</time>
      </trkpt>
      <trkpt lat="47.37625" lon="-1.83576">
        <ele>62.756505</ele>
        <time>2026-09-03T16:00:54.597Z</time>
      </trkpt>
      <trkpt lat="47.37598" lon="-1.8357">
        <ele>63.72945</ele>
        <time>2026-09-03T16:01:04.106Z</time>
      </trkpt>
      <trkpt lat="47.37564" lon="-1.83574">
        <ele>64.969484</ele>
        <time>2026-09-03T16:01:15.139Z</time>
      </trkpt>
      <trkpt lat="47.37548" lon="-1.83571">
        <ele>65.462188</ele>
        <time>2026-09-03T16:01:19.843Z</time>
      </trkpt>
      <trkpt lat="47.37526" lon="-1.83561">
        <ele>65.570282</ele>
        <time>2026-09-03T16:01:25.967Z</time>
      </trkpt>
      <trkpt lat="47.37493" lon="-1.83538">
        <ele>65.751127</ele>
        <time>2026-09-03T16:01:35.745Z</time>
      </trkpt>
      <trkpt lat="47.37457" lon="-1.83527">
        <ele>65.927325</ele>
        <time>2026-09-03T16:01:45.210Z</time>
      </trkpt>
      <trkpt lat="47.37426" lon="-1.83523">
        <ele>66.075492</ele>
        <time>2026-09-03T16:01:53.205Z</time>
      </trkpt>
      <trkpt lat="47.3739" lon="-1.83524">
        <ele>66.249769</ele>
        <time>2026-09-03T16:02:02.590Z</time>
      </trkpt>
      <trkpt lat="47.37252" lon="-1.83503">
        <ele>67.007285</ele>
        <time>2026-09-03T16:02:40.689Z</time>
      </trkpt>
      <trkpt lat="47.37246" lon="-1.83499">
        <ele>67.03854</ele>
        <time>2026-09-03T16:02:42.292Z</time>
      </trkpt>
      <trkpt lat="47.37196" lon="-1.83509">
        <ele>67.323864</ele>
        <time>2026-09-03T16:02:56.306Z</time>
      </trkpt>
      <trkpt lat="47.37125" lon="-1.83515">
        <ele>68.080816</ele>
        <time>2026-09-03T16:03:16.067Z</time>
      </trkpt>
      <trkpt lat="47.37005" lon="-1.83509">
        <ele>69.562789</ele>
        <time>2026-09-03T16:03:51.784Z</time>
      </trkpt>
      <trkpt lat="47.3697" lon="-1.83519">
        <ele>70.45247</ele>
        <time>2026-09-03T16:04:03.517Z</time>
      </trkpt>
      <trkpt lat="47.36903" lon="-1.83537">
        <ele>72.189408</ele>
        <time>2026-09-03T16:04:28.055Z</time>
      </trkpt>
      <trkpt lat="47.36898" lon="-1.83538">
        <ele>72.30748</ele>
        <time>2026-09-03T16:04:29.781Z</time>
      </trkpt>
      <trkpt lat="47.36816" lon="-1.83546">
        <ele>74.286974</ele>
        <time>2026-09-03T16:04:59.914Z</time>
      </trkpt>
      <trkpt lat="47.36675" lon="-1.83552">
        <ele>77.302695</ele>
        <time>2026-09-03T16:05:47.564Z</time>
      </trkpt>
      <trkpt lat="47.366" lon="-1.83558">
        <ele>77.281422</ele>
        <time>2026-09-03T16:06:07.693Z</time>
      </trkpt>
      <trkpt lat="47.36451" lon="-1.83539">
        <ele>76.478761</ele>
        <time>2026-09-03T16:06:28.100Z</time>
      </trkpt>
      <trkpt lat="47.3638" lon="-1.83489">
        <ele>76.066129</ele>
        <time>2026-09-03T16:06:39.172Z</time>
      </trkpt>
      <trkpt lat="47.36357" lon="-1.83476">
        <ele>75.936463</ele>
        <time>2026-09-03T16:06:42.965Z</time>
      </trkpt>
      <trkpt lat="47.36336" lon="-1.83474">
        <ele>75.82572</ele>
        <time>2026-09-03T16:06:46.333Z</time>
      </trkpt>
      <trkpt lat="47.36131" lon="-1.83474">
        <ele>77.01472</ele>
        <time>2026-09-03T16:07:24.650Z</time>
      </trkpt>
      <trkpt lat="47.35943" lon="-1.83497">
        <ele>78.750072</ele>
        <time>2026-09-03T16:08:00.357Z</time>
      </trkpt>
      <trkpt lat="47.35936" lon="-1.83502">
        <ele>78.853866</ele>
        <time>2026-09-03T16:08:01.923Z</time>
      </trkpt>
      <trkpt lat="47.35876" lon="-1.83395">
        <ele>80.106156</ele>
        <time>2026-09-03T16:08:21.929Z</time>
      </trkpt>
      <trkpt lat="47.35819" lon="-1.83276">
        <ele>81.2611</ele>
        <time>2026-09-03T16:08:42.889Z</time>
      </trkpt>
      <trkpt lat="47.35744" lon="-1.83137">
        <ele>82.243683</ele>
        <time>2026-09-03T16:09:05.590Z</time>
      </trkpt>
      <trkpt lat="47.35598" lon="-1.82889">
        <ele>82.766395</ele>
        <time>2026-09-03T16:09:42.310Z</time>
      </trkpt>
      <trkpt lat="47.35588" lon="-1.82901">
        <ele>82.728359</ele>
        <time>2026-09-03T16:09:44.374Z</time>
      </trkpt>
      <trkpt lat="47.35269" lon="-1.83129">
        <ele>81.810436</ele>
        <time>2026-09-03T16:10:37.696Z</time>
      </trkpt>
      <trkpt lat="47.3507" lon="-1.83268">
        <ele>83.052586</ele>
        <time>2026-09-03T16:11:17.529Z</time>
      </trkpt>
      <trkpt lat="47.34985" lon="-1.83323">
        <ele>83.860139</ele>
        <time>2026-09-03T16:11:35.958Z</time>
      </trkpt>
      <trkpt lat="47.34949" lon="-1.83342">
        <ele>84.137841</ele>
        <time>2026-09-03T16:11:43.284Z</time>
      </trkpt>
      <trkpt lat="47.34922" lon="-1.83339">
        <ele>84.247606</ele>
        <time>2026-09-03T16:11:48.407Z</time>
      </trkpt>
      <trkpt lat="47.34833" lon="-1.83329">
        <ele>84.599862</ele>
        <time>2026-09-03T16:12:03.825Z</time>
      </trkpt>
      <trkpt lat="47.34506" lon="-1.83308">
        <ele>84.967212</ele>
        <time>2026-09-03T16:12:56.162Z</time>
      </trkpt>
      <trkpt lat="47.34386" lon="-1.83297">
        <ele>85.152259</ele>
        <time>2026-09-03T16:13:15.849Z</time>
      </trkpt>
      <trkpt lat="47.34231" lon="-1.83275">
        <ele>85.584282</ele>
        <time>2026-09-03T16:13:42.346Z</time>
      </trkpt>
      <trkpt lat="47.34223" lon="-1.83268">
        <ele>85.614904</ele>
        <time>2026-09-03T16:13:43.971Z</time>
      </trkpt>
      <trkpt lat="47.34219" lon="-1.83256">
        <ele>85.642798</ele>
        <time>2026-09-03T16:13:45.441Z</time>
      </trkpt>
      <trkpt lat="47.34216" lon="-1.83182">
        <ele>85.805928</ele>
        <time>2026-09-03T16:13:53.976Z</time>
      </trkpt>
      <trkpt lat="47.34212" lon="-1.83142">
        <ele>85.89411</ele>
        <time>2026-09-03T16:13:58.552Z</time>
      </trkpt>
      <trkpt lat="47.342" lon="-1.83075">
        <ele>86.046972</ele>
        <time>2026-09-03T16:14:06.624Z</time>
      </trkpt>
      <trkpt lat="47.34187" lon="-1.83043">
        <ele>86.126492</ele>
        <time>2026-09-03T16:14:10.940Z</time>
      </trkpt>
      <trkpt lat="47.34191" lon="-1.83025">
        <ele>86.184733</ele>
        <time>2026-09-03T16:14:13.225Z</time>
      </trkpt>
      <trkpt lat="47.34185" lon="-1.82961">
        <ele>86.38402</ele>
        <time>2026-09-03T16:14:20.921Z</time>
      </trkpt>
      <trkpt lat="47.34146" lon="-1.82966">
        <ele>86.559681</ele>
        <time>2026-09-03T16:14:27.644Z</time>
      </trkpt>
      <trkpt lat="47.34141" lon="-1.82963">
        <ele>86.584649</ele>
        <time>2026-09-03T16:14:28.609Z</time>
      </trkpt>
      <trkpt lat="47.34124" lon="-1.82932">
        <ele>86.706879</ele>
        <time>2026-09-03T16:14:33.539Z</time>
      </trkpt>
      <trkpt lat="47.34117" lon="-1.82929">
        <ele>86.740903</ele>
        <time>2026-09-03T16:14:34.936Z</time>
      </trkpt>
      <trkpt lat="47.34074" lon="-1.8294">
        <ele>86.939216</ele>
        <time>2026-09-03T16:14:42.831Z</time>
      </trkpt>
      <trkpt lat="47.34063" lon="-1.82952">
        <ele>86.843445</ele>
        <time>2026-09-03T16:14:45.152Z</time>
      </trkpt>
      <trkpt lat="47.34062" lon="-1.82966">
        <ele>86.766493</ele>
        <time>2026-09-03T16:14:46.825Z</time>
      </trkpt>
      <trkpt lat="47.34068" lon="-1.83033">
        <ele>86.414441</ele>
        <time>2026-09-03T16:14:53.975Z</time>
      </trkpt>
      <trkpt lat="47.33588" lon="-1.82791">
        <ele>82.472409</ele>
        <time>2026-09-03T16:16:05.210Z</time>
      </trkpt>
      <trkpt lat="47.33658" lon="-1.82511">
        <ele>82.223094</ele>
        <time>2026-09-03T16:16:35.638Z</time>
      </trkpt>
      <trkpt lat="47.33468" lon="-1.8242">
        <ele>80.508744</ele>
        <time>2026-09-03T16:17:23.075Z</time>
      </trkpt>
      <trkpt lat="47.33461" lon="-1.82411">
        <ele>80.369207</ele>
        <time>2026-09-03T16:17:25.098Z</time>
      </trkpt>
      <trkpt lat="47.33456" lon="-1.82416">
        <ele>80.276241</ele>
        <time>2026-09-03T16:17:25.886Z</time>
      </trkpt>
      <trkpt lat="47.3344" lon="-1.8242">
        <ele>80.022293</ele>
        <time>2026-09-03T16:17:28.055Z</time>
      </trkpt>
      <trkpt lat="47.33373" lon="-1.82419">
        <ele>78.995597</ele>
        <time>2026-09-03T16:17:36.576Z</time>
      </trkpt>
      <trkpt lat="47.33282" lon="-1.82441">
        <ele>76.712082</ele>
        <time>2026-09-03T16:17:48.102Z</time>
      </trkpt>
      <trkpt lat="47.33227" lon="-1.82369">
        <ele>74.895976</ele>
        <time>2026-09-03T16:18:03.557Z</time>
      </trkpt>
      <trkpt lat="47.33219" lon="-1.82337">
        <ele>74.438948</ele>
        <time>2026-09-03T16:18:08.497Z</time>
      </trkpt>
      <trkpt lat="47.33181" lon="-1.82261">
        <ele>73.913425</ele>
        <time>2026-09-03T16:18:22.375Z</time>
      </trkpt>
      <trkpt lat="47.33134" lon="-1.82189">
        <ele>73.350282</ele>
        <time>2026-09-03T16:18:38.678Z</time>
      </trkpt>
      <trkpt lat="47.33085" lon="-1.8214">
        <ele>73.430828</ele>
        <time>2026-09-03T16:18:55.894Z</time>
      </trkpt>
      <trkpt lat="47.33072" lon="-1.82118">
        <ele>73.860489</ele>
        <time>2026-09-03T16:19:02.189Z</time>
      </trkpt>
      <trkpt lat="47.33068" lon="-1.821">
        <ele>74.148769</ele>
        <time>2026-09-03T16:19:06.534Z</time>
      </trkpt>
      <trkpt lat="47.3303" lon="-1.82022">
        <ele>75.593386</ele>
        <time>2026-09-03T16:19:29.644Z</time>
      </trkpt>
      <trkpt lat="47.33024" lon="-1.82002">
        <ele>75.922899</ele>
        <time>2026-09-03T16:19:34.892Z</time>
      </trkpt>
      <trkpt lat="47.33019" lon="-1.81972">
        <ele>76.384884</ele>
        <time>2026-09-03T16:19:42.179Z</time>
      </trkpt>
      <trkpt lat="47.33013" lon="-1.81903">
        <ele>77.341557</ele>
        <time>2026-09-03T16:19:58.506Z</time>
      </trkpt>
      <trkpt lat="47.3301" lon="-1.81813">
        <ele>78.358592</ele>
        <time>2026-09-03T16:20:18.262Z</time>
      </trkpt>
      <trkpt lat="47.32984" lon="-1.81556">
        <ele>80.808742</ele>
        <time>2026-09-03T16:21:11.105Z</time>
      </trkpt>
      <trkpt lat="47.32982" lon="-1.81529">
        <ele>80.987616</ele>
        <time>2026-09-03T16:21:16.221Z</time>
      </trkpt>
      <trkpt lat="47.32982" lon="-1.81518">
        <ele>81.062494</ele>
        <time>2026-09-03T16:21:18.377Z</time>
      </trkpt>
      <trkpt lat="47.33" lon="-1.81508">
        <ele>81.255301</ele>
        <time>2026-09-03T16:21:21.993Z</time>
      </trkpt>
      <trkpt lat="47.33" lon="-1.81489">
        <ele>81.386138</ele>
        <time>2026-09-03T16:21:25.730Z</time>
      </trkpt>
      <trkpt lat="47.33002" lon="-1.81359">
        <ele>82.135163</ele>
        <time>2026-09-03T16:21:50.534Z</time>
      </trkpt>
      <trkpt lat="47.32999" lon="-1.81329">
        <ele>82.274639</ele>
        <time>2026-09-03T16:21:56.339Z</time>
      </trkpt>
      <trkpt lat="47.32936" lon="-1.81124">
        <ele>83.039648</ele>
        <time>2026-09-03T16:22:39.185Z</time>
      </trkpt>
      <trkpt lat="47.32909" lon="-1.81025">
        <ele>82.955249</ele>
        <time>2026-09-03T16:22:57.458Z</time>
      </trkpt>
      <trkpt lat="47.32889" lon="-1.80933">
        <ele>82.878796</ele>
        <time>2026-09-03T16:23:13.215Z</time>
      </trkpt>
      <trkpt lat="47.32884" lon="-1.80937">
        <ele>82.872453</ele>
        <time>2026-09-03T16:23:14.484Z</time>
      </trkpt>
      <trkpt lat="47.32808" lon="-1.80934">
        <ele>82.171272</ele>
        <time>2026-09-03T16:23:25.118Z</time>
      </trkpt>
      <trkpt lat="47.32714" lon="-1.80958">
        <ele>81.276248</ele>
        <time>2026-09-03T16:23:38.369Z</time>
      </trkpt>
      <trkpt lat="47.32693" lon="-1.80963">
        <ele>81.238832</ele>
        <time>2026-09-03T16:23:41.450Z</time>
      </trkpt>
      <trkpt lat="47.32697" lon="-1.80986">
        <ele>81.295557</ele>
        <time>2026-09-03T16:23:43.832Z</time>
      </trkpt>
      <trkpt lat="47.32688" lon="-1.8099">
        <ele>81.329884</ele>
        <time>2026-09-03T16:23:46.218Z</time>
      </trkpt>
      <trkpt lat="47.32677" lon="-1.80987">
        <ele>81.369756</ele>
        <time>2026-09-03T16:23:49.027Z</time>
      </trkpt>
      <trkpt lat="47.32648" lon="-1.81">
        <ele>81.475581</ele>
        <time>2026-09-03T16:23:56.741Z</time>
      </trkpt>
      <trkpt lat="47.32633" lon="-1.81002">
        <ele>81.529112</ele>
        <time>2026-09-03T16:24:00.778Z</time>
      </trkpt>
      <trkpt lat="47.32534" lon="-1.80991">
        <ele>81.96338</ele>
        <time>2026-09-03T16:24:29.937Z</time>
      </trkpt>
      <trkpt lat="47.32487" lon="-1.80992">
        <ele>82.390185</ele>
        <time>2026-09-03T16:24:43.722Z</time>
      </trkpt>
      <trkpt lat="47.32157" lon="-1.8098">
        <ele>85.123904</ele>
        <time>2026-09-03T16:26:17.354Z</time>
      </trkpt>
      <trkpt lat="47.32146" lon="-1.8097">
        <ele>85.210096</ele>
        <time>2026-09-03T16:26:20.893Z</time>
      </trkpt>
      <trkpt lat="47.32107" lon="-1.8089">
        <ele>85.645926</ele>
        <time>2026-09-03T16:26:39.034Z</time>
      </trkpt>
      <trkpt lat="47.32105" lon="-1.80879">
        <ele>85.695174</ele>
        <time>2026-09-03T16:26:41.109Z</time>
      </trkpt>
      <trkpt lat="47.32096" lon="-1.80851">
        <ele>85.835594</ele>
        <time>2026-09-03T16:26:47.066Z</time>
      </trkpt>
      <trkpt lat="47.32034" lon="-1.80694">
        <ele>86.453798</ele>
        <time>2026-09-03T16:27:21.519Z</time>
      </trkpt>
      <trkpt lat="47.32042" lon="-1.80685">
        <ele>86.496654</ele>
        <time>2026-09-03T16:27:23.110Z</time>
      </trkpt>
      <trkpt lat="47.32046" lon="-1.80655">
        <ele>86.58614</ele>
        <time>2026-09-03T16:27:28.788Z</time>
      </trkpt>
      <trkpt lat="47.32074" lon="-1.8051">
        <ele>86.892033</ele>
        <time>2026-09-03T16:27:54.930Z</time>
      </trkpt>
      <trkpt lat="47.32086" lon="-1.80448">
        <ele>86.913558</ele>
        <time>2026-09-03T16:28:05.923Z</time>
      </trkpt>
      <trkpt lat="47.32094" lon="-1.80436">
        <ele>86.918878</ele>
        <time>2026-09-03T16:28:08.659Z</time>
      </trkpt>
      <trkpt lat="47.32135" lon="-1.80397">
        <ele>86.942806</ele>
        <time>2026-09-03T16:28:21.227Z</time>
      </trkpt>
      <trkpt lat="47.32172" lon="-1.80376">
        <ele>86.961962</ele>
        <time>2026-09-03T16:28:31.389Z</time>
      </trkpt>
      <trkpt lat="47.32239" lon="-1.80345">
        <ele>87.38697</ele>
        <time>2026-09-03T16:28:50.246Z</time>
      </trkpt>
      <trkpt lat="47.32279" lon="-1.8032">
        <ele>87.652848</ele>
        <time>2026-09-03T16:29:02.372Z</time>
      </trkpt>
      <trkpt lat="47.32316" lon="-1.80293">
        <ele>87.912634</ele>
        <time>2026-09-03T16:29:10.245Z</time>
      </trkpt>
      <trkpt lat="47.32303" lon="-1.80224">
        <ele>88.302504</ele>
        <time>2026-09-03T16:29:19.335Z</time>
      </trkpt>
      <trkpt lat="47.32305" lon="-1.80216">
        <ele>88.358496</ele>
        <time>2026-09-03T16:29:20.449Z</time>
      </trkpt>
      <trkpt lat="47.32359" lon="-1.80167">
        <ele>88.985868</ele>
        <time>2026-09-03T16:29:33.382Z</time>
      </trkpt>
      <trkpt lat="47.32393" lon="-1.80145">
        <ele>89.364187</ele>
        <time>2026-09-03T16:29:40.886Z</time>
      </trkpt>
      <trkpt lat="47.32407" lon="-1.80078">
        <ele>89.844064</ele>
        <time>2026-09-03T16:29:48.998Z</time>
      </trkpt>
      <trkpt lat="47.32363" lon="-1.80028">
        <ele>89.880273</ele>
        <time>2026-09-03T16:29:59.408Z</time>
      </trkpt>
      <trkpt lat="47.32345" lon="-1.80002">
        <ele>89.886338</ele>
        <time>2026-09-03T16:30:03.641Z</time>
      </trkpt>
      <trkpt lat="47.32378" lon="-1.79943">
        <ele>89.899116</ele>
        <time>2026-09-03T16:30:16.555Z</time>
      </trkpt>
      <trkpt lat="47.32462" lon="-1.79812">
        <ele>89.37345</ele>
        <time>2026-09-03T16:30:45.637Z</time>
      </trkpt>
      <trkpt lat="47.32409" lon="-1.7974">
        <ele>88.838958</ele>
        <time>2026-09-03T16:31:02.841Z</time>
      </trkpt>
      <trkpt lat="47.32392" lon="-1.79708">
        <ele>88.636324</ele>
        <time>2026-09-03T16:31:09.337Z</time>
      </trkpt>
      <trkpt lat="47.3235" lon="-1.79721">
        <ele>88.314964</ele>
        <time>2026-09-03T16:31:19.570Z</time>
      </trkpt>
      <trkpt lat="47.32207" lon="-1.79781">
        <ele>87.232888</ele>
        <time>2026-09-03T16:31:54.802Z</time>
      </trkpt>
      <trkpt lat="47.32188" lon="-1.79675">
        <ele>87.039946</ele>
        <time>2026-09-03T16:32:13.236Z</time>
      </trkpt>
      <trkpt lat="47.32182" lon="-1.7964">
        <ele>86.975938</ele>
        <time>2026-09-03T16:32:19.396Z</time>
      </trkpt>
      <trkpt lat="47.3218" lon="-1.79608">
        <ele>86.920635</ele>
        <time>2026-09-03T16:32:24.765Z</time>
      </trkpt>
      <trkpt lat="47.3218" lon="-1.79547">
        <ele>86.812462</ele>
        <time>2026-09-03T16:32:35.269Z</time>
      </trkpt>
      <trkpt lat="47.3218" lon="-1.79518">
        <ele>86.740054</ele>
        <time>2026-09-03T16:32:40.166Z</time>
      </trkpt>
      <trkpt lat="47.32175" lon="-1.7949">
        <ele>86.604782</ele>
        <time>2026-09-03T16:32:45.025Z</time>
      </trkpt>
      <trkpt lat="47.32169" lon="-1.79478">
        <ele>86.532239</ele>
        <time>2026-09-03T16:32:47.620Z</time>
      </trkpt>
      <trkpt lat="47.32128" lon="-1.79475">
        <ele>86.252554</ele>
        <time>2026-09-03T16:32:57.460Z</time>
      </trkpt>
      <trkpt lat="47.32123" lon="-1.7947">
        <ele>86.209332</ele>
        <time>2026-09-03T16:32:58.963Z</time>
      </trkpt>
      <trkpt lat="47.32096" lon="-1.79503">
        <ele>85.969874</ele>
        <time>2026-09-03T16:33:07.265Z</time>
      </trkpt>
      <trkpt lat="47.32064" lon="-1.79537">
        <ele>85.696105</ele>
        <time>2026-09-03T16:33:16.679Z</time>
      </trkpt>
      <trkpt lat="47.32003" lon="-1.79583">
        <ele>84.698462</ele>
        <time>2026-09-03T16:33:32.188Z</time>
      </trkpt>
      <trkpt lat="47.31988" lon="-1.79589">
        <ele>84.391301</ele>
        <time>2026-09-03T16:33:35.787Z</time>
      </trkpt>
      <trkpt lat="47.31945" lon="-1.7959">
        <ele>83.592615</ele>
        <time>2026-09-03T16:33:45.022Z</time>
      </trkpt>
      <trkpt lat="47.31878" lon="-1.79579">
        <ele>82.320899</ele>
        <time>2026-09-03T16:33:59.643Z</time>
      </trkpt>
      <trkpt lat="47.31844" lon="-1.79625">
        <ele>81.597465</ele>
        <time>2026-09-03T16:34:09.677Z</time>
      </trkpt>
      <trkpt lat="47.31817" lon="-1.79638">
        <ele>81.168649</ele>
        <time>2026-09-03T16:34:16.047Z</time>
      </trkpt>
      <trkpt lat="47.31771" lon="-1.79654">
        <ele>80.464612</ele>
        <time>2026-09-03T16:34:26.797Z</time>
      </trkpt>
      <trkpt lat="47.3173" lon="-1.79688">
        <ele>79.773439</ele>
        <time>2026-09-03T16:34:37.627Z</time>
      </trkpt>
      <trkpt lat="47.31676" lon="-1.79715">
        <ele>78.994629</ele>
        <time>2026-09-03T16:34:51.243Z</time>
      </trkpt>
      <trkpt lat="47.31636" lon="-1.79745">
        <ele>78.417827</ele>
        <time>2026-09-03T16:35:01.866Z</time>
      </trkpt>
      <trkpt lat="47.31595" lon="-1.79765">
        <ele>77.859848</ele>
        <time>2026-09-03T16:35:11.969Z</time>
      </trkpt>
      <trkpt lat="47.31571" lon="-1.79766">
        <ele>77.542079</ele>
        <time>2026-09-03T16:35:17.572Z</time>
      </trkpt>
      <trkpt lat="47.31461" lon="-1.79731">
        <ele>75.260615</ele>
        <time>2026-09-03T16:35:41.750Z</time>
      </trkpt>
      <trkpt lat="47.31358" lon="-1.79672">
        <ele>72.984137</ele>
        <time>2026-09-03T16:36:05.019Z</time>
      </trkpt>
      <trkpt lat="47.31308" lon="-1.79672">
        <ele>72.912258</ele>
        <time>2026-09-03T16:36:16.772Z</time>
      </trkpt>
      <trkpt lat="47.31291" lon="-1.79512">
        <ele>72.755078</ele>
        <time>2026-09-03T16:36:36.833Z</time>
      </trkpt>
      <trkpt lat="47.31287" lon="-1.7944">
        <ele>73.026938</ele>
        <time>2026-09-03T16:36:46.938Z</time>
      </trkpt>
      <trkpt lat="47.31114" lon="-1.79459">
        <ele>74.096608</ele>
        <time>2026-09-03T16:37:14.083Z</time>
      </trkpt>
      <trkpt lat="47.31042" lon="-1.79467">
        <ele>74.351634</ele>
        <time>2026-09-03T16:37:24.759Z</time>
      </trkpt>
      <trkpt lat="47.30975" lon="-1.79464">
        <ele>74.588037</ele>
        <time>2026-09-03T16:37:34.670Z</time>
      </trkpt>
      <trkpt lat="47.3097" lon="-1.79483">
        <ele>74.590676</ele>
        <time>2026-09-03T16:37:37.012Z</time>
      </trkpt>
      <trkpt lat="47.30952" lon="-1.79504">
        <ele>74.530921</ele>
        <time>2026-09-03T16:37:40.833Z</time>
      </trkpt>
      <trkpt lat="47.30907" lon="-1.79532">
        <ele>74.399951</ele>
        <time>2026-09-03T16:37:49.052Z</time>
      </trkpt>
      <trkpt lat="47.30832" lon="-1.79592">
        <ele>74.173247</ele>
        <time>2026-09-03T16:38:02.006Z</time>
      </trkpt>
      <trkpt lat="47.30721" lon="-1.79695">
        <ele>72.348109</ele>
        <time>2026-09-03T16:38:19.656Z</time>
      </trkpt>
      <trkpt lat="47.30656" lon="-1.79762">
        <ele>71.120216</ele>
        <time>2026-09-03T16:38:29.780Z</time>
      </trkpt>
      <trkpt lat="47.30578" lon="-1.79899">
        <ele>69.164983</ele>
        <time>2026-09-03T16:38:45.605Z</time>
      </trkpt>
      <trkpt lat="47.30562" lon="-1.79922">
        <ele>68.799859</ele>
        <time>2026-09-03T16:38:48.722Z</time>
      </trkpt>
      <trkpt lat="47.30497" lon="-1.79964">
        <ele>68.622714</ele>
        <time>2026-09-03T16:38:58.947Z</time>
      </trkpt>
      <trkpt lat="47.30487" lon="-1.79976">
        <ele>68.662128</ele>
        <time>2026-09-03T16:39:00.930Z</time>
      </trkpt>
      <trkpt lat="47.30445" lon="-1.80057">
        <ele>68.875592</ele>
        <time>2026-09-03T16:39:13.118Z</time>
      </trkpt>
      <trkpt lat="47.30432" lon="-1.8007">
        <ele>68.925214</ele>
        <time>2026-09-03T16:39:16.283Z</time>
      </trkpt>
      <trkpt lat="47.30344" lon="-1.80104">
        <ele>69.697701</ele>
        <time>2026-09-03T16:39:35.964Z</time>
      </trkpt>
      <trkpt lat="47.30282" lon="-1.80121">
        <ele>70.422704</ele>
        <time>2026-09-03T16:39:49.588Z</time>
      </trkpt>
      <trkpt lat="47.30278" lon="-1.80118">
        <ele>70.472833</ele>
        <time>2026-09-03T16:39:50.454Z</time>
      </trkpt>
      <trkpt lat="47.3025" lon="-1.80124">
        <ele>70.79843</ele>
        <time>2026-09-03T16:39:55.920Z</time>
      </trkpt>
      <trkpt lat="47.30224" lon="-1.80142">
        <ele>71.061227</ele>
        <time>2026-09-03T16:40:01.162Z</time>
      </trkpt>
      <trkpt lat="47.30205" lon="-1.80154">
        <ele>70.936549</ele>
        <time>2026-09-03T16:40:04.513Z</time>
      </trkpt>
      <trkpt lat="47.30054" lon="-1.8029">
        <ele>69.408888</ele>
        <time>2026-09-03T16:40:30.006Z</time>
      </trkpt>
      <trkpt lat="47.30037" lon="-1.80331">
        <ele>68.600961</ele>
        <time>2026-09-03T16:40:34.079Z</time>
      </trkpt>
      <trkpt lat="47.3003" lon="-1.80372">
        <ele>67.889318</ele>
        <time>2026-09-03T16:40:37.571Z</time>
      </trkpt>
      <trkpt lat="47.30015" lon="-1.80404">
        <ele>67.233368</ele>
        <time>2026-09-03T16:40:40.711Z</time>
      </trkpt>
      <trkpt lat="47.29886" lon="-1.80512">
        <ele>64.371495</ele>
        <time>2026-09-03T16:40:58.657Z</time>
      </trkpt>
      <trkpt lat="47.29866" lon="-1.80527">
        <ele>64.050266</ele>
        <time>2026-09-03T16:41:01.772Z</time>
      </trkpt>
      <trkpt lat="47.29849" lon="-1.80535">
        <ele>63.808375</ele>
        <time>2026-09-03T16:41:04.230Z</time>
      </trkpt>
      <trkpt lat="47.2983" lon="-1.80537">
        <ele>63.540733</ele>
        <time>2026-09-03T16:41:07.098Z</time>
      </trkpt>
      <trkpt lat="47.29785" lon="-1.80529">
        <ele>62.976401</ele>
        <time>2026-09-03T16:41:14.945Z</time>
      </trkpt>
      <trkpt lat="47.29749" lon="-1.80524">
        <ele>63.491937</ele>
        <time>2026-09-03T16:41:21.893Z</time>
      </trkpt>
      <trkpt lat="47.29751" lon="-1.80509">
        <ele>63.634917</ele>
        <time>2026-09-03T16:41:23.952Z</time>
      </trkpt>
      <trkpt lat="47.29758" lon="-1.80416">
        <ele>64.553258</ele>
        <time>2026-09-03T16:41:37.384Z</time>
      </trkpt>
      <trkpt lat="47.29767" lon="-1.80379">
        <ele>64.944083</ele>
        <time>2026-09-03T16:41:43.307Z</time>
      </trkpt>
      <trkpt lat="47.29855" lon="-1.80193">
        <ele>68.128291</ele>
        <time>2026-09-03T16:42:20.035Z</time>
      </trkpt>
      <trkpt lat="47.2987" lon="-1.80159">
        <ele>68.766343</ele>
        <time>2026-09-03T16:42:27.019Z</time>
      </trkpt>
      <trkpt lat="47.29891" lon="-1.80116">
        <ele>69.586581</ele>
        <time>2026-09-03T16:42:35.868Z</time>
      </trkpt>
      <trkpt lat="47.29899" lon="-1.80093">
        <ele>69.966209</ele>
        <time>2026-09-03T16:42:40.183Z</time>
      </trkpt>
      <trkpt lat="47.29905" lon="-1.80051">
        <ele>70.573503</ele>
        <time>2026-09-03T16:42:47.340Z</time>
      </trkpt>
      <trkpt lat="47.29901" lon="-1.80001">
        <ele>71.295443</ele>
        <time>2026-09-03T16:42:55.993Z</time>
      </trkpt>
      <trkpt lat="47.29883" lon="-1.79937">
        <ele>72.282182</ele>
        <time>2026-09-03T16:43:07.267Z</time>
      </trkpt>
      <trkpt lat="47.29874" lon="-1.7985">
        <ele>73.452909</ele>
        <time>2026-09-03T16:43:20.608Z</time>
      </trkpt>
      <trkpt lat="47.29867" lon="-1.79733">
        <ele>73.226574</ele>
        <time>2026-09-03T16:43:35.220Z</time>
      </trkpt>
      <trkpt lat="47.29825" lon="-1.79568">
        <ele>72.709556</ele>
        <time>2026-09-03T16:43:51.419Z</time>
      </trkpt>
      <trkpt lat="47.29823" lon="-1.79548">
        <ele>72.56142</ele>
        <time>2026-09-03T16:43:53.241Z</time>
      </trkpt>
      <trkpt lat="47.29821" lon="-1.79526">
        <ele>72.407488</ele>
        <time>2026-09-03T16:43:55.155Z</time>
      </trkpt>
      <trkpt lat="47.2983" lon="-1.79401">
        <ele>71.505425</ele>
        <time>2026-09-03T16:44:06.917Z</time>
      </trkpt>
      <trkpt lat="47.29833" lon="-1.79312">
        <ele>70.957341</ele>
        <time>2026-09-03T16:44:16.151Z</time>
      </trkpt>
      <trkpt lat="47.29837" lon="-1.79268">
        <ele>70.786935</ele>
        <time>2026-09-03T16:44:20.851Z</time>
      </trkpt>
      <trkpt lat="47.29841" lon="-1.79246">
        <ele>70.695159</ele>
        <time>2026-09-03T16:44:23.388Z</time>
      </trkpt>
      <trkpt lat="47.29864" lon="-1.79196">
        <ele>70.460611</ele>
        <time>2026-09-03T16:44:29.820Z</time>
      </trkpt>
      <trkpt lat="47.29883" lon="-1.79164">
        <ele>70.298051</ele>
        <time>2026-09-03T16:44:34.110Z</time>
      </trkpt>
      <trkpt lat="47.29912" lon="-1.79096">
        <ele>69.782023</ele>
        <time>2026-09-03T16:44:41.781Z</time>
      </trkpt>
      <trkpt lat="47.29935" lon="-1.79021">
        <ele>67.985122</ele>
        <time>2026-09-03T16:44:48.865Z</time>
      </trkpt>
      <trkpt lat="47.29913" lon="-1.79006">
        <ele>67.222666</ele>
        <time>2026-09-03T16:44:51.259Z</time>
      </trkpt>
      <trkpt lat="47.29876" lon="-1.78968">
        <ele>65.765494</ele>
        <time>2026-09-03T16:44:55.707Z</time>
      </trkpt>
      <trkpt lat="47.29785" lon="-1.78855">
        <ele>61.55512</ele>
        <time>2026-09-03T16:45:06.868Z</time>
      </trkpt>
      <trkpt lat="47.29736" lon="-1.78795">
        <ele>59.176139</ele>
        <time>2026-09-03T16:45:12.945Z</time>
      </trkpt>
      <trkpt lat="47.29704" lon="-1.78759">
        <ele>57.661209</ele>
        <time>2026-09-03T16:45:17.171Z</time>
      </trkpt>
      <trkpt lat="47.29685" lon="-1.78749">
        <ele>57.672006</ele>
        <time>2026-09-03T16:45:19.487Z</time>
      </trkpt>
      <trkpt lat="47.2966" lon="-1.7874">
        <ele>57.965044</ele>
        <time>2026-09-03T16:45:22.872Z</time>
      </trkpt>
      <trkpt lat="47.29634" lon="-1.78735">
        <ele>58.256936</ele>
        <time>2026-09-03T16:45:27.069Z</time>
      </trkpt>
      <trkpt lat="47.29608" lon="-1.78739">
        <ele>58.545694</ele>
        <time>2026-09-03T16:45:32.006Z</time>
      </trkpt>
      <trkpt lat="47.29544" lon="-1.78765">
        <ele>59.290153</ele>
        <time>2026-09-03T16:45:47.028Z</time>
      </trkpt>
      <trkpt lat="47.29511" lon="-1.78784">
        <ele>59.987264</ele>
        <time>2026-09-03T16:45:55.624Z</time>
      </trkpt>
      <trkpt lat="47.295" lon="-1.78796">
        <ele>60.394354</ele>
        <time>2026-09-03T16:45:58.982Z</time>
      </trkpt>
      <trkpt lat="47.29475" lon="-1.78843">
        <ele>61.586743</ele>
        <time>2026-09-03T16:46:08.883Z</time>
      </trkpt>
      <trkpt lat="47.29453" lon="-1.7887">
        <ele>62.432423</ele>
        <time>2026-09-03T16:46:15.879Z</time>
      </trkpt>
      <trkpt lat="47.2944" lon="-1.78877">
        <ele>62.839688</ele>
        <time>2026-09-03T16:46:19.240Z</time>
      </trkpt>
      <trkpt lat="47.29424" lon="-1.78882">
        <ele>63.333717</ele>
        <time>2026-09-03T16:46:23.346Z</time>
      </trkpt>
      <trkpt lat="47.29408" lon="-1.78879">
        <ele>63.81997</ele>
        <time>2026-09-03T16:46:27.436Z</time>
      </trkpt>
      <trkpt lat="47.29388" lon="-1.78861">
        <ele>64.506953</ele>
        <time>2026-09-03T16:46:33.346Z</time>
      </trkpt>
      <trkpt lat="47.29375" lon="-1.7884">
        <ele>65.012167</ele>
        <time>2026-09-03T16:46:38.292Z</time>
      </trkpt>
      <trkpt lat="47.29316" lon="-1.78664">
        <ele>67.935515</ele>
        <time>2026-09-03T16:47:09.266Z</time>
      </trkpt>
      <trkpt lat="47.29277" lon="-1.78559">
        <ele>68.828307</ele>
        <time>2026-09-03T16:47:22.353Z</time>
      </trkpt>
      <trkpt lat="47.29221" lon="-1.7844">
        <ele>68.931604</ele>
        <time>2026-09-03T16:47:35.094Z</time>
      </trkpt>
      <trkpt lat="47.29177" lon="-1.78365">
        <ele>69.090585</ele>
        <time>2026-09-03T16:47:44.060Z</time>
      </trkpt>
      <trkpt lat="47.29165" lon="-1.78354">
        <ele>69.148706</ele>
        <time>2026-09-03T16:47:45.963Z</time>
      </trkpt>
      <trkpt lat="47.29146" lon="-1.78345">
        <ele>69.235015</ele>
        <time>2026-09-03T16:47:48.867Z</time>
      </trkpt>
      <trkpt lat="47.29109" lon="-1.7834">
        <ele>69.390375</ele>
        <time>2026-09-03T16:47:54.329Z</time>
      </trkpt>
      <trkpt lat="47.29033" lon="-1.78338">
        <ele>69.709326</ele>
        <time>2026-09-03T16:48:06.595Z</time>
      </trkpt>
      <trkpt lat="47.29028" lon="-1.78337">
        <ele>69.736435</ele>
        <time>2026-09-03T16:48:07.427Z</time>
      </trkpt>
      <trkpt lat="47.29045" lon="-1.78138">
        <ele>71.655318</ele>
        <time>2026-09-03T16:48:36.071Z</time>
      </trkpt>
      <trkpt lat="47.29046" lon="-1.78092">
        <ele>72.094156</ele>
        <time>2026-09-03T16:48:43.217Z</time>
      </trkpt>
      <trkpt lat="47.29041" lon="-1.77994">
        <ele>72.537885</ele>
        <time>2026-09-03T16:48:57.672Z</time>
      </trkpt>
      <trkpt lat="47.29042" lon="-1.77941">
        <ele>72.715805</ele>
        <time>2026-09-03T16:49:04.736Z</time>
      </trkpt>
      <trkpt lat="47.29025" lon="-1.77771">
        <ele>73.094135</ele>
        <time>2026-09-03T16:49:22.281Z</time>
      </trkpt>
      <trkpt lat="47.29027" lon="-1.77746">
        <ele>73.051865</ele>
        <time>2026-09-03T16:49:24.635Z</time>
      </trkpt>
      <trkpt lat="47.29032" lon="-1.77713">
        <ele>72.994746</ele>
        <time>2026-09-03T16:49:27.890Z</time>
      </trkpt>
      <trkpt lat="47.29053" lon="-1.77604">
        <ele>72.807255</ele>
        <time>2026-09-03T16:49:39.456Z</time>
      </trkpt>
      <trkpt lat="47.29057" lon="-1.77576">
        <ele>72.759444</ele>
        <time>2026-09-03T16:49:42.611Z</time>
      </trkpt>
      <trkpt lat="47.29059" lon="-1.77541">
        <ele>72.823016</ele>
        <time>2026-09-03T16:49:46.945Z</time>
      </trkpt>
      <trkpt lat="47.29059" lon="-1.7748">
        <ele>73.352656</ele>
        <time>2026-09-03T16:49:55.077Z</time>
      </trkpt>
      <trkpt lat="47.29075" lon="-1.77348">
        <ele>74.513296</ele>
        <time>2026-09-03T16:50:14.199Z</time>
      </trkpt>
      <trkpt lat="47.2908" lon="-1.77264">
        <ele>75.315059</ele>
        <time>2026-09-03T16:50:26.674Z</time>
      </trkpt>
      <trkpt lat="47.2908" lon="-1.77198">
        <ele>76.05969</ele>
        <time>2026-09-03T16:50:37.220Z</time>
      </trkpt>
      <trkpt lat="47.2907" lon="-1.77025">
        <ele>78.013935</ele>
        <time>2026-09-03T16:51:04.070Z</time>
      </trkpt>
      <trkpt lat="47.28947" lon="-1.77023">
        <ele>77.951242</ele>
        <time>2026-09-03T16:51:35.825Z</time>
      </trkpt>
      <trkpt lat="47.28864" lon="-1.77017">
        <ele>77.535596</ele>
        <time>2026-09-03T16:51:55.453Z</time>
      </trkpt>
      <trkpt lat="47.28767" lon="-1.77017">
        <ele>76.149557</ele>
        <time>2026-09-03T16:52:17.508Z</time>
      </trkpt>
      <trkpt lat="47.28741" lon="-1.77016">
        <ele>75.777271</ele>
        <time>2026-09-03T16:52:23.303Z</time>
      </trkpt>
      <trkpt lat="47.28711" lon="-1.77025">
        <ele>75.349019</ele>
        <time>2026-09-03T16:52:29.931Z</time>
      </trkpt>
      <trkpt lat="47.28655" lon="-1.77057">
        <ele>74.370307</ele>
        <time>2026-09-03T16:52:43.129Z</time>
      </trkpt>
      <trkpt lat="47.28625" lon="-1.77083">
        <ele>73.804435</ele>
        <time>2026-09-03T16:52:50.790Z</time>
      </trkpt>
      <trkpt lat="47.28594" lon="-1.77116">
        <ele>73.182389</ele>
        <time>2026-09-03T16:52:55.831Z</time>
      </trkpt>
      <trkpt lat="47.28566" lon="-1.77142">
        <ele>72.639478</ele>
        <time>2026-09-03T16:53:00.370Z</time>
      </trkpt>
      <trkpt lat="47.28552" lon="-1.77141">
        <ele>72.424048</ele>
        <time>2026-09-03T16:53:02.232Z</time>
      </trkpt>
      <trkpt lat="47.28552" lon="-1.77127">
        <ele>72.431846</ele>
        <time>2026-09-03T16:53:03.343Z</time>
      </trkpt>
      <trkpt lat="47.2855" lon="-1.77118">
        <ele>72.437403</ele>
        <time>2026-09-03T16:53:04.140Z</time>
      </trkpt>
      <trkpt lat="47.28525" lon="-1.77076">
        <ele>72.46911</ele>
        <time>2026-09-03T16:53:08.894Z</time>
      </trkpt>
      <trkpt lat="47.28463" lon="-1.77042">
        <ele>72.524991</ele>
        <time>2026-09-03T16:53:18.699Z</time>
      </trkpt>
      <trkpt lat="47.28459" lon="-1.77036">
        <ele>72.52938</ele>
        <time>2026-09-03T16:53:19.539Z</time>
      </trkpt>
      <trkpt lat="47.28458" lon="-1.77024">
        <ele>72.536241</ele>
        <time>2026-09-03T16:53:20.861Z</time>
      </trkpt>
      <trkpt lat="47.28465" lon="-1.76886">
        <ele>73.016331</ele>
        <time>2026-09-03T16:53:36.525Z</time>
      </trkpt>
      <trkpt lat="47.28497" lon="-1.76874">
        <ele>73.315757</ele>
        <time>2026-09-03T16:53:42.172Z</time>
      </trkpt>
      <trkpt lat="47.28593" lon="-1.76816">
        <ele>74.269326</ele>
        <time>2026-09-03T16:53:59.970Z</time>
      </trkpt>
      <trkpt lat="47.28635" lon="-1.76784">
        <ele>74.658141</ele>
        <time>2026-09-03T16:54:08.243Z</time>
      </trkpt>
      <trkpt lat="47.28632" lon="-1.76755">
        <ele>74.81835</ele>
        <time>2026-09-03T16:54:13.870Z</time>
      </trkpt>
      <trkpt lat="47.28676" lon="-1.76694">
        <ele>75.32059</ele>
        <time>2026-09-03T16:54:31.108Z</time>
      </trkpt>
      <trkpt lat="47.28678" lon="-1.76668">
        <ele>75.46353</ele>
        <time>2026-09-03T16:54:35.901Z</time>
      </trkpt>
      <trkpt lat="47.28668" lon="-1.76613">
        <ele>75.761594</ele>
        <time>2026-09-03T16:54:46.515Z</time>
      </trkpt>
      <trkpt lat="47.28671" lon="-1.76583">
        <ele>75.872462</ele>
        <time>2026-09-03T16:54:52.065Z</time>
      </trkpt>
      <trkpt lat="47.28635" lon="-1.76456">
        <ele>76.37784</ele>
        <time>2026-09-03T16:55:17.006Z</time>
      </trkpt>
      <trkpt lat="47.28629" lon="-1.76443">
        <ele>76.432929</ele>
        <time>2026-09-03T16:55:19.803Z</time>
      </trkpt>
      <trkpt lat="47.28605" lon="-1.76387">
        <ele>76.675335</ele>
        <time>2026-09-03T16:55:32.431Z</time>
      </trkpt>
      <trkpt lat="47.28603" lon="-1.76371">
        <ele>76.769053</ele>
        <time>2026-09-03T16:55:35.581Z</time>
      </trkpt>
      <trkpt lat="47.28629" lon="-1.76111">
        <ele>78.288006</ele>
        <time>2026-09-03T16:56:27.829Z</time>
      </trkpt>
      <trkpt lat="47.28625" lon="-1.76065">
        <ele>78.129616</ele>
        <time>2026-09-03T16:56:36.108Z</time>
      </trkpt>
      <trkpt lat="47.28618" lon="-1.76043">
        <ele>78.044658</ele>
        <time>2026-09-03T16:56:40.360Z</time>
      </trkpt>
      <trkpt lat="47.28551" lon="-1.75951">
        <ele>77.576752</ele>
        <time>2026-09-03T16:57:02.252Z</time>
      </trkpt>
      <trkpt lat="47.28528" lon="-1.75926">
        <ele>77.429974</ele>
        <time>2026-09-03T16:57:08.721Z</time>
      </trkpt>
      <trkpt lat="47.28503" lon="-1.75915">
        <ele>77.158313</ele>
        <time>2026-09-03T16:57:14.520Z</time>
      </trkpt>
      <trkpt lat="47.28442" lon="-1.75888">
        <ele>76.424495</ele>
        <time>2026-09-03T16:57:29.091Z</time>
      </trkpt>
      <trkpt lat="47.28433" lon="-1.75891">
        <ele>76.321377</ele>
        <time>2026-09-03T16:57:31.143Z</time>
      </trkpt>
      <trkpt lat="47.28371" lon="-1.75848">
        <ele>75.535416</ele>
        <time>2026-09-03T16:57:47.140Z</time>
      </trkpt>
      <trkpt lat="47.28309" lon="-1.7587">
        <ele>75.301899</ele>
        <time>2026-09-03T16:58:02.686Z</time>
      </trkpt>
      <trkpt lat="47.28286" lon="-1.75874">
        <ele>75.277336</ele>
        <time>2026-09-03T16:58:08.325Z</time>
      </trkpt>
      <trkpt lat="47.28271" lon="-1.75871">
        <ele>75.260557</ele>
        <time>2026-09-03T16:58:12.214Z</time>
      </trkpt>
      <trkpt lat="47.28263" lon="-1.75904">
        <ele>75.2344</ele>
        <time>2026-09-03T16:58:15.513Z</time>
      </trkpt>
      <trkpt lat="47.28083" lon="-1.75878">
        <ele>74.88386</ele>
        <time>2026-09-03T16:58:45.796Z</time>
      </trkpt>
      <trkpt lat="47.28078" lon="-1.75878">
        <ele>74.873238</ele>
        <time>2026-09-03T16:58:46.447Z</time>
      </trkpt>
      <trkpt lat="47.28031" lon="-1.75881">
        <ele>74.756775</ele>
        <time>2026-09-03T16:58:53.327Z</time>
      </trkpt>
      <trkpt lat="47.27984" lon="-1.75901">
        <ele>74.126443</ele>
        <time>2026-09-03T16:58:59.964Z</time>
      </trkpt>
      <trkpt lat="47.2793" lon="-1.75966">
        <ele>72.81185</ele>
        <time>2026-09-03T16:59:09.108Z</time>
      </trkpt>
      <trkpt lat="47.27761" lon="-1.76073">
        <ele>69.058096</ele>
        <time>2026-09-03T16:59:32.394Z</time>
      </trkpt>
      <trkpt lat="47.27628" lon="-1.76166">
        <ele>66.193009</ele>
        <time>2026-09-03T16:59:51.179Z</time>
      </trkpt>
      <trkpt lat="47.27571" lon="-1.76202">
        <ele>65.142883</ele>
        <time>2026-09-03T16:59:59.153Z</time>
      </trkpt>
      <trkpt lat="47.27525" lon="-1.76227">
        <ele>64.362197</ele>
        <time>2026-09-03T17:00:10.853Z</time>
      </trkpt>
      <trkpt lat="47.2751" lon="-1.76225">
        <ele>64.341947</ele>
        <time>2026-09-03T17:00:14.428Z</time>
      </trkpt>
      <trkpt lat="47.27496" lon="-1.76219">
        <ele>64.322488</ele>
        <time>2026-09-03T17:00:17.848Z</time>
      </trkpt>
      <trkpt lat="47.27485" lon="-1.76194">
        <ele>64.294325</ele>
        <time>2026-09-03T17:00:22.829Z</time>
      </trkpt>
      <trkpt lat="47.27479" lon="-1.76164">
        <ele>64.265282</ele>
        <time>2026-09-03T17:00:27.971Z</time>
      </trkpt>
      <trkpt lat="47.27479" lon="-1.76132">
        <ele>64.23652</ele>
        <time>2026-09-03T17:00:33.225Z</time>
      </trkpt>
      <trkpt lat="47.27482" lon="-1.7609">
        <ele>64.197172</ele>
        <time>2026-09-03T17:00:40.909Z</time>
      </trkpt>
      <trkpt lat="47.2749" lon="-1.76025">
        <ele>64.136352</ele>
        <time>2026-09-03T17:00:53.502Z</time>
      </trkpt>
      <trkpt lat="47.275" lon="-1.75966">
        <ele>64.130675</ele>
        <time>2026-09-03T17:01:04.841Z</time>
      </trkpt>
      <trkpt lat="47.27508" lon="-1.7593">
        <ele>64.136704</ele>
        <time>2026-09-03T17:01:11.450Z</time>
      </trkpt>
      <trkpt lat="47.27516" lon="-1.7587">
        <ele>64.146528</ele>
        <time>2026-09-03T17:01:21.906Z</time>
      </trkpt>
      <trkpt lat="47.27516" lon="-1.75852">
        <ele>64.149454</ele>
        <time>2026-09-03T17:01:24.972Z</time>
      </trkpt>
      <trkpt lat="47.27511" lon="-1.75843">
        <ele>64.151351</ele>
        <time>2026-09-03T17:01:26.936Z</time>
      </trkpt>
      <trkpt lat="47.2742" lon="-1.75875">
        <ele>64.433788</ele>
        <time>2026-09-03T17:01:50.232Z</time>
      </trkpt>
      <trkpt lat="47.27411" lon="-1.75878">
        <ele>64.501054</ele>
        <time>2026-09-03T17:01:52.440Z</time>
      </trkpt>
      <trkpt lat="47.27404" lon="-1.75873">
        <ele>64.568945</ele>
        <time>2026-09-03T17:01:54.652Z</time>
      </trkpt>
      <trkpt lat="47.27383" lon="-1.75817">
        <ele>64.913935</ele>
        <time>2026-09-03T17:02:06.515Z</time>
      </trkpt>
      <trkpt lat="47.27385" lon="-1.7581">
        <ele>64.954142</ele>
        <time>2026-09-03T17:02:07.514Z</time>
      </trkpt>
      <trkpt lat="47.27412" lon="-1.75721">
        <ele>65.487004</ele>
        <time>2026-09-03T17:02:21.454Z</time>
      </trkpt>
      <trkpt lat="47.27432" lon="-1.75542">
        <ele>67.642984</ele>
        <time>2026-09-03T17:02:49.688Z</time>
      </trkpt>
      <trkpt lat="47.27452" lon="-1.75483">
        <ele>68.485154</ele>
        <time>2026-09-03T17:02:59.823Z</time>
      </trkpt>
      <trkpt lat="47.27459" lon="-1.75446">
        <ele>68.975701</ele>
        <time>2026-09-03T17:03:05.886Z</time>
      </trkpt>
      <trkpt lat="47.27463" lon="-1.7541">
        <ele>69.204569</ele>
        <time>2026-09-03T17:03:11.430Z</time>
      </trkpt>
      <trkpt lat="47.2747" lon="-1.75357">
        <ele>69.549288</ele>
        <time>2026-09-03T17:03:19.340Z</time>
      </trkpt>
      <trkpt lat="47.27486" lon="-1.75303">
        <ele>69.915728</ele>
        <time>2026-09-03T17:03:27.210Z</time>
      </trkpt>
      <trkpt lat="47.27483" lon="-1.75298">
        <ele>69.961756</ele>
        <time>2026-09-03T17:03:28.195Z</time>
      </trkpt>
      <trkpt lat="47.27478" lon="-1.7528">
        <ele>70.08391</ele>
        <time>2026-09-03T17:03:30.693Z</time>
      </trkpt>
      <trkpt lat="47.27474" lon="-1.75258">
        <ele>70.23167</ele>
        <time>2026-09-03T17:03:33.561Z</time>
      </trkpt>
      <trkpt lat="47.27472" lon="-1.75205">
        <ele>70.561211</ele>
        <time>2026-09-03T17:03:39.376Z</time>
      </trkpt>
      <trkpt lat="47.27465" lon="-1.75126">
        <ele>70.460439</ele>
        <time>2026-09-03T17:03:47.641Z</time>
      </trkpt>
      <trkpt lat="47.27465" lon="-1.75097">
        <ele>70.379475</ele>
        <time>2026-09-03T17:03:50.496Z</time>
      </trkpt>
      <trkpt lat="47.27468" lon="-1.75074">
        <ele>70.313805</ele>
        <time>2026-09-03T17:03:52.878Z</time>
      </trkpt>
      <trkpt lat="47.27475" lon="-1.75053">
        <ele>70.247936</ele>
        <time>2026-09-03T17:03:55.305Z</time>
      </trkpt>
      <trkpt lat="47.27516" lon="-1.75036">
        <ele>70.073326</ele>
        <time>2026-09-03T17:04:05.741Z</time>
      </trkpt>
      <trkpt lat="47.27589" lon="-1.75007">
        <ele>69.830996</ele>
        <time>2026-09-03T17:04:23.753Z</time>
      </trkpt>
      <trkpt lat="47.27651" lon="-1.74992">
        <ele>69.697096</ele>
        <time>2026-09-03T17:04:38.673Z</time>
      </trkpt>
      <trkpt lat="47.27718" lon="-1.74944">
        <ele>69.537961</ele>
        <time>2026-09-03T17:04:58.299Z</time>
      </trkpt>
      <trkpt lat="47.27704" lon="-1.74896">
        <ele>69.595761</ele>
        <time>2026-09-03T17:05:04.961Z</time>
      </trkpt>
      <trkpt lat="47.27656" lon="-1.74778">
        <ele>69.838773</ele>
        <time>2026-09-03T17:05:23.425Z</time>
      </trkpt>
      <trkpt lat="47.27622" lon="-1.74689">
        <ele>69.798664</ele>
        <time>2026-09-03T17:05:33.578Z</time>
      </trkpt>
      <trkpt lat="47.27611" lon="-1.74627">
        <ele>69.050064</ele>
        <time>2026-09-03T17:05:39.259Z</time>
      </trkpt>
      <trkpt lat="47.27583" lon="-1.74398">
        <ele>66.731808</ele>
        <time>2026-09-03T17:05:59.534Z</time>
      </trkpt>
      <trkpt lat="47.27602" lon="-1.74388">
        <ele>66.636337</ele>
        <time>2026-09-03T17:06:04.245Z</time>
      </trkpt>
      <trkpt lat="47.27643" lon="-1.74386">
        <ele>66.44351</ele>
        <time>2026-09-03T17:06:14.064Z</time>
      </trkpt>
      <trkpt lat="47.27691" lon="-1.74376">
        <ele>66.21966</ele>
        <time>2026-09-03T17:06:26.316Z</time>
      </trkpt>
      <trkpt lat="47.277" lon="-1.74369">
        <ele>66.172745</ele>
        <time>2026-09-03T17:06:29.114Z</time>
      </trkpt>
      <trkpt lat="47.27712" lon="-1.74351">
        <ele>66.091438</ele>
        <time>2026-09-03T17:06:34.074Z</time>
      </trkpt>
      <trkpt lat="47.2773" lon="-1.74295">
        <ele>66.538632</ele>
        <time>2026-09-03T17:06:46.569Z</time>
      </trkpt>
      <trkpt lat="47.27756" lon="-1.74247">
        <ele>67.169668</ele>
        <time>2026-09-03T17:06:59.374Z</time>
      </trkpt>
      <trkpt lat="47.27793" lon="-1.7415">
        <ele>68.323085</ele>
        <time>2026-09-03T17:07:23.616Z</time>
      </trkpt>
      <trkpt lat="47.27816" lon="-1.741">
        <ele>68.967654</ele>
        <time>2026-09-03T17:07:36.766Z</time>
      </trkpt>
      <trkpt lat="47.27811" lon="-1.74051">
        <ele>69.534098</ele>
        <time>2026-09-03T17:07:47.452Z</time>
      </trkpt>
      <trkpt lat="47.278" lon="-1.73997">
        <ele>70.159129</ele>
        <time>2026-09-03T17:07:58.965Z</time>
      </trkpt>
      <trkpt lat="47.27768" lon="-1.73884">
        <ele>71.549934</ele>
        <time>2026-09-03T17:08:25.117Z</time>
      </trkpt>
      <trkpt lat="47.27765" lon="-1.73837">
        <ele>72.055681</ele>
        <time>2026-09-03T17:08:35.315Z</time>
      </trkpt>
      <trkpt lat="47.27763" lon="-1.73772">
        <ele>72.722097</ele>
        <time>2026-09-03T17:08:49.410Z</time>
      </trkpt>
      <trkpt lat="47.27758" lon="-1.73754">
        <ele>72.91975</ele>
        <time>2026-09-03T17:08:53.613Z</time>
      </trkpt>
      <trkpt lat="47.27747" lon="-1.73729">
        <ele>73.232357</ele>
        <time>2026-09-03T17:09:00.247Z</time>
      </trkpt>
      <trkpt lat="47.27735" lon="-1.73714">
        <ele>73.45857</ele>
        <time>2026-09-03T17:09:05.054Z</time>
      </trkpt>
      <trkpt lat="47.2764" lon="-1.7359">
        <ele>74.512497</ele>
        <time>2026-09-03T17:09:42.367Z</time>
      </trkpt>
      <trkpt lat="47.27327" lon="-1.73733">
        <ele>73.522499</ele>
        <time>2026-09-03T17:11:02.019Z</time>
      </trkpt>
      <trkpt lat="47.27144" lon="-1.73825">
        <ele>72.880752</ele>
        <time>2026-09-03T17:11:50.274Z</time>
      </trkpt>
      <trkpt lat="47.27099" lon="-1.73736">
        <ele>72.39854</ele>
        <time>2026-09-03T17:12:01.449Z</time>
      </trkpt>
      <trkpt lat="47.27041" lon="-1.73758">
        <ele>72.016108</ele>
        <time>2026-09-03T17:12:15.446Z</time>
      </trkpt>
      <trkpt lat="47.26967" lon="-1.73775">
        <ele>70.948354</ele>
        <time>2026-09-03T17:12:32.578Z</time>
      </trkpt>
      <trkpt lat="47.26906" lon="-1.73795">
        <ele>70.009892</ele>
        <time>2026-09-03T17:12:46.619Z</time>
      </trkpt>
      <trkpt lat="47.26874" lon="-1.73812">
        <ele>69.510957</ele>
        <time>2026-09-03T17:12:54.082Z</time>
      </trkpt>
      <trkpt lat="47.26826" lon="-1.73871">
        <ele>68.68491</ele>
        <time>2026-09-03T17:13:08.026Z</time>
      </trkpt>
      <trkpt lat="47.2682" lon="-1.73847">
        <ele>68.463017</ele>
        <time>2026-09-03T17:13:11.921Z</time>
      </trkpt>
      <trkpt lat="47.26806" lon="-1.73772">
        <ele>67.790547</ele>
        <time>2026-09-03T17:13:23.890Z</time>
      </trkpt>
      <trkpt lat="47.26796" lon="-1.73746">
        <ele>67.529536</ele>
        <time>2026-09-03T17:13:28.650Z</time>
      </trkpt>
      <trkpt lat="47.26786" lon="-1.73729">
        <ele>67.332671</ele>
        <time>2026-09-03T17:13:32.307Z</time>
      </trkpt>
      <trkpt lat="47.26766" lon="-1.73712">
        <ele>67.033507</ele>
        <time>2026-09-03T17:13:37.889Z</time>
      </trkpt>
      <trkpt lat="47.26758" lon="-1.73701">
        <ele>66.99441</ele>
        <time>2026-09-03T17:13:40.543Z</time>
      </trkpt>
      <trkpt lat="47.26745" lon="-1.73685">
        <ele>66.985961</ele>
        <time>2026-09-03T17:13:44.576Z</time>
      </trkpt>
      <trkpt lat="47.26728" lon="-1.73662">
        <ele>66.974665</ele>
        <time>2026-09-03T17:13:49.936Z</time>
      </trkpt>
      <trkpt lat="47.26717" lon="-1.73637">
        <ele>66.964437</ele>
        <time>2026-09-03T17:13:54.681Z</time>
      </trkpt>
      <trkpt lat="47.2668" lon="-1.73579">
        <ele>66.937488</ele>
        <time>2026-09-03T17:14:08.022Z</time>
      </trkpt>
      <trkpt lat="47.26665" lon="-1.73576">
        <ele>66.929918</ele>
        <time>2026-09-03T17:14:12.097Z</time>
      </trkpt>
      <trkpt lat="47.2663" lon="-1.7358">
        <ele>66.911963</ele>
        <time>2026-09-03T17:14:22.272Z</time>
      </trkpt>
      <trkpt lat="47.26654" lon="-1.73468">
        <ele>68.365878</ele>
        <time>2026-09-03T17:14:39.978Z</time>
      </trkpt>
      <trkpt lat="47.2665" lon="-1.73438">
        <ele>68.767466</ele>
        <time>2026-09-03T17:14:45.052Z</time>
      </trkpt>
      <trkpt lat="47.26637" lon="-1.73389">
        <ele>69.473994</ele>
        <time>2026-09-03T17:14:54.589Z</time>
      </trkpt>
      <trkpt lat="47.26618" lon="-1.73328">
        <ele>70.385716</ele>
        <time>2026-09-03T17:15:06.022Z</time>
      </trkpt>
      <trkpt lat="47.26602" lon="-1.73294">
        <ele>70.538716</ele>
        <time>2026-09-03T17:15:12.144Z</time>
      </trkpt>
      <trkpt lat="47.26581" lon="-1.73266">
        <ele>70.628089</ele>
        <time>2026-09-03T17:15:17.761Z</time>
      </trkpt>
      <trkpt lat="47.26564" lon="-1.73233">
        <ele>70.718282</ele>
        <time>2026-09-03T17:15:22.727Z</time>
      </trkpt>
      <trkpt lat="47.26547" lon="-1.73228">
        <ele>70.771774</ele>
        <time>2026-09-03T17:15:25.418Z</time>
      </trkpt>
      <trkpt lat="47.26536" lon="-1.7322">
        <ele>70.811319</ele>
        <time>2026-09-03T17:15:27.331Z</time>
      </trkpt>
      <trkpt lat="47.26531" lon="-1.73205">
        <ele>70.846252</ele>
        <time>2026-09-03T17:15:28.986Z</time>
      </trkpt>
      <trkpt lat="47.26477" lon="-1.73209">
        <ele>71.017605</ele>
        <time>2026-09-03T17:15:41.806Z</time>
      </trkpt>
      <trkpt lat="47.26465" lon="-1.73149">
        <ele>71.101898</ele>
        <time>2026-09-03T17:15:51.878Z</time>
      </trkpt>
      <trkpt lat="47.26452" lon="-1.7308">
        <ele>71.190017</ele>
        <time>2026-09-03T17:16:03.816Z</time>
      </trkpt>
      <trkpt lat="47.26447" lon="-1.73064">
        <ele>71.210392</ele>
        <time>2026-09-03T17:16:06.729Z</time>
      </trkpt>
      <trkpt lat="47.26429" lon="-1.73025">
        <ele>71.268533</ele>
        <time>2026-09-03T17:16:15.486Z</time>
      </trkpt>
      <trkpt lat="47.26413" lon="-1.72967">
        <ele>71.346051</ele>
        <time>2026-09-03T17:16:23.975Z</time>
      </trkpt>
      <trkpt lat="47.26414" lon="-1.72963">
        <ele>71.350998</ele>
        <time>2026-09-03T17:16:24.552Z</time>
      </trkpt>
      <trkpt lat="47.26415" lon="-1.72957">
        <ele>71.358098</ele>
        <time>2026-09-03T17:16:25.399Z</time>
      </trkpt>
      <trkpt lat="47.26514" lon="-1.72843">
        <ele>72.968605</ele>
        <time>2026-09-03T17:16:53.342Z</time>
      </trkpt>
      <trkpt lat="47.26558" lon="-1.72787">
        <ele>73.640625</ele>
        <time>2026-09-03T17:17:04.486Z</time>
      </trkpt>
      <trkpt lat="47.26528" lon="-1.72658">
        <ele>73.304799</ele>
        <time>2026-09-03T17:17:19.209Z</time>
      </trkpt>
      <trkpt lat="47.26519" lon="-1.72637">
        <ele>73.245263</ele>
        <time>2026-09-03T17:17:21.587Z</time>
      </trkpt>
      <trkpt lat="47.26494" lon="-1.72595">
        <ele>73.109799</ele>
        <time>2026-09-03T17:17:26.837Z</time>
      </trkpt>
      <trkpt lat="47.26458" lon="-1.72515">
        <ele>72.816761</ele>
        <time>2026-09-03T17:17:35.991Z</time>
      </trkpt>
      <trkpt lat="47.26433" lon="-1.72465">
        <ele>72.602021</ele>
        <time>2026-09-03T17:17:41.815Z</time>
      </trkpt>
      <trkpt lat="47.26453" lon="-1.72443">
        <ele>72.474174</ele>
        <time>2026-09-03T17:17:45.388Z</time>
      </trkpt>
      <trkpt lat="47.2644" lon="-1.72376">
        <ele>72.233646</ele>
        <time>2026-09-03T17:17:56.953Z</time>
      </trkpt>
      <trkpt lat="47.26435" lon="-1.72333">
        <ele>72.100352</ele>
        <time>2026-09-03T17:18:04.852Z</time>
      </trkpt>
      <trkpt lat="47.2643" lon="-1.72272">
        <ele>72.513549</ele>
        <time>2026-09-03T17:18:16.556Z</time>
      </trkpt>
      <trkpt lat="47.26422" lon="-1.72252">
        <ele>72.671225</ele>
        <time>2026-09-03T17:18:21.154Z</time>
      </trkpt>
      <trkpt lat="47.26413" lon="-1.72237">
        <ele>72.806127</ele>
        <time>2026-09-03T17:18:25.162Z</time>
      </trkpt>
      <trkpt lat="47.26387" lon="-1.72204">
        <ele>73.141741</ele>
        <time>2026-09-03T17:18:35.443Z</time>
      </trkpt>
      <trkpt lat="47.26351" lon="-1.72184">
        <ele>73.526514</ele>
        <time>2026-09-03T17:18:47.352Z</time>
      </trkpt>
      <trkpt lat="47.26314" lon="-1.72158">
        <ele>73.877481</ele>
        <time>2026-09-03T17:18:59.402Z</time>
      </trkpt>
      <trkpt lat="47.26299" lon="-1.72142">
        <ele>73.886451</ele>
        <time>2026-09-03T17:19:04.877Z</time>
      </trkpt>
      <trkpt lat="47.26276" lon="-1.72116">
        <ele>73.899895</ele>
        <time>2026-09-03T17:19:12.784Z</time>
      </trkpt>
      <trkpt lat="47.26263" lon="-1.72095">
        <ele>73.908873</ele>
        <time>2026-09-03T17:19:17.905Z</time>
      </trkpt>
      <trkpt lat="47.26254" lon="-1.72067">
        <ele>73.918817</ele>
        <time>2026-09-03T17:19:23.382Z</time>
      </trkpt>
      <trkpt lat="47.26228" lon="-1.71986">
        <ele>73.947104</ele>
        <time>2026-09-03T17:19:38.286Z</time>
      </trkpt>
      <trkpt lat="47.262" lon="-1.71928">
        <ele>73.709874</ele>
        <time>2026-09-03T17:19:49.669Z</time>
      </trkpt>
      <trkpt lat="47.26173" lon="-1.71901">
        <ele>73.355679</ele>
        <time>2026-09-03T17:19:57.237Z</time>
      </trkpt>
      <trkpt lat="47.26158" lon="-1.71833">
        <ele>72.824134</ele>
        <time>2026-09-03T17:20:08.610Z</time>
      </trkpt>
      <trkpt lat="47.26144" lon="-1.7179">
        <ele>72.475357</ele>
        <time>2026-09-03T17:20:15.903Z</time>
      </trkpt>
      <trkpt lat="47.26177" lon="-1.71775">
        <ele>72.099921</ele>
        <time>2026-09-03T17:20:19.877Z</time>
      </trkpt>
      <trkpt lat="47.26175" lon="-1.71756">
        <ele>71.952258</ele>
        <time>2026-09-03T17:20:21.630Z</time>
      </trkpt>
      <trkpt lat="47.2615" lon="-1.71692">
        <ele>71.285934</ele>
        <time>2026-09-03T17:20:28.730Z</time>
      </trkpt>
      <trkpt lat="47.26132" lon="-1.71643">
        <ele>70.786806</ele>
        <time>2026-09-03T17:20:34.162Z</time>
      </trkpt>
      <trkpt lat="47.26124" lon="-1.71618">
        <ele>70.542977</ele>
        <time>2026-09-03T17:20:36.737Z</time>
      </trkpt>
      <trkpt lat="47.26123" lon="-1.71606">
        <ele>70.430463</ele>
        <time>2026-09-03T17:20:37.912Z</time>
      </trkpt>
      <trkpt lat="47.26126" lon="-1.71577">
        <ele>70.162645</ele>
        <time>2026-09-03T17:20:40.640Z</time>
      </trkpt>
      <trkpt lat="47.26137" lon="-1.71559">
        <ele>69.948696</ele>
        <time>2026-09-03T17:20:42.788Z</time>
      </trkpt>
      <trkpt lat="47.26192" lon="-1.71494">
        <ele>68.146263</ele>
        <time>2026-09-03T17:20:51.755Z</time>
      </trkpt>
      <trkpt lat="47.26202" lon="-1.71475">
        <ele>67.616461</ele>
        <time>2026-09-03T17:20:53.740Z</time>
      </trkpt>
      <trkpt lat="47.26211" lon="-1.7145">
        <ele>66.984248</ele>
        <time>2026-09-03T17:20:56.045Z</time>
      </trkpt>
      <trkpt lat="47.26218" lon="-1.71416">
        <ele>66.206698</ele>
        <time>2026-09-03T17:20:58.848Z</time>
      </trkpt>
      <trkpt lat="47.26242" lon="-1.71268">
        <ele>62.982767</ele>
        <time>2026-09-03T17:21:10.749Z</time>
      </trkpt>
      <trkpt lat="47.26275" lon="-1.71078">
        <ele>59.281817</ele>
        <time>2026-09-03T17:21:26.921Z</time>
      </trkpt>
      <trkpt lat="47.26324" lon="-1.70789">
        <ele>57.443299</ele>
        <time>2026-09-03T17:21:56.187Z</time>
      </trkpt>
      <trkpt lat="47.26326" lon="-1.70742">
        <ele>57.552194</ele>
        <time>2026-09-03T17:22:01.813Z</time>
      </trkpt>
      <trkpt lat="47.2632" lon="-1.7069">
        <ele>57.675411</ele>
        <time>2026-09-03T17:22:08.555Z</time>
      </trkpt>
      <trkpt lat="47.26299" lon="-1.70591">
        <ele>57.916696</ele>
        <time>2026-09-03T17:22:21.957Z</time>
      </trkpt>
      <trkpt lat="47.26284" lon="-1.7052">
        <ele>57.915055</ele>
        <time>2026-09-03T17:22:30.277Z</time>
      </trkpt>
      <trkpt lat="47.26267" lon="-1.70478">
        <ele>57.587592</ele>
        <time>2026-09-03T17:22:35.105Z</time>
      </trkpt>
      <trkpt lat="47.2621" lon="-1.70365">
        <ele>56.641503</ele>
        <time>2026-09-03T17:22:47.871Z</time>
      </trkpt>
      <trkpt lat="47.26072" lon="-1.70479">
        <ele>56.106417</ele>
        <time>2026-09-03T17:23:06.412Z</time>
      </trkpt>
      <trkpt lat="47.26063" lon="-1.70487">
        <ele>56.093098</ele>
        <time>2026-09-03T17:23:08.179Z</time>
      </trkpt>
      <trkpt lat="47.26034" lon="-1.70511">
        <ele>56.052045</ele>
        <time>2026-09-03T17:23:14.989Z</time>
      </trkpt>
      <trkpt lat="47.25971" lon="-1.70568">
        <ele>57.291522</ele>
        <time>2026-09-03T17:23:33.773Z</time>
      </trkpt>
      <trkpt lat="47.25921" lon="-1.70622">
        <ele>58.631786</ele>
        <time>2026-09-03T17:23:49.925Z</time>
      </trkpt>
      <trkpt lat="47.25904" lon="-1.70645">
        <ele>59.136343</ele>
        <time>2026-09-03T17:23:55.542Z</time>
      </trkpt>
      <trkpt lat="47.25777" lon="-1.70754">
        <ele>61.199204</ele>
        <time>2026-09-03T17:24:25.443Z</time>
      </trkpt>
      <trkpt lat="47.25755" lon="-1.70759">
        <ele>61.448714</ele>
        <time>2026-09-03T17:24:29.676Z</time>
      </trkpt>
      <trkpt lat="47.25648" lon="-1.70751">
        <ele>62.515448</ele>
        <time>2026-09-03T17:24:50.096Z</time>
      </trkpt>
      <trkpt lat="47.25595" lon="-1.70744">
        <ele>62.982931</ele>
        <time>2026-09-03T17:25:00.320Z</time>
      </trkpt>
      <trkpt lat="47.25591" lon="-1.70717">
        <ele>63.143904</ele>
        <time>2026-09-03T17:25:03.831Z</time>
      </trkpt>
      <trkpt lat="47.25563" lon="-1.7058">
        <ele>63.529623</ele>
        <time>2026-09-03T17:25:22.309Z</time>
      </trkpt>
      <trkpt lat="47.25575" lon="-1.70546">
        <ele>63.511313</ele>
        <time>2026-09-03T17:25:27.024Z</time>
      </trkpt>
      <trkpt lat="47.25601" lon="-1.70489">
        <ele>63.478736</ele>
        <time>2026-09-03T17:25:34.541Z</time>
      </trkpt>
      <trkpt lat="47.25618" lon="-1.70467">
        <ele>63.462675</ele>
        <time>2026-09-03T17:25:37.983Z</time>
      </trkpt>
      <trkpt lat="47.25711" lon="-1.70384">
        <ele>62.521325</ele>
        <time>2026-09-03T17:25:52.497Z</time>
      </trkpt>
      <trkpt lat="47.25778" lon="-1.70338">
        <ele>61.59991</ele>
        <time>2026-09-03T17:26:02.338Z</time>
      </trkpt>
      <trkpt lat="47.25797" lon="-1.70321">
        <ele>61.328352</ele>
        <time>2026-09-03T17:26:05.414Z</time>
      </trkpt>
      <trkpt lat="47.258" lon="-1.70312">
        <ele>61.244133</ele>
        <time>2026-09-03T17:26:06.376Z</time>
      </trkpt>
      <trkpt lat="47.25772" lon="-1.70204">
        <ele>61.182371</ele>
        <time>2026-09-03T17:26:18.550Z</time>
      </trkpt>
      <trkpt lat="47.25711" lon="-1.69987">
        <ele>60.58282</ele>
        <time>2026-09-03T17:26:45.909Z</time>
      </trkpt>
      <trkpt lat="47.25671" lon="-1.69808">
        <ele>59.210469</ele>
        <time>2026-09-03T17:27:02.792Z</time>
      </trkpt>
      <trkpt lat="47.2567" lon="-1.69761">
        <ele>58.696956</ele>
        <time>2026-09-03T17:27:06.893Z</time>
      </trkpt>
      <trkpt lat="47.25664" lon="-1.69722">
        <ele>58.261879</ele>
        <time>2026-09-03T17:27:10.407Z</time>
      </trkpt>
      <trkpt lat="47.25656" lon="-1.69696">
        <ele>57.949605</ele>
        <time>2026-09-03T17:27:12.925Z</time>
      </trkpt>
      <trkpt lat="47.25647" lon="-1.69681">
        <ele>57.737951</ele>
        <time>2026-09-03T17:27:14.630Z</time>
      </trkpt>
      <trkpt lat="47.25602" lon="-1.69667">
        <ele>57.004702</ele>
        <time>2026-09-03T17:27:20.630Z</time>
      </trkpt>
      <trkpt lat="47.25528" lon="-1.69655">
        <ele>56.07205</ele>
        <time>2026-09-03T17:27:31.299Z</time>
      </trkpt>
      <trkpt lat="47.25504" lon="-1.69647">
        <ele>55.857435</ele>
        <time>2026-09-03T17:27:35.054Z</time>
      </trkpt>
      <trkpt lat="47.25496" lon="-1.69642">
        <ele>55.78825</ele>
        <time>2026-09-03T17:27:36.267Z</time>
      </trkpt>
      <trkpt lat="47.25428" lon="-1.69602">
        <ele>55.163425</ele>
        <time>2026-09-03T17:27:47.023Z</time>
      </trkpt>
      <trkpt lat="47.25478" lon="-1.69449">
        <ele>53.536881</ele>
        <time>2026-09-03T17:28:13.325Z</time>
      </trkpt>
      <trkpt lat="47.255" lon="-1.69429">
        <ele>53.106184</ele>
        <time>2026-09-03T17:28:18.763Z</time>
      </trkpt>
      <trkpt lat="47.25522" lon="-1.69413">
        <ele>52.686013</ele>
        <time>2026-09-03T17:28:24.121Z</time>
      </trkpt>
      <trkpt lat="47.25544" lon="-1.69388">
        <ele>52.207149</ele>
        <time>2026-09-03T17:28:30.270Z</time>
      </trkpt>
      <trkpt lat="47.25566" lon="-1.69353">
        <ele>51.677235</ele>
        <time>2026-09-03T17:28:37.315Z</time>
      </trkpt>
      <trkpt lat="47.25574" lon="-1.69333">
        <ele>51.448219</ele>
        <time>2026-09-03T17:28:40.842Z</time>
      </trkpt>
      <trkpt lat="47.2557" lon="-1.69292">
        <ele>51.04812</ele>
        <time>2026-09-03T17:28:47.066Z</time>
      </trkpt>
      <trkpt lat="47.25574" lon="-1.69221">
        <ele>50.34956</ele>
        <time>2026-09-03T17:28:58.016Z</time>
      </trkpt>
      <trkpt lat="47.2557" lon="-1.69187">
        <ele>50.016526</ele>
        <time>2026-09-03T17:29:03.225Z</time>
      </trkpt>
      <trkpt lat="47.25552" lon="-1.69118">
        <ele>49.287243</ele>
        <time>2026-09-03T17:29:14.823Z</time>
      </trkpt>
      <trkpt lat="47.25551" lon="-1.69087">
        <ele>49.195541</ele>
        <time>2026-09-03T17:29:19.771Z</time>
      </trkpt>
      <trkpt lat="47.25551" lon="-1.69038">
        <ele>49.260936</ele>
        <time>2026-09-03T17:29:27.860Z</time>
      </trkpt>
      <trkpt lat="47.25557" lon="-1.69033">
        <ele>49.275618</ele>
        <time>2026-09-03T17:29:29.420Z</time>
      </trkpt>
      <trkpt lat="47.25551" lon="-1.69016">
        <ele>49.301516</ele>
        <time>2026-09-03T17:29:31.455Z</time>
      </trkpt>
      <trkpt lat="47.25522" lon="-1.69037">
        <ele>49.365531</ele>
        <time>2026-09-03T17:29:36.030Z</time>
      </trkpt>
      <trkpt lat="47.25472" lon="-1.69063">
        <ele>49.468783</ele>
        <time>2026-09-03T17:29:44.393Z</time>
      </trkpt>
      <trkpt lat="47.25413" lon="-1.69082">
        <ele>49.939055</ele>
        <time>2026-09-03T17:29:55.491Z</time>
      </trkpt>
      <trkpt lat="47.25277" lon="-1.69115">
        <ele>51.692999</ele>
        <time>2026-09-03T17:30:20.690Z</time>
      </trkpt>
      <trkpt lat="47.25265" lon="-1.69117">
        <ele>51.854436</ele>
        <time>2026-09-03T17:30:22.918Z</time>
      </trkpt>
      <trkpt lat="47.25243" lon="-1.69126">
        <ele>52.245434</ele>
        <time>2026-09-03T17:30:27.346Z</time>
      </trkpt>
      <trkpt lat="47.25185" lon="-1.69159">
        <ele>53.32062</ele>
        <time>2026-09-03T17:30:39.779Z</time>
      </trkpt>
      <trkpt lat="47.25132" lon="-1.69188">
        <ele>54.285547</ele>
        <time>2026-09-03T17:30:51.254Z</time>
      </trkpt>
      <trkpt lat="47.25089" lon="-1.69201">
        <ele>55.030352</ele>
        <time>2026-09-03T17:30:59.833Z</time>
      </trkpt>
      <trkpt lat="47.24979" lon="-1.69216">
        <ele>56.821075</ele>
        <time>2026-09-03T17:31:22.430Z</time>
      </trkpt>
      <trkpt lat="47.24945" lon="-1.69223">
        <ele>57.38028</ele>
        <time>2026-09-03T17:31:29.150Z</time>
      </trkpt>
      <trkpt lat="47.24923" lon="-1.69223">
        <ele>57.737665</ele>
        <time>2026-09-03T17:31:33.223Z</time>
      </trkpt>
      <trkpt lat="47.24904" lon="-1.69219">
        <ele>57.879085</ele>
        <time>2026-09-03T17:31:36.707Z</time>
      </trkpt>
      <trkpt lat="47.24887" lon="-1.69211">
        <ele>57.952076</ele>
        <time>2026-09-03T17:31:39.754Z</time>
      </trkpt>
      <trkpt lat="47.24813" lon="-1.69151">
        <ele>58.298409</ele>
        <time>2026-09-03T17:31:52.601Z</time>
      </trkpt>
      <trkpt lat="47.24735" lon="-1.69086">
        <ele>58.376101</ele>
        <time>2026-09-03T17:32:04.568Z</time>
      </trkpt>
      <trkpt lat="47.24702" lon="-1.69059">
        <ele>58.109791</ele>
        <time>2026-09-03T17:32:09.640Z</time>
      </trkpt>
      <trkpt lat="47.24659" lon="-1.69034">
        <ele>57.789151</ele>
        <time>2026-09-03T17:32:15.484Z</time>
      </trkpt>
      <trkpt lat="47.24632" lon="-1.69032">
        <ele>57.605976</ele>
        <time>2026-09-03T17:32:18.679Z</time>
      </trkpt>
      <trkpt lat="47.2462" lon="-1.69035">
        <ele>57.517825</ele>
        <time>2026-09-03T17:32:20.179Z</time>
      </trkpt>
      <trkpt lat="47.24601" lon="-1.69042">
        <ele>57.385347</ele>
        <time>2026-09-03T17:32:22.387Z</time>
      </trkpt>
      <trkpt lat="47.24544" lon="-1.69074">
        <ele>56.247325</ele>
        <time>2026-09-03T17:32:29.218Z</time>
      </trkpt>
      <trkpt lat="47.24517" lon="-1.69104">
        <ele>55.530805</ele>
        <time>2026-09-03T17:32:32.861Z</time>
      </trkpt>
      <trkpt lat="47.24506" lon="-1.69114">
        <ele>55.251875</ele>
        <time>2026-09-03T17:32:34.250Z</time>
      </trkpt>
      <trkpt lat="47.24482" lon="-1.69121">
        <ele>54.739847</ele>
        <time>2026-09-03T17:32:36.794Z</time>
      </trkpt>
      <trkpt lat="47.24479" lon="-1.69133">
        <ele>54.558231</ele>
        <time>2026-09-03T17:32:37.692Z</time>
      </trkpt>
      <trkpt lat="47.24471" lon="-1.69137">
        <ele>54.377183</ele>
        <time>2026-09-03T17:32:38.587Z</time>
      </trkpt>
      <trkpt lat="47.24466" lon="-1.69133">
        <ele>54.252384</ele>
        <time>2026-09-03T17:32:39.198Z</time>
      </trkpt>
      <trkpt lat="47.24463" lon="-1.69125">
        <ele>54.12978</ele>
        <time>2026-09-03T17:32:39.807Z</time>
      </trkpt>
      <trkpt lat="47.24455" lon="-1.69128">
        <ele>53.948161</ele>
        <time>2026-09-03T17:32:40.704Z</time>
      </trkpt>
      <trkpt lat="47.24443" lon="-1.69138">
        <ele>53.659686</ele>
        <time>2026-09-03T17:32:42.126Z</time>
      </trkpt>
      <trkpt lat="47.24407" lon="-1.69173">
        <ele>52.588791</ele>
        <time>2026-09-03T17:32:46.690Z</time>
      </trkpt>
      <trkpt lat="47.24372" lon="-1.69208">
        <ele>51.518038</ele>
        <time>2026-09-03T17:32:51.163Z</time>
      </trkpt>
      <trkpt lat="47.24379" lon="-1.69278">
        <ele>50.314196</ele>
        <time>2026-09-03T17:33:01.297Z</time>
      </trkpt>
      <trkpt lat="47.24389" lon="-1.69454">
        <ele>47.419387</ele>
        <time>2026-09-03T17:33:26.973Z</time>
      </trkpt>
      <trkpt lat="47.24384" lon="-1.69475">
        <ele>47.071964</ele>
        <time>2026-09-03T17:33:30.183Z</time>
      </trkpt>
      <trkpt lat="47.24377" lon="-1.6954">
        <ele>46.037329</ele>
        <time>2026-09-03T17:33:39.774Z</time>
      </trkpt>
      <trkpt lat="47.24375" lon="-1.69549">
        <ele>45.894263</ele>
        <time>2026-09-03T17:33:41.096Z</time>
      </trkpt>
      <trkpt lat="47.2437" lon="-1.69574">
        <ele>45.478078</ele>
        <time>2026-09-03T17:33:44.956Z</time>
      </trkpt>
      <trkpt lat="47.24321" lon="-1.69736">
        <ele>44.0157</ele>
        <time>2026-09-03T17:34:11.914Z</time>
      </trkpt>
      <trkpt lat="47.24319" lon="-1.69745">
        <ele>43.963088</ele>
        <time>2026-09-03T17:34:13.354Z</time>
      </trkpt>
      <trkpt lat="47.24224" lon="-1.70035">
        <ele>43.270062</ele>
        <time>2026-09-03T17:35:10.176Z</time>
      </trkpt>
      <trkpt lat="47.24275" lon="-1.70194">
        <ele>42.141468</ele>
        <time>2026-09-03T17:35:39.277Z</time>
      </trkpt>
      <trkpt lat="47.24255" lon="-1.70206">
        <ele>41.823697</ele>
        <time>2026-09-03T17:35:44.078Z</time>
      </trkpt>
      <trkpt lat="47.24136" lon="-1.70312">
        <ele>38.813542</ele>
        <time>2026-09-03T17:36:13.667Z</time>
      </trkpt>
      <trkpt lat="47.2413" lon="-1.70311">
        <ele>38.601064</ele>
        <time>2026-09-03T17:36:15.048Z</time>
      </trkpt>
      <trkpt lat="47.24115" lon="-1.70512">
        <ele>34.263382</ele>
        <time>2026-09-03T17:36:30.567Z</time>
      </trkpt>
      <trkpt lat="47.24112" lon="-1.70595">
        <ele>32.446748</ele>
        <time>2026-09-03T17:36:37.035Z</time>
      </trkpt>
      <trkpt lat="47.24102" lon="-1.7069">
        <ele>30.373969</ele>
        <time>2026-09-03T17:36:44.532Z</time>
      </trkpt>
      <trkpt lat="47.24093" lon="-1.70723">
        <ele>29.602619</ele>
        <time>2026-09-03T17:36:47.355Z</time>
      </trkpt>
      <trkpt lat="47.24079" lon="-1.70754">
        <ele>28.943051</ele>
        <time>2026-09-03T17:36:50.318Z</time>
      </trkpt>
      <trkpt lat="47.24065" lon="-1.7081">
        <ele>28.195782</ele>
        <time>2026-09-03T17:36:55.116Z</time>
      </trkpt>
      <trkpt lat="47.24069" lon="-1.70895">
        <ele>27.138868</ele>
        <time>2026-09-03T17:37:02.143Z</time>
      </trkpt>
      <trkpt lat="47.24067" lon="-1.70946">
        <ele>26.496317</ele>
        <time>2026-09-03T17:37:06.640Z</time>
      </trkpt>
      <trkpt lat="47.24036" lon="-1.70979">
        <ele>25.83329</ele>
        <time>2026-09-03T17:37:12.011Z</time>
      </trkpt>
      <trkpt lat="47.23988" lon="-1.71054">
        <ele>26.237586</ele>
        <time>2026-09-03T17:37:23.480Z</time>
      </trkpt>
      <trkpt lat="47.23966" lon="-1.71074">
        <ele>26.383317</ele>
        <time>2026-09-03T17:37:28.550Z</time>
      </trkpt>
      <trkpt lat="47.23958" lon="-1.71079">
        <ele>26.43518</ele>
        <time>2026-09-03T17:37:30.429Z</time>
      </trkpt>
      <trkpt lat="47.23945" lon="-1.71108">
        <ele>26.571171</ele>
        <time>2026-09-03T17:37:35.385Z</time>
      </trkpt>
      <trkpt lat="47.23931" lon="-1.71152">
        <ele>26.760145</ele>
        <time>2026-09-03T17:37:42.210Z</time>
      </trkpt>
      <trkpt lat="47.23911" lon="-1.71238">
        <ele>26.396537</ele>
        <time>2026-09-03T17:37:53.502Z</time>
      </trkpt>
      <trkpt lat="47.23887" lon="-1.71294">
        <ele>25.931917</ele>
        <time>2026-09-03T17:37:59.897Z</time>
      </trkpt>
      <trkpt lat="47.23872" lon="-1.71302">
        <ele>25.769426</ele>
        <time>2026-09-03T17:38:01.928Z</time>
      </trkpt>
      <trkpt lat="47.23863" lon="-1.71318">
        <ele>25.623552</ele>
        <time>2026-09-03T17:38:03.694Z</time>
      </trkpt>
      <trkpt lat="47.23852" lon="-1.71415">
        <ele>24.878908</ele>
        <time>2026-09-03T17:38:11.583Z</time>
      </trkpt>
      <trkpt lat="47.23849" lon="-1.71438">
        <ele>24.563741</ele>
        <time>2026-09-03T17:38:13.462Z</time>
      </trkpt>
      <trkpt lat="47.23828" lon="-1.71554">
        <ele>22.994037</ele>
        <time>2026-09-03T17:38:23.004Z</time>
      </trkpt>
      <trkpt lat="47.23814" lon="-1.7165">
        <ele>21.703639</ele>
        <time>2026-09-03T17:38:31.877Z</time>
      </trkpt>
      <trkpt lat="47.23807" lon="-1.7167">
        <ele>21.511625</ele>
        <time>2026-09-03T17:38:34.105Z</time>
      </trkpt>
      <trkpt lat="47.23791" lon="-1.71706">
        <ele>21.454848</ele>
        <time>2026-09-03T17:38:38.523Z</time>
      </trkpt>
      <trkpt lat="47.23775" lon="-1.71768">
        <ele>21.366143</ele>
        <time>2026-09-03T17:38:46.069Z</time>
      </trkpt>
      <trkpt lat="47.2376" lon="-1.71804">
        <ele>21.310411</ele>
        <time>2026-09-03T17:38:50.947Z</time>
      </trkpt>
      <trkpt lat="47.23717" lon="-1.71857">
        <ele>21.201315</ele>
        <time>2026-09-03T17:38:59.763Z</time>
      </trkpt>
      <trkpt lat="47.23706" lon="-1.7188">
        <ele>21.171818</ele>
        <time>2026-09-03T17:39:02.313Z</time>
      </trkpt>
      <trkpt lat="47.23686" lon="-1.71936">
        <ele>21.171818</ele>
        <time>2026-09-03T17:39:07.910Z</time>
      </trkpt>
      <trkpt lat="47.23645" lon="-1.72014">
        <ele>21.171818</ele>
        <time>2026-09-03T17:39:16.579Z</time>
      </trkpt>
    </trkseg>
  </trk>
</gpx>